<?xml version="1.0" encoding="UTF-8" standalone="no" ?>
<gpx xmlns="http://www.topografix.com/GPX/1/1" xmlns:xsi="http://www.w3.org/2001/XMLSchema-instance" xsi:schemaLocation="http://www.topografix.com/GPX/1/1 http://www.topografix.com/GPX/1/1/gpx.xsd" version="1.1" creator="VisuGPX - https://www.visugpx.com">
  <metadata>
    <name>Sancerre 2</name>
    <desc><![CDATA[Petite boucle dans les vignes avec un retour par Sancerre.]]></desc>
  </metadata>
  <trk>
    <name><![CDATA[Sancerre 2]]></name>
    <trkseg>
      <trkpt lat="47.32924" lon="2.8361">
        <ele>264.39999389648</ele>
        <time>2019-10-12T11:47:43Z</time>
      </trkpt>
      <trkpt lat="47.3292" lon="2.83614">
        <ele>264.60000610352</ele>
        <time>2019-10-12T11:47:48Z</time>
      </trkpt>
      <trkpt lat="47.32916" lon="2.83617">
        <ele>264.39999389648</ele>
        <time>2019-10-12T11:47:53Z</time>
      </trkpt>
      <trkpt lat="47.32911" lon="2.83619">
        <ele>264</ele>
        <time>2019-10-12T11:47:58Z</time>
      </trkpt>
      <trkpt lat="47.32908" lon="2.83616">
        <ele>264.20001220703</ele>
        <time>2019-10-12T11:48:03Z</time>
      </trkpt>
      <trkpt lat="47.32902" lon="2.83614">
        <ele>264</ele>
        <time>2019-10-12T11:48:08Z</time>
      </trkpt>
      <trkpt lat="47.32896" lon="2.83618">
        <ele>264</ele>
        <time>2019-10-12T11:48:13Z</time>
      </trkpt>
      <trkpt lat="47.32892" lon="2.83622">
        <ele>263.79998779297</ele>
        <time>2019-10-12T11:48:18Z</time>
      </trkpt>
      <trkpt lat="47.32891" lon="2.83623">
        <ele>264</ele>
        <time>2019-10-12T11:48:23Z</time>
      </trkpt>
      <trkpt lat="47.32888" lon="2.83623">
        <ele>263.60000610352</ele>
        <time>2019-10-12T11:48:28Z</time>
      </trkpt>
      <trkpt lat="47.32888" lon="2.83623">
        <ele>262.39999389648</ele>
        <time>2019-10-12T11:48:33Z</time>
      </trkpt>
      <trkpt lat="47.32887" lon="2.83622">
        <ele>261.20001220703</ele>
        <time>2019-10-12T11:48:38Z</time>
      </trkpt>
      <trkpt lat="47.32881" lon="2.83609">
        <ele>260.39999389648</ele>
        <time>2019-10-12T11:48:43Z</time>
      </trkpt>
      <trkpt lat="47.32877" lon="2.83602">
        <ele>259.39999389648</ele>
        <time>2019-10-12T11:48:48Z</time>
      </trkpt>
      <trkpt lat="47.32875" lon="2.83597">
        <ele>258.60000610352</ele>
        <time>2019-10-12T11:48:53Z</time>
      </trkpt>
      <trkpt lat="47.32872" lon="2.83594">
        <ele>257.79998779297</ele>
        <time>2019-10-12T11:48:58Z</time>
      </trkpt>
      <trkpt lat="47.3287" lon="2.83592">
        <ele>256.60000610352</ele>
        <time>2019-10-12T11:49:03Z</time>
      </trkpt>
      <trkpt lat="47.32868" lon="2.83588">
        <ele>256</ele>
        <time>2019-10-12T11:49:08Z</time>
      </trkpt>
      <trkpt lat="47.32866" lon="2.83584">
        <ele>254.80000305176</ele>
        <time>2019-10-12T11:49:13Z</time>
      </trkpt>
      <trkpt lat="47.32865" lon="2.8358">
        <ele>253.80000305176</ele>
        <time>2019-10-12T11:49:18Z</time>
      </trkpt>
      <trkpt lat="47.32867" lon="2.83576">
        <ele>252.80000305176</ele>
        <time>2019-10-12T11:49:23Z</time>
      </trkpt>
      <trkpt lat="47.32869" lon="2.83569">
        <ele>252.39999389648</ele>
        <time>2019-10-12T11:49:28Z</time>
      </trkpt>
      <trkpt lat="47.32871" lon="2.83561">
        <ele>252.39999389648</ele>
        <time>2019-10-12T11:49:33Z</time>
      </trkpt>
      <trkpt lat="47.32873" lon="2.83554">
        <ele>251.80000305176</ele>
        <time>2019-10-12T11:49:38Z</time>
      </trkpt>
      <trkpt lat="47.32874" lon="2.83544">
        <ele>251.39999389648</ele>
        <time>2019-10-12T11:49:43Z</time>
      </trkpt>
      <trkpt lat="47.32877" lon="2.83536">
        <ele>251</ele>
        <time>2019-10-12T11:49:48Z</time>
      </trkpt>
      <trkpt lat="47.32879" lon="2.83528">
        <ele>250.60000610352</ele>
        <time>2019-10-12T11:49:53Z</time>
      </trkpt>
      <trkpt lat="47.32881" lon="2.8352">
        <ele>250.19999694824</ele>
        <time>2019-10-12T11:49:58Z</time>
      </trkpt>
      <trkpt lat="47.32883" lon="2.83511">
        <ele>250</ele>
        <time>2019-10-12T11:50:03Z</time>
      </trkpt>
      <trkpt lat="47.32885" lon="2.83504">
        <ele>249.60000610352</ele>
        <time>2019-10-12T11:50:08Z</time>
      </trkpt>
      <trkpt lat="47.32886" lon="2.83496">
        <ele>249</ele>
        <time>2019-10-12T11:50:13Z</time>
      </trkpt>
      <trkpt lat="47.32888" lon="2.83488">
        <ele>248.39999389648</ele>
        <time>2019-10-12T11:50:18Z</time>
      </trkpt>
      <trkpt lat="47.32889" lon="2.83479">
        <ele>247.80000305176</ele>
        <time>2019-10-12T11:50:23Z</time>
      </trkpt>
      <trkpt lat="47.3289" lon="2.83471">
        <ele>247.39999389648</ele>
        <time>2019-10-12T11:50:28Z</time>
      </trkpt>
      <trkpt lat="47.32892" lon="2.83463">
        <ele>246.80000305176</ele>
        <time>2019-10-12T11:50:33Z</time>
      </trkpt>
      <trkpt lat="47.32894" lon="2.83455">
        <ele>246.60000610352</ele>
        <time>2019-10-12T11:50:38Z</time>
      </trkpt>
      <trkpt lat="47.32897" lon="2.83449">
        <ele>246.19999694824</ele>
        <time>2019-10-12T11:50:43Z</time>
      </trkpt>
      <trkpt lat="47.32899" lon="2.83441">
        <ele>246</ele>
        <time>2019-10-12T11:50:48Z</time>
      </trkpt>
      <trkpt lat="47.32902" lon="2.83432">
        <ele>245.60000610352</ele>
        <time>2019-10-12T11:50:53Z</time>
      </trkpt>
      <trkpt lat="47.32903" lon="2.83424">
        <ele>245.19999694824</ele>
        <time>2019-10-12T11:50:58Z</time>
      </trkpt>
      <trkpt lat="47.32905" lon="2.83414">
        <ele>244.80000305176</ele>
        <time>2019-10-12T11:51:03Z</time>
      </trkpt>
      <trkpt lat="47.32907" lon="2.83407">
        <ele>244.80000305176</ele>
        <time>2019-10-12T11:51:08Z</time>
      </trkpt>
      <trkpt lat="47.32909" lon="2.834">
        <ele>244.19999694824</ele>
        <time>2019-10-12T11:51:13Z</time>
      </trkpt>
      <trkpt lat="47.32911" lon="2.83392">
        <ele>244</ele>
        <time>2019-10-12T11:51:18Z</time>
      </trkpt>
      <trkpt lat="47.32913" lon="2.83385">
        <ele>243.80000305176</ele>
        <time>2019-10-12T11:51:23Z</time>
      </trkpt>
      <trkpt lat="47.32914" lon="2.83377">
        <ele>243.39999389648</ele>
        <time>2019-10-12T11:51:28Z</time>
      </trkpt>
      <trkpt lat="47.32917" lon="2.8337">
        <ele>243.39999389648</ele>
        <time>2019-10-12T11:51:33Z</time>
      </trkpt>
      <trkpt lat="47.3292" lon="2.83364">
        <ele>243.19999694824</ele>
        <time>2019-10-12T11:51:38Z</time>
      </trkpt>
      <trkpt lat="47.32923" lon="2.83356">
        <ele>243</ele>
        <time>2019-10-12T11:51:43Z</time>
      </trkpt>
      <trkpt lat="47.32923" lon="2.83355">
        <ele>243</ele>
        <time>2019-10-12T11:51:48Z</time>
      </trkpt>
      <trkpt lat="47.32925" lon="2.83358">
        <ele>243</ele>
        <time>2019-10-12T11:51:53Z</time>
      </trkpt>
      <trkpt lat="47.32928" lon="2.83365">
        <ele>243</ele>
        <time>2019-10-12T11:51:58Z</time>
      </trkpt>
      <trkpt lat="47.32931" lon="2.83371">
        <ele>243.39999389648</ele>
        <time>2019-10-12T11:52:03Z</time>
      </trkpt>
      <trkpt lat="47.32933" lon="2.83378">
        <ele>243.60000610352</ele>
        <time>2019-10-12T11:52:08Z</time>
      </trkpt>
      <trkpt lat="47.32936" lon="2.83384">
        <ele>244.19999694824</ele>
        <time>2019-10-12T11:52:13Z</time>
      </trkpt>
      <trkpt lat="47.32938" lon="2.83385">
        <ele>244.39999389648</ele>
        <time>2019-10-12T11:52:18Z</time>
      </trkpt>
      <trkpt lat="47.32939" lon="2.83384">
        <ele>244.60000610352</ele>
        <time>2019-10-12T11:52:23Z</time>
      </trkpt>
      <trkpt lat="47.3294" lon="2.83384">
        <ele>244.60000610352</ele>
        <time>2019-10-12T11:52:28Z</time>
      </trkpt>
      <trkpt lat="47.32943" lon="2.83382">
        <ele>244.60000610352</ele>
        <time>2019-10-12T11:52:33Z</time>
      </trkpt>
      <trkpt lat="47.3295" lon="2.83379">
        <ele>244.60000610352</ele>
        <time>2019-10-12T11:52:38Z</time>
      </trkpt>
      <trkpt lat="47.32953" lon="2.83372">
        <ele>244.39999389648</ele>
        <time>2019-10-12T11:52:43Z</time>
      </trkpt>
      <trkpt lat="47.32951" lon="2.83366">
        <ele>244.39999389648</ele>
        <time>2019-10-12T11:52:48Z</time>
      </trkpt>
      <trkpt lat="47.32949" lon="2.83362">
        <ele>244.19999694824</ele>
        <time>2019-10-12T11:52:53Z</time>
      </trkpt>
      <trkpt lat="47.32949" lon="2.83361">
        <ele>244</ele>
        <time>2019-10-12T11:52:58Z</time>
      </trkpt>
      <trkpt lat="47.32948" lon="2.83361">
        <ele>243.80000305176</ele>
        <time>2019-10-12T11:53:03Z</time>
      </trkpt>
      <trkpt lat="47.32948" lon="2.83361">
        <ele>243.60000610352</ele>
        <time>2019-10-12T11:53:08Z</time>
      </trkpt>
      <trkpt lat="47.32947" lon="2.8336">
        <ele>244</ele>
        <time>2019-10-12T11:53:13Z</time>
      </trkpt>
      <trkpt lat="47.32947" lon="2.8336">
        <ele>244</ele>
        <time>2019-10-12T11:53:18Z</time>
      </trkpt>
      <trkpt lat="47.32947" lon="2.83359">
        <ele>244</ele>
        <time>2019-10-12T11:53:23Z</time>
      </trkpt>
      <trkpt lat="47.32947" lon="2.83359">
        <ele>243.80000305176</ele>
        <time>2019-10-12T11:53:28Z</time>
      </trkpt>
      <trkpt lat="47.32947" lon="2.83359">
        <ele>243.39999389648</ele>
        <time>2019-10-12T11:53:33Z</time>
      </trkpt>
      <trkpt lat="47.32946" lon="2.83359">
        <ele>243.19999694824</ele>
        <time>2019-10-12T11:53:38Z</time>
      </trkpt>
      <trkpt lat="47.32945" lon="2.83359">
        <ele>243.19999694824</ele>
        <time>2019-10-12T11:53:43Z</time>
      </trkpt>
      <trkpt lat="47.32946" lon="2.83359">
        <ele>243.19999694824</ele>
        <time>2019-10-12T11:53:48Z</time>
      </trkpt>
      <trkpt lat="47.32946" lon="2.83358">
        <ele>243.19999694824</ele>
        <time>2019-10-12T11:53:53Z</time>
      </trkpt>
      <trkpt lat="47.32944" lon="2.83359">
        <ele>243.39999389648</ele>
        <time>2019-10-12T11:53:58Z</time>
      </trkpt>
      <trkpt lat="47.32944" lon="2.83359">
        <ele>243.39999389648</ele>
        <time>2019-10-12T11:54:03Z</time>
      </trkpt>
      <trkpt lat="47.32942" lon="2.83358">
        <ele>243.39999389648</ele>
        <time>2019-10-12T11:54:08Z</time>
      </trkpt>
      <trkpt lat="47.32942" lon="2.83357">
        <ele>243.39999389648</ele>
        <time>2019-10-12T11:54:13Z</time>
      </trkpt>
      <trkpt lat="47.32941" lon="2.83356">
        <ele>243.19999694824</ele>
        <time>2019-10-12T11:54:18Z</time>
      </trkpt>
      <trkpt lat="47.32941" lon="2.83356">
        <ele>243.19999694824</ele>
        <time>2019-10-12T11:54:23Z</time>
      </trkpt>
      <trkpt lat="47.32941" lon="2.83356">
        <ele>243.19999694824</ele>
        <time>2019-10-12T11:54:28Z</time>
      </trkpt>
      <trkpt lat="47.32941" lon="2.83358">
        <ele>243.19999694824</ele>
        <time>2019-10-12T11:54:33Z</time>
      </trkpt>
      <trkpt lat="47.32942" lon="2.83359">
        <ele>243.19999694824</ele>
        <time>2019-10-12T11:54:38Z</time>
      </trkpt>
      <trkpt lat="47.32942" lon="2.83359">
        <ele>243.19999694824</ele>
        <time>2019-10-12T11:54:43Z</time>
      </trkpt>
      <trkpt lat="47.32942" lon="2.83359">
        <ele>243.19999694824</ele>
        <time>2019-10-12T11:54:48Z</time>
      </trkpt>
      <trkpt lat="47.32943" lon="2.83359">
        <ele>243.19999694824</ele>
        <time>2019-10-12T11:54:53Z</time>
      </trkpt>
      <trkpt lat="47.32943" lon="2.83359">
        <ele>243.19999694824</ele>
        <time>2019-10-12T11:54:58Z</time>
      </trkpt>
      <trkpt lat="47.32943" lon="2.8336">
        <ele>243.19999694824</ele>
        <time>2019-10-12T11:55:03Z</time>
      </trkpt>
      <trkpt lat="47.32944" lon="2.8336">
        <ele>243.19999694824</ele>
        <time>2019-10-12T11:55:08Z</time>
      </trkpt>
      <trkpt lat="47.32943" lon="2.83361">
        <ele>243.19999694824</ele>
        <time>2019-10-12T11:55:13Z</time>
      </trkpt>
      <trkpt lat="47.32942" lon="2.83361">
        <ele>243.19999694824</ele>
        <time>2019-10-12T11:55:18Z</time>
      </trkpt>
      <trkpt lat="47.32942" lon="2.8336">
        <ele>243.19999694824</ele>
        <time>2019-10-12T11:55:23Z</time>
      </trkpt>
      <trkpt lat="47.32941" lon="2.83359">
        <ele>243.19999694824</ele>
        <time>2019-10-12T11:55:28Z</time>
      </trkpt>
      <trkpt lat="47.3294" lon="2.83358">
        <ele>243.19999694824</ele>
        <time>2019-10-12T11:55:33Z</time>
      </trkpt>
      <trkpt lat="47.3294" lon="2.83357">
        <ele>243.19999694824</ele>
        <time>2019-10-12T11:55:38Z</time>
      </trkpt>
      <trkpt lat="47.32941" lon="2.83359">
        <ele>243.19999694824</ele>
        <time>2019-10-12T11:55:43Z</time>
      </trkpt>
      <trkpt lat="47.32943" lon="2.83358">
        <ele>243.19999694824</ele>
        <time>2019-10-12T11:55:48Z</time>
      </trkpt>
      <trkpt lat="47.32946" lon="2.83354">
        <ele>243.19999694824</ele>
        <time>2019-10-12T11:55:53Z</time>
      </trkpt>
      <trkpt lat="47.32948" lon="2.83347">
        <ele>243.19999694824</ele>
        <time>2019-10-12T11:55:58Z</time>
      </trkpt>
      <trkpt lat="47.3295" lon="2.83344">
        <ele>240.19999694824</ele>
        <time>2019-10-12T11:56:03Z</time>
      </trkpt>
      <trkpt lat="47.32952" lon="2.83341">
        <ele>240.19999694824</ele>
        <time>2019-10-12T11:56:08Z</time>
      </trkpt>
      <trkpt lat="47.32957" lon="2.83339">
        <ele>239.80000305176</ele>
        <time>2019-10-12T11:56:13Z</time>
      </trkpt>
      <trkpt lat="47.32963" lon="2.83337">
        <ele>239</ele>
        <time>2019-10-12T11:56:18Z</time>
      </trkpt>
      <trkpt lat="47.32967" lon="2.83339">
        <ele>238.39999389648</ele>
        <time>2019-10-12T11:56:23Z</time>
      </trkpt>
      <trkpt lat="47.32969" lon="2.83341">
        <ele>238</ele>
        <time>2019-10-12T11:56:28Z</time>
      </trkpt>
      <trkpt lat="47.32969" lon="2.83341">
        <ele>237.80000305176</ele>
        <time>2019-10-12T11:56:33Z</time>
      </trkpt>
      <trkpt lat="47.32972" lon="2.83339">
        <ele>237.80000305176</ele>
        <time>2019-10-12T11:56:38Z</time>
      </trkpt>
      <trkpt lat="47.32973" lon="2.83333">
        <ele>237.60000610352</ele>
        <time>2019-10-12T11:56:43Z</time>
      </trkpt>
      <trkpt lat="47.32974" lon="2.8333">
        <ele>237.60000610352</ele>
        <time>2019-10-12T11:56:48Z</time>
      </trkpt>
      <trkpt lat="47.32975" lon="2.83329">
        <ele>237.60000610352</ele>
        <time>2019-10-12T11:56:53Z</time>
      </trkpt>
      <trkpt lat="47.32974" lon="2.8333">
        <ele>237.60000610352</ele>
        <time>2019-10-12T11:56:58Z</time>
      </trkpt>
      <trkpt lat="47.32973" lon="2.8333">
        <ele>237.60000610352</ele>
        <time>2019-10-12T11:57:03Z</time>
      </trkpt>
      <trkpt lat="47.32973" lon="2.8333">
        <ele>237.39999389648</ele>
        <time>2019-10-12T11:57:08Z</time>
      </trkpt>
      <trkpt lat="47.32973" lon="2.8333">
        <ele>237.39999389648</ele>
        <time>2019-10-12T11:57:13Z</time>
      </trkpt>
      <trkpt lat="47.32974" lon="2.8333">
        <ele>237.39999389648</ele>
        <time>2019-10-12T11:57:18Z</time>
      </trkpt>
      <trkpt lat="47.32974" lon="2.8333">
        <ele>237.60000610352</ele>
        <time>2019-10-12T11:57:23Z</time>
      </trkpt>
      <trkpt lat="47.32971" lon="2.83329">
        <ele>237.60000610352</ele>
        <time>2019-10-12T11:57:28Z</time>
      </trkpt>
      <trkpt lat="47.32966" lon="2.8333">
        <ele>238.19999694824</ele>
        <time>2019-10-12T11:57:33Z</time>
      </trkpt>
      <trkpt lat="47.3296" lon="2.8333">
        <ele>238.80000305176</ele>
        <time>2019-10-12T11:57:38Z</time>
      </trkpt>
      <trkpt lat="47.32957" lon="2.83323">
        <ele>239.39999389648</ele>
        <time>2019-10-12T11:57:43Z</time>
      </trkpt>
      <trkpt lat="47.32957" lon="2.83318">
        <ele>239.19999694824</ele>
        <time>2019-10-12T11:57:48Z</time>
      </trkpt>
      <trkpt lat="47.32959" lon="2.83313">
        <ele>237.60000610352</ele>
        <time>2019-10-12T11:57:53Z</time>
      </trkpt>
      <trkpt lat="47.3296" lon="2.83307">
        <ele>236.39999389648</ele>
        <time>2019-10-12T11:57:58Z</time>
      </trkpt>
      <trkpt lat="47.32958" lon="2.83301">
        <ele>235.19999694824</ele>
        <time>2019-10-12T11:58:03Z</time>
      </trkpt>
      <trkpt lat="47.3296" lon="2.83294">
        <ele>234.39999389648</ele>
        <time>2019-10-12T11:58:08Z</time>
      </trkpt>
      <trkpt lat="47.32961" lon="2.83288">
        <ele>233.39999389648</ele>
        <time>2019-10-12T11:58:13Z</time>
      </trkpt>
      <trkpt lat="47.32962" lon="2.83281">
        <ele>232.60000610352</ele>
        <time>2019-10-12T11:58:18Z</time>
      </trkpt>
      <trkpt lat="47.32964" lon="2.83273">
        <ele>231.80000305176</ele>
        <time>2019-10-12T11:58:23Z</time>
      </trkpt>
      <trkpt lat="47.32966" lon="2.83267">
        <ele>230.60000610352</ele>
        <time>2019-10-12T11:58:28Z</time>
      </trkpt>
      <trkpt lat="47.32967" lon="2.83259">
        <ele>229.39999389648</ele>
        <time>2019-10-12T11:58:33Z</time>
      </trkpt>
      <trkpt lat="47.32968" lon="2.83253">
        <ele>228.19999694824</ele>
        <time>2019-10-12T11:58:38Z</time>
      </trkpt>
      <trkpt lat="47.32969" lon="2.83248">
        <ele>226.80000305176</ele>
        <time>2019-10-12T11:58:43Z</time>
      </trkpt>
      <trkpt lat="47.32972" lon="2.83241">
        <ele>226</ele>
        <time>2019-10-12T11:58:48Z</time>
      </trkpt>
      <trkpt lat="47.32974" lon="2.83234">
        <ele>225.19999694824</ele>
        <time>2019-10-12T11:58:53Z</time>
      </trkpt>
      <trkpt lat="47.32975" lon="2.83226">
        <ele>224.19999694824</ele>
        <time>2019-10-12T11:58:58Z</time>
      </trkpt>
      <trkpt lat="47.32977" lon="2.8322">
        <ele>223.19999694824</ele>
        <time>2019-10-12T11:59:03Z</time>
      </trkpt>
      <trkpt lat="47.32979" lon="2.83213">
        <ele>222.60000610352</ele>
        <time>2019-10-12T11:59:08Z</time>
      </trkpt>
      <trkpt lat="47.32982" lon="2.83205">
        <ele>221.60000610352</ele>
        <time>2019-10-12T11:59:13Z</time>
      </trkpt>
      <trkpt lat="47.32987" lon="2.83198">
        <ele>220.80000305176</ele>
        <time>2019-10-12T11:59:18Z</time>
      </trkpt>
      <trkpt lat="47.3299" lon="2.83193">
        <ele>220</ele>
        <time>2019-10-12T11:59:23Z</time>
      </trkpt>
      <trkpt lat="47.32992" lon="2.83186">
        <ele>219</ele>
        <time>2019-10-12T11:59:28Z</time>
      </trkpt>
      <trkpt lat="47.32993" lon="2.83177">
        <ele>218.19999694824</ele>
        <time>2019-10-12T11:59:33Z</time>
      </trkpt>
      <trkpt lat="47.32995" lon="2.83171">
        <ele>217.39999389648</ele>
        <time>2019-10-12T11:59:38Z</time>
      </trkpt>
      <trkpt lat="47.32999" lon="2.83165">
        <ele>217</ele>
        <time>2019-10-12T11:59:43Z</time>
      </trkpt>
      <trkpt lat="47.33002" lon="2.8316">
        <ele>216.60000610352</ele>
        <time>2019-10-12T11:59:48Z</time>
      </trkpt>
      <trkpt lat="47.33005" lon="2.83154">
        <ele>216</ele>
        <time>2019-10-12T11:59:53Z</time>
      </trkpt>
      <trkpt lat="47.33008" lon="2.83149">
        <ele>215.19999694824</ele>
        <time>2019-10-12T11:59:58Z</time>
      </trkpt>
      <trkpt lat="47.33012" lon="2.83142">
        <ele>214.60000610352</ele>
        <time>2019-10-12T12:00:03Z</time>
      </trkpt>
      <trkpt lat="47.33016" lon="2.83136">
        <ele>213.80000305176</ele>
        <time>2019-10-12T12:00:08Z</time>
      </trkpt>
      <trkpt lat="47.3302" lon="2.83129">
        <ele>213.19999694824</ele>
        <time>2019-10-12T12:00:13Z</time>
      </trkpt>
      <trkpt lat="47.33024" lon="2.83122">
        <ele>212.39999389648</ele>
        <time>2019-10-12T12:00:18Z</time>
      </trkpt>
      <trkpt lat="47.33026" lon="2.83116">
        <ele>211.60000610352</ele>
        <time>2019-10-12T12:00:23Z</time>
      </trkpt>
      <trkpt lat="47.3303" lon="2.83109">
        <ele>210.60000610352</ele>
        <time>2019-10-12T12:00:28Z</time>
      </trkpt>
      <trkpt lat="47.33032" lon="2.83102">
        <ele>209.80000305176</ele>
        <time>2019-10-12T12:00:33Z</time>
      </trkpt>
      <trkpt lat="47.33034" lon="2.83095">
        <ele>209</ele>
        <time>2019-10-12T12:00:38Z</time>
      </trkpt>
      <trkpt lat="47.33036" lon="2.8309">
        <ele>208.39999389648</ele>
        <time>2019-10-12T12:00:43Z</time>
      </trkpt>
      <trkpt lat="47.33038" lon="2.83085">
        <ele>207.60000610352</ele>
        <time>2019-10-12T12:00:48Z</time>
      </trkpt>
      <trkpt lat="47.33041" lon="2.83081">
        <ele>207.19999694824</ele>
        <time>2019-10-12T12:00:53Z</time>
      </trkpt>
      <trkpt lat="47.33045" lon="2.83075">
        <ele>206.60000610352</ele>
        <time>2019-10-12T12:00:58Z</time>
      </trkpt>
      <trkpt lat="47.33049" lon="2.83069">
        <ele>206</ele>
        <time>2019-10-12T12:01:03Z</time>
      </trkpt>
      <trkpt lat="47.33052" lon="2.83063">
        <ele>205.60000610352</ele>
        <time>2019-10-12T12:01:08Z</time>
      </trkpt>
      <trkpt lat="47.33054" lon="2.83054">
        <ele>205</ele>
        <time>2019-10-12T12:01:13Z</time>
      </trkpt>
      <trkpt lat="47.33055" lon="2.83043">
        <ele>204.60000610352</ele>
        <time>2019-10-12T12:01:18Z</time>
      </trkpt>
      <trkpt lat="47.33056" lon="2.83035">
        <ele>204</ele>
        <time>2019-10-12T12:01:23Z</time>
      </trkpt>
      <trkpt lat="47.33058" lon="2.83028">
        <ele>204</ele>
        <time>2019-10-12T12:01:28Z</time>
      </trkpt>
      <trkpt lat="47.33062" lon="2.83024">
        <ele>203.80000305176</ele>
        <time>2019-10-12T12:01:33Z</time>
      </trkpt>
      <trkpt lat="47.33067" lon="2.8302">
        <ele>203</ele>
        <time>2019-10-12T12:01:38Z</time>
      </trkpt>
      <trkpt lat="47.33071" lon="2.83016">
        <ele>202.39999389648</ele>
        <time>2019-10-12T12:01:43Z</time>
      </trkpt>
      <trkpt lat="47.33075" lon="2.83011">
        <ele>202</ele>
        <time>2019-10-12T12:01:48Z</time>
      </trkpt>
      <trkpt lat="47.33078" lon="2.83006">
        <ele>201.39999389648</ele>
        <time>2019-10-12T12:01:53Z</time>
      </trkpt>
      <trkpt lat="47.3308" lon="2.83003">
        <ele>200.80000305176</ele>
        <time>2019-10-12T12:01:58Z</time>
      </trkpt>
      <trkpt lat="47.33083" lon="2.82997">
        <ele>200.39999389648</ele>
        <time>2019-10-12T12:02:03Z</time>
      </trkpt>
      <trkpt lat="47.33084" lon="2.82994">
        <ele>199.39999389648</ele>
        <time>2019-10-12T12:02:08Z</time>
      </trkpt>
      <trkpt lat="47.33087" lon="2.8299">
        <ele>198.80000305176</ele>
        <time>2019-10-12T12:02:13Z</time>
      </trkpt>
      <trkpt lat="47.33088" lon="2.82984">
        <ele>198.19999694824</ele>
        <time>2019-10-12T12:02:18Z</time>
      </trkpt>
      <trkpt lat="47.33091" lon="2.82979">
        <ele>197.39999389648</ele>
        <time>2019-10-12T12:02:23Z</time>
      </trkpt>
      <trkpt lat="47.33093" lon="2.82973">
        <ele>196.80000305176</ele>
        <time>2019-10-12T12:02:28Z</time>
      </trkpt>
      <trkpt lat="47.33095" lon="2.82966">
        <ele>195.80000305176</ele>
        <time>2019-10-12T12:02:33Z</time>
      </trkpt>
      <trkpt lat="47.33098" lon="2.82959">
        <ele>195</ele>
        <time>2019-10-12T12:02:38Z</time>
      </trkpt>
      <trkpt lat="47.33101" lon="2.82953">
        <ele>194.19999694824</ele>
        <time>2019-10-12T12:02:43Z</time>
      </trkpt>
      <trkpt lat="47.33105" lon="2.82948">
        <ele>193.60000610352</ele>
        <time>2019-10-12T12:02:48Z</time>
      </trkpt>
      <trkpt lat="47.33108" lon="2.8294">
        <ele>193</ele>
        <time>2019-10-12T12:02:53Z</time>
      </trkpt>
      <trkpt lat="47.33111" lon="2.82935">
        <ele>192.39999389648</ele>
        <time>2019-10-12T12:02:58Z</time>
      </trkpt>
      <trkpt lat="47.33113" lon="2.82929">
        <ele>191.80000305176</ele>
        <time>2019-10-12T12:03:03Z</time>
      </trkpt>
      <trkpt lat="47.33115" lon="2.82921">
        <ele>191</ele>
        <time>2019-10-12T12:03:08Z</time>
      </trkpt>
      <trkpt lat="47.33118" lon="2.82914">
        <ele>190.39999389648</ele>
        <time>2019-10-12T12:03:13Z</time>
      </trkpt>
      <trkpt lat="47.3312" lon="2.82907">
        <ele>189.80000305176</ele>
        <time>2019-10-12T12:03:18Z</time>
      </trkpt>
      <trkpt lat="47.33121" lon="2.829">
        <ele>189</ele>
        <time>2019-10-12T12:03:23Z</time>
      </trkpt>
      <trkpt lat="47.33122" lon="2.82892">
        <ele>188.80000305176</ele>
        <time>2019-10-12T12:03:28Z</time>
      </trkpt>
      <trkpt lat="47.33122" lon="2.82885">
        <ele>188.39999389648</ele>
        <time>2019-10-12T12:03:33Z</time>
      </trkpt>
      <trkpt lat="47.33122" lon="2.82877">
        <ele>188</ele>
        <time>2019-10-12T12:03:38Z</time>
      </trkpt>
      <trkpt lat="47.33123" lon="2.82869">
        <ele>187.60000610352</ele>
        <time>2019-10-12T12:03:43Z</time>
      </trkpt>
      <trkpt lat="47.33124" lon="2.82862">
        <ele>187.19999694824</ele>
        <time>2019-10-12T12:03:48Z</time>
      </trkpt>
      <trkpt lat="47.33126" lon="2.82852">
        <ele>186.60000610352</ele>
        <time>2019-10-12T12:03:53Z</time>
      </trkpt>
      <trkpt lat="47.33127" lon="2.82843">
        <ele>186.19999694824</ele>
        <time>2019-10-12T12:03:58Z</time>
      </trkpt>
      <trkpt lat="47.33128" lon="2.82834">
        <ele>185.80000305176</ele>
        <time>2019-10-12T12:04:03Z</time>
      </trkpt>
      <trkpt lat="47.33129" lon="2.82825">
        <ele>185.19999694824</ele>
        <time>2019-10-12T12:04:08Z</time>
      </trkpt>
      <trkpt lat="47.33128" lon="2.82816">
        <ele>185</ele>
        <time>2019-10-12T12:04:13Z</time>
      </trkpt>
      <trkpt lat="47.33127" lon="2.82807">
        <ele>184.60000610352</ele>
        <time>2019-10-12T12:04:18Z</time>
      </trkpt>
      <trkpt lat="47.33126" lon="2.82799">
        <ele>184.19999694824</ele>
        <time>2019-10-12T12:04:23Z</time>
      </trkpt>
      <trkpt lat="47.33125" lon="2.82792">
        <ele>183.80000305176</ele>
        <time>2019-10-12T12:04:28Z</time>
      </trkpt>
      <trkpt lat="47.33123" lon="2.82784">
        <ele>184</ele>
        <time>2019-10-12T12:04:33Z</time>
      </trkpt>
      <trkpt lat="47.33122" lon="2.82777">
        <ele>184</ele>
        <time>2019-10-12T12:04:38Z</time>
      </trkpt>
      <trkpt lat="47.3312" lon="2.8277">
        <ele>183.80000305176</ele>
        <time>2019-10-12T12:04:43Z</time>
      </trkpt>
      <trkpt lat="47.33118" lon="2.82763">
        <ele>184.19999694824</ele>
        <time>2019-10-12T12:04:48Z</time>
      </trkpt>
      <trkpt lat="47.33116" lon="2.82755">
        <ele>184</ele>
        <time>2019-10-12T12:04:53Z</time>
      </trkpt>
      <trkpt lat="47.33114" lon="2.82747">
        <ele>184</ele>
        <time>2019-10-12T12:04:58Z</time>
      </trkpt>
      <trkpt lat="47.33113" lon="2.82739">
        <ele>184.19999694824</ele>
        <time>2019-10-12T12:05:03Z</time>
      </trkpt>
      <trkpt lat="47.33111" lon="2.82731">
        <ele>184.39999389648</ele>
        <time>2019-10-12T12:05:08Z</time>
      </trkpt>
      <trkpt lat="47.3311" lon="2.82724">
        <ele>184.39999389648</ele>
        <time>2019-10-12T12:05:13Z</time>
      </trkpt>
      <trkpt lat="47.33108" lon="2.82715">
        <ele>184.19999694824</ele>
        <time>2019-10-12T12:05:18Z</time>
      </trkpt>
      <trkpt lat="47.33106" lon="2.82707">
        <ele>184.19999694824</ele>
        <time>2019-10-12T12:05:23Z</time>
      </trkpt>
      <trkpt lat="47.33104" lon="2.82701">
        <ele>184.39999389648</ele>
        <time>2019-10-12T12:05:28Z</time>
      </trkpt>
      <trkpt lat="47.33102" lon="2.82693">
        <ele>184.60000610352</ele>
        <time>2019-10-12T12:05:33Z</time>
      </trkpt>
      <trkpt lat="47.331" lon="2.82686">
        <ele>184.80000305176</ele>
        <time>2019-10-12T12:05:38Z</time>
      </trkpt>
      <trkpt lat="47.33098" lon="2.82679">
        <ele>184.80000305176</ele>
        <time>2019-10-12T12:05:43Z</time>
      </trkpt>
      <trkpt lat="47.33096" lon="2.82674">
        <ele>184.80000305176</ele>
        <time>2019-10-12T12:05:48Z</time>
      </trkpt>
      <trkpt lat="47.33095" lon="2.82671">
        <ele>185</ele>
        <time>2019-10-12T12:05:53Z</time>
      </trkpt>
      <trkpt lat="47.33094" lon="2.82662">
        <ele>185.19999694824</ele>
        <time>2019-10-12T12:05:58Z</time>
      </trkpt>
      <trkpt lat="47.33091" lon="2.82654">
        <ele>185.19999694824</ele>
        <time>2019-10-12T12:06:03Z</time>
      </trkpt>
      <trkpt lat="47.33089" lon="2.82647">
        <ele>185.19999694824</ele>
        <time>2019-10-12T12:06:08Z</time>
      </trkpt>
      <trkpt lat="47.33087" lon="2.82641">
        <ele>185.19999694824</ele>
        <time>2019-10-12T12:06:13Z</time>
      </trkpt>
      <trkpt lat="47.33085" lon="2.82634">
        <ele>185</ele>
        <time>2019-10-12T12:06:18Z</time>
      </trkpt>
      <trkpt lat="47.33082" lon="2.82627">
        <ele>185</ele>
        <time>2019-10-12T12:06:23Z</time>
      </trkpt>
      <trkpt lat="47.3308" lon="2.8262">
        <ele>185</ele>
        <time>2019-10-12T12:06:28Z</time>
      </trkpt>
      <trkpt lat="47.33077" lon="2.82613">
        <ele>185.19999694824</ele>
        <time>2019-10-12T12:06:33Z</time>
      </trkpt>
      <trkpt lat="47.33075" lon="2.82606">
        <ele>185.39999389648</ele>
        <time>2019-10-12T12:06:38Z</time>
      </trkpt>
      <trkpt lat="47.33071" lon="2.826">
        <ele>185.39999389648</ele>
        <time>2019-10-12T12:06:43Z</time>
      </trkpt>
      <trkpt lat="47.33069" lon="2.82592">
        <ele>185.39999389648</ele>
        <time>2019-10-12T12:06:48Z</time>
      </trkpt>
      <trkpt lat="47.33066" lon="2.82583">
        <ele>185.60000610352</ele>
        <time>2019-10-12T12:06:53Z</time>
      </trkpt>
      <trkpt lat="47.33064" lon="2.82576">
        <ele>185.60000610352</ele>
        <time>2019-10-12T12:06:58Z</time>
      </trkpt>
      <trkpt lat="47.33061" lon="2.82569">
        <ele>185.60000610352</ele>
        <time>2019-10-12T12:07:03Z</time>
      </trkpt>
      <trkpt lat="47.33058" lon="2.82562">
        <ele>185.80000305176</ele>
        <time>2019-10-12T12:07:08Z</time>
      </trkpt>
      <trkpt lat="47.33055" lon="2.82555">
        <ele>185.80000305176</ele>
        <time>2019-10-12T12:07:13Z</time>
      </trkpt>
      <trkpt lat="47.33053" lon="2.82548">
        <ele>185.80000305176</ele>
        <time>2019-10-12T12:07:18Z</time>
      </trkpt>
      <trkpt lat="47.3305" lon="2.8254">
        <ele>185.80000305176</ele>
        <time>2019-10-12T12:07:23Z</time>
      </trkpt>
      <trkpt lat="47.33047" lon="2.82533">
        <ele>186.19999694824</ele>
        <time>2019-10-12T12:07:28Z</time>
      </trkpt>
      <trkpt lat="47.33044" lon="2.82526">
        <ele>186.39999389648</ele>
        <time>2019-10-12T12:07:33Z</time>
      </trkpt>
      <trkpt lat="47.33041" lon="2.82519">
        <ele>186.39999389648</ele>
        <time>2019-10-12T12:07:38Z</time>
      </trkpt>
      <trkpt lat="47.33039" lon="2.82512">
        <ele>186.60000610352</ele>
        <time>2019-10-12T12:07:43Z</time>
      </trkpt>
      <trkpt lat="47.33036" lon="2.82505">
        <ele>186.60000610352</ele>
        <time>2019-10-12T12:07:48Z</time>
      </trkpt>
      <trkpt lat="47.33033" lon="2.82498">
        <ele>186.80000305176</ele>
        <time>2019-10-12T12:07:53Z</time>
      </trkpt>
      <trkpt lat="47.33029" lon="2.82491">
        <ele>186.80000305176</ele>
        <time>2019-10-12T12:07:58Z</time>
      </trkpt>
      <trkpt lat="47.33027" lon="2.82483">
        <ele>187</ele>
        <time>2019-10-12T12:08:03Z</time>
      </trkpt>
      <trkpt lat="47.33025" lon="2.82477">
        <ele>187</ele>
        <time>2019-10-12T12:08:08Z</time>
      </trkpt>
      <trkpt lat="47.33023" lon="2.82469">
        <ele>187.19999694824</ele>
        <time>2019-10-12T12:08:13Z</time>
      </trkpt>
      <trkpt lat="47.3302" lon="2.8246">
        <ele>187.19999694824</ele>
        <time>2019-10-12T12:08:18Z</time>
      </trkpt>
      <trkpt lat="47.33017" lon="2.82453">
        <ele>187.39999389648</ele>
        <time>2019-10-12T12:08:23Z</time>
      </trkpt>
      <trkpt lat="47.33015" lon="2.82445">
        <ele>187.39999389648</ele>
        <time>2019-10-12T12:08:28Z</time>
      </trkpt>
      <trkpt lat="47.33012" lon="2.82437">
        <ele>187.19999694824</ele>
        <time>2019-10-12T12:08:33Z</time>
      </trkpt>
      <trkpt lat="47.3301" lon="2.8243">
        <ele>187.19999694824</ele>
        <time>2019-10-12T12:08:38Z</time>
      </trkpt>
      <trkpt lat="47.33008" lon="2.82423">
        <ele>187.19999694824</ele>
        <time>2019-10-12T12:08:43Z</time>
      </trkpt>
      <trkpt lat="47.33007" lon="2.82414">
        <ele>187.39999389648</ele>
        <time>2019-10-12T12:08:48Z</time>
      </trkpt>
      <trkpt lat="47.33005" lon="2.82408">
        <ele>187.39999389648</ele>
        <time>2019-10-12T12:08:53Z</time>
      </trkpt>
      <trkpt lat="47.33004" lon="2.82401">
        <ele>187.80000305176</ele>
        <time>2019-10-12T12:08:58Z</time>
      </trkpt>
      <trkpt lat="47.33002" lon="2.82393">
        <ele>187.80000305176</ele>
        <time>2019-10-12T12:09:03Z</time>
      </trkpt>
      <trkpt lat="47.33" lon="2.82385">
        <ele>187.60000610352</ele>
        <time>2019-10-12T12:09:08Z</time>
      </trkpt>
      <trkpt lat="47.32997" lon="2.82378">
        <ele>187.60000610352</ele>
        <time>2019-10-12T12:09:13Z</time>
      </trkpt>
      <trkpt lat="47.32996" lon="2.82371">
        <ele>187.60000610352</ele>
        <time>2019-10-12T12:09:18Z</time>
      </trkpt>
      <trkpt lat="47.32994" lon="2.82363">
        <ele>187.60000610352</ele>
        <time>2019-10-12T12:09:23Z</time>
      </trkpt>
      <trkpt lat="47.32991" lon="2.82355">
        <ele>187.80000305176</ele>
        <time>2019-10-12T12:09:28Z</time>
      </trkpt>
      <trkpt lat="47.32989" lon="2.82348">
        <ele>187.80000305176</ele>
        <time>2019-10-12T12:09:33Z</time>
      </trkpt>
      <trkpt lat="47.32986" lon="2.82341">
        <ele>187.80000305176</ele>
        <time>2019-10-12T12:09:38Z</time>
      </trkpt>
      <trkpt lat="47.32983" lon="2.82333">
        <ele>188</ele>
        <time>2019-10-12T12:09:43Z</time>
      </trkpt>
      <trkpt lat="47.32982" lon="2.82325">
        <ele>188</ele>
        <time>2019-10-12T12:09:48Z</time>
      </trkpt>
      <trkpt lat="47.3298" lon="2.82317">
        <ele>188</ele>
        <time>2019-10-12T12:09:53Z</time>
      </trkpt>
      <trkpt lat="47.32978" lon="2.82309">
        <ele>188</ele>
        <time>2019-10-12T12:09:58Z</time>
      </trkpt>
      <trkpt lat="47.32976" lon="2.82302">
        <ele>188.19999694824</ele>
        <time>2019-10-12T12:10:03Z</time>
      </trkpt>
      <trkpt lat="47.32973" lon="2.82294">
        <ele>188.39999389648</ele>
        <time>2019-10-12T12:10:08Z</time>
      </trkpt>
      <trkpt lat="47.3297" lon="2.82287">
        <ele>188.39999389648</ele>
        <time>2019-10-12T12:10:13Z</time>
      </trkpt>
      <trkpt lat="47.32968" lon="2.8228">
        <ele>188.60000610352</ele>
        <time>2019-10-12T12:10:18Z</time>
      </trkpt>
      <trkpt lat="47.32966" lon="2.82272">
        <ele>189</ele>
        <time>2019-10-12T12:10:23Z</time>
      </trkpt>
      <trkpt lat="47.32963" lon="2.82265">
        <ele>189.19999694824</ele>
        <time>2019-10-12T12:10:28Z</time>
      </trkpt>
      <trkpt lat="47.32961" lon="2.82258">
        <ele>189.39999389648</ele>
        <time>2019-10-12T12:10:33Z</time>
      </trkpt>
      <trkpt lat="47.32958" lon="2.82251">
        <ele>189.80000305176</ele>
        <time>2019-10-12T12:10:38Z</time>
      </trkpt>
      <trkpt lat="47.32955" lon="2.82244">
        <ele>189.80000305176</ele>
        <time>2019-10-12T12:10:43Z</time>
      </trkpt>
      <trkpt lat="47.32953" lon="2.82237">
        <ele>189.80000305176</ele>
        <time>2019-10-12T12:10:48Z</time>
      </trkpt>
      <trkpt lat="47.32951" lon="2.82229">
        <ele>190</ele>
        <time>2019-10-12T12:10:53Z</time>
      </trkpt>
      <trkpt lat="47.32949" lon="2.82222">
        <ele>190</ele>
        <time>2019-10-12T12:10:58Z</time>
      </trkpt>
      <trkpt lat="47.32947" lon="2.82214">
        <ele>190.19999694824</ele>
        <time>2019-10-12T12:11:03Z</time>
      </trkpt>
      <trkpt lat="47.32945" lon="2.82206">
        <ele>190.19999694824</ele>
        <time>2019-10-12T12:11:08Z</time>
      </trkpt>
      <trkpt lat="47.32943" lon="2.82198">
        <ele>190.39999389648</ele>
        <time>2019-10-12T12:11:13Z</time>
      </trkpt>
      <trkpt lat="47.32941" lon="2.8219">
        <ele>190.60000610352</ele>
        <time>2019-10-12T12:11:18Z</time>
      </trkpt>
      <trkpt lat="47.32939" lon="2.82182">
        <ele>190.60000610352</ele>
        <time>2019-10-12T12:11:23Z</time>
      </trkpt>
      <trkpt lat="47.32936" lon="2.82174">
        <ele>190.80000305176</ele>
        <time>2019-10-12T12:11:28Z</time>
      </trkpt>
      <trkpt lat="47.32934" lon="2.82168">
        <ele>191</ele>
        <time>2019-10-12T12:11:33Z</time>
      </trkpt>
      <trkpt lat="47.32931" lon="2.8216">
        <ele>191.19999694824</ele>
        <time>2019-10-12T12:11:38Z</time>
      </trkpt>
      <trkpt lat="47.32929" lon="2.82153">
        <ele>191.60000610352</ele>
        <time>2019-10-12T12:11:43Z</time>
      </trkpt>
      <trkpt lat="47.32926" lon="2.82147">
        <ele>191.80000305176</ele>
        <time>2019-10-12T12:11:48Z</time>
      </trkpt>
      <trkpt lat="47.32923" lon="2.82139">
        <ele>192</ele>
        <time>2019-10-12T12:11:53Z</time>
      </trkpt>
      <trkpt lat="47.32921" lon="2.82133">
        <ele>192</ele>
        <time>2019-10-12T12:11:58Z</time>
      </trkpt>
      <trkpt lat="47.32919" lon="2.82126">
        <ele>192.39999389648</ele>
        <time>2019-10-12T12:12:03Z</time>
      </trkpt>
      <trkpt lat="47.32917" lon="2.82119">
        <ele>192.60000610352</ele>
        <time>2019-10-12T12:12:08Z</time>
      </trkpt>
      <trkpt lat="47.32915" lon="2.82112">
        <ele>192.80000305176</ele>
        <time>2019-10-12T12:12:13Z</time>
      </trkpt>
      <trkpt lat="47.32913" lon="2.82106">
        <ele>193.19999694824</ele>
        <time>2019-10-12T12:12:18Z</time>
      </trkpt>
      <trkpt lat="47.32911" lon="2.82098">
        <ele>193.60000610352</ele>
        <time>2019-10-12T12:12:23Z</time>
      </trkpt>
      <trkpt lat="47.32908" lon="2.82091">
        <ele>193.80000305176</ele>
        <time>2019-10-12T12:12:28Z</time>
      </trkpt>
      <trkpt lat="47.32905" lon="2.82083">
        <ele>193.80000305176</ele>
        <time>2019-10-12T12:12:33Z</time>
      </trkpt>
      <trkpt lat="47.32903" lon="2.82076">
        <ele>194</ele>
        <time>2019-10-12T12:12:38Z</time>
      </trkpt>
      <trkpt lat="47.32901" lon="2.8207">
        <ele>194.19999694824</ele>
        <time>2019-10-12T12:12:43Z</time>
      </trkpt>
      <trkpt lat="47.32898" lon="2.82063">
        <ele>194.19999694824</ele>
        <time>2019-10-12T12:12:48Z</time>
      </trkpt>
      <trkpt lat="47.32896" lon="2.82055">
        <ele>194.39999389648</ele>
        <time>2019-10-12T12:12:53Z</time>
      </trkpt>
      <trkpt lat="47.32894" lon="2.82048">
        <ele>194.39999389648</ele>
        <time>2019-10-12T12:12:58Z</time>
      </trkpt>
      <trkpt lat="47.32891" lon="2.82042">
        <ele>194.39999389648</ele>
        <time>2019-10-12T12:13:03Z</time>
      </trkpt>
      <trkpt lat="47.32888" lon="2.82035">
        <ele>194</ele>
        <time>2019-10-12T12:13:08Z</time>
      </trkpt>
      <trkpt lat="47.32886" lon="2.82029">
        <ele>194</ele>
        <time>2019-10-12T12:13:13Z</time>
      </trkpt>
      <trkpt lat="47.32883" lon="2.82022">
        <ele>194</ele>
        <time>2019-10-12T12:13:18Z</time>
      </trkpt>
      <trkpt lat="47.3288" lon="2.82015">
        <ele>194.19999694824</ele>
        <time>2019-10-12T12:13:23Z</time>
      </trkpt>
      <trkpt lat="47.32878" lon="2.82009">
        <ele>194.39999389648</ele>
        <time>2019-10-12T12:13:28Z</time>
      </trkpt>
      <trkpt lat="47.32875" lon="2.82003">
        <ele>195</ele>
        <time>2019-10-12T12:13:33Z</time>
      </trkpt>
      <trkpt lat="47.32873" lon="2.81996">
        <ele>195.19999694824</ele>
        <time>2019-10-12T12:13:38Z</time>
      </trkpt>
      <trkpt lat="47.3287" lon="2.8199">
        <ele>195.19999694824</ele>
        <time>2019-10-12T12:13:43Z</time>
      </trkpt>
      <trkpt lat="47.32867" lon="2.81983">
        <ele>195.19999694824</ele>
        <time>2019-10-12T12:13:48Z</time>
      </trkpt>
      <trkpt lat="47.32865" lon="2.81976">
        <ele>195.19999694824</ele>
        <time>2019-10-12T12:13:53Z</time>
      </trkpt>
      <trkpt lat="47.32862" lon="2.81968">
        <ele>195.19999694824</ele>
        <time>2019-10-12T12:13:58Z</time>
      </trkpt>
      <trkpt lat="47.3286" lon="2.81962">
        <ele>195.39999389648</ele>
        <time>2019-10-12T12:14:03Z</time>
      </trkpt>
      <trkpt lat="47.32858" lon="2.81955">
        <ele>195.39999389648</ele>
        <time>2019-10-12T12:14:08Z</time>
      </trkpt>
      <trkpt lat="47.32855" lon="2.81949">
        <ele>195.60000610352</ele>
        <time>2019-10-12T12:14:13Z</time>
      </trkpt>
      <trkpt lat="47.32853" lon="2.81942">
        <ele>195.60000610352</ele>
        <time>2019-10-12T12:14:18Z</time>
      </trkpt>
      <trkpt lat="47.3285" lon="2.81935">
        <ele>195.80000305176</ele>
        <time>2019-10-12T12:14:23Z</time>
      </trkpt>
      <trkpt lat="47.32847" lon="2.81929">
        <ele>196</ele>
        <time>2019-10-12T12:14:28Z</time>
      </trkpt>
      <trkpt lat="47.32845" lon="2.81921">
        <ele>196</ele>
        <time>2019-10-12T12:14:33Z</time>
      </trkpt>
      <trkpt lat="47.32842" lon="2.81915">
        <ele>196</ele>
        <time>2019-10-12T12:14:38Z</time>
      </trkpt>
      <trkpt lat="47.32839" lon="2.81908">
        <ele>196.19999694824</ele>
        <time>2019-10-12T12:14:43Z</time>
      </trkpt>
      <trkpt lat="47.32836" lon="2.81902">
        <ele>196.39999389648</ele>
        <time>2019-10-12T12:14:48Z</time>
      </trkpt>
      <trkpt lat="47.32832" lon="2.81894">
        <ele>196.80000305176</ele>
        <time>2019-10-12T12:14:53Z</time>
      </trkpt>
      <trkpt lat="47.3283" lon="2.81887">
        <ele>197.39999389648</ele>
        <time>2019-10-12T12:14:58Z</time>
      </trkpt>
      <trkpt lat="47.32827" lon="2.8188">
        <ele>198</ele>
        <time>2019-10-12T12:15:03Z</time>
      </trkpt>
      <trkpt lat="47.32825" lon="2.81873">
        <ele>198</ele>
        <time>2019-10-12T12:15:08Z</time>
      </trkpt>
      <trkpt lat="47.32822" lon="2.81867">
        <ele>198</ele>
        <time>2019-10-12T12:15:13Z</time>
      </trkpt>
      <trkpt lat="47.3282" lon="2.81861">
        <ele>198</ele>
        <time>2019-10-12T12:15:18Z</time>
      </trkpt>
      <trkpt lat="47.32817" lon="2.81855">
        <ele>198</ele>
        <time>2019-10-12T12:15:23Z</time>
      </trkpt>
      <trkpt lat="47.32815" lon="2.81848">
        <ele>198.19999694824</ele>
        <time>2019-10-12T12:15:28Z</time>
      </trkpt>
      <trkpt lat="47.32812" lon="2.81841">
        <ele>198.39999389648</ele>
        <time>2019-10-12T12:15:33Z</time>
      </trkpt>
      <trkpt lat="47.32809" lon="2.81834">
        <ele>198.60000610352</ele>
        <time>2019-10-12T12:15:38Z</time>
      </trkpt>
      <trkpt lat="47.32806" lon="2.81828">
        <ele>198.80000305176</ele>
        <time>2019-10-12T12:15:43Z</time>
      </trkpt>
      <trkpt lat="47.32803" lon="2.81821">
        <ele>199</ele>
        <time>2019-10-12T12:15:48Z</time>
      </trkpt>
      <trkpt lat="47.32801" lon="2.81815">
        <ele>199.19999694824</ele>
        <time>2019-10-12T12:15:53Z</time>
      </trkpt>
      <trkpt lat="47.32799" lon="2.81809">
        <ele>199.39999389648</ele>
        <time>2019-10-12T12:15:58Z</time>
      </trkpt>
      <trkpt lat="47.32795" lon="2.81802">
        <ele>199.60000610352</ele>
        <time>2019-10-12T12:16:03Z</time>
      </trkpt>
      <trkpt lat="47.32792" lon="2.81796">
        <ele>199.80000305176</ele>
        <time>2019-10-12T12:16:08Z</time>
      </trkpt>
      <trkpt lat="47.32789" lon="2.81788">
        <ele>200</ele>
        <time>2019-10-12T12:16:13Z</time>
      </trkpt>
      <trkpt lat="47.32787" lon="2.81781">
        <ele>200.19999694824</ele>
        <time>2019-10-12T12:16:18Z</time>
      </trkpt>
      <trkpt lat="47.32784" lon="2.81774">
        <ele>200.60000610352</ele>
        <time>2019-10-12T12:16:23Z</time>
      </trkpt>
      <trkpt lat="47.32781" lon="2.81767">
        <ele>201</ele>
        <time>2019-10-12T12:16:28Z</time>
      </trkpt>
      <trkpt lat="47.32779" lon="2.81763">
        <ele>201.19999694824</ele>
        <time>2019-10-12T12:16:33Z</time>
      </trkpt>
      <trkpt lat="47.32776" lon="2.81757">
        <ele>201.19999694824</ele>
        <time>2019-10-12T12:16:38Z</time>
      </trkpt>
      <trkpt lat="47.32773" lon="2.81751">
        <ele>201.19999694824</ele>
        <time>2019-10-12T12:16:43Z</time>
      </trkpt>
      <trkpt lat="47.3277" lon="2.81744">
        <ele>201.19999694824</ele>
        <time>2019-10-12T12:16:48Z</time>
      </trkpt>
      <trkpt lat="47.32766" lon="2.81738">
        <ele>201.60000610352</ele>
        <time>2019-10-12T12:16:53Z</time>
      </trkpt>
      <trkpt lat="47.32762" lon="2.81731">
        <ele>201.80000305176</ele>
        <time>2019-10-12T12:16:58Z</time>
      </trkpt>
      <trkpt lat="47.3276" lon="2.81724">
        <ele>202.39999389648</ele>
        <time>2019-10-12T12:17:03Z</time>
      </trkpt>
      <trkpt lat="47.32757" lon="2.81716">
        <ele>202.39999389648</ele>
        <time>2019-10-12T12:17:08Z</time>
      </trkpt>
      <trkpt lat="47.32754" lon="2.81709">
        <ele>202.80000305176</ele>
        <time>2019-10-12T12:17:13Z</time>
      </trkpt>
      <trkpt lat="47.3275" lon="2.81702">
        <ele>202.60000610352</ele>
        <time>2019-10-12T12:17:18Z</time>
      </trkpt>
      <trkpt lat="47.32748" lon="2.81695">
        <ele>203</ele>
        <time>2019-10-12T12:17:23Z</time>
      </trkpt>
      <trkpt lat="47.32745" lon="2.81688">
        <ele>203</ele>
        <time>2019-10-12T12:17:28Z</time>
      </trkpt>
      <trkpt lat="47.32743" lon="2.81681">
        <ele>203.39999389648</ele>
        <time>2019-10-12T12:17:33Z</time>
      </trkpt>
      <trkpt lat="47.3274" lon="2.81674">
        <ele>203.39999389648</ele>
        <time>2019-10-12T12:17:38Z</time>
      </trkpt>
      <trkpt lat="47.32738" lon="2.81667">
        <ele>203.60000610352</ele>
        <time>2019-10-12T12:17:43Z</time>
      </trkpt>
      <trkpt lat="47.32735" lon="2.8166">
        <ele>203.60000610352</ele>
        <time>2019-10-12T12:17:48Z</time>
      </trkpt>
      <trkpt lat="47.32731" lon="2.81653">
        <ele>203.39999389648</ele>
        <time>2019-10-12T12:17:53Z</time>
      </trkpt>
      <trkpt lat="47.32731" lon="2.81646">
        <ele>203.19999694824</ele>
        <time>2019-10-12T12:17:58Z</time>
      </trkpt>
      <trkpt lat="47.32728" lon="2.81638">
        <ele>203.19999694824</ele>
        <time>2019-10-12T12:18:03Z</time>
      </trkpt>
      <trkpt lat="47.32725" lon="2.81629">
        <ele>202.80000305176</ele>
        <time>2019-10-12T12:18:08Z</time>
      </trkpt>
      <trkpt lat="47.32721" lon="2.81623">
        <ele>202.80000305176</ele>
        <time>2019-10-12T12:18:13Z</time>
      </trkpt>
      <trkpt lat="47.32719" lon="2.81615">
        <ele>203</ele>
        <time>2019-10-12T12:18:18Z</time>
      </trkpt>
      <trkpt lat="47.32716" lon="2.81607">
        <ele>203.19999694824</ele>
        <time>2019-10-12T12:18:23Z</time>
      </trkpt>
      <trkpt lat="47.32713" lon="2.81601">
        <ele>203.19999694824</ele>
        <time>2019-10-12T12:18:28Z</time>
      </trkpt>
      <trkpt lat="47.3271" lon="2.81596">
        <ele>203.39999389648</ele>
        <time>2019-10-12T12:18:33Z</time>
      </trkpt>
      <trkpt lat="47.32706" lon="2.8159">
        <ele>203.39999389648</ele>
        <time>2019-10-12T12:18:38Z</time>
      </trkpt>
      <trkpt lat="47.32702" lon="2.81585">
        <ele>203.60000610352</ele>
        <time>2019-10-12T12:18:43Z</time>
      </trkpt>
      <trkpt lat="47.32698" lon="2.81578">
        <ele>203.80000305176</ele>
        <time>2019-10-12T12:18:48Z</time>
      </trkpt>
      <trkpt lat="47.32695" lon="2.81573">
        <ele>204</ele>
        <time>2019-10-12T12:18:53Z</time>
      </trkpt>
      <trkpt lat="47.32691" lon="2.81567">
        <ele>204</ele>
        <time>2019-10-12T12:18:58Z</time>
      </trkpt>
      <trkpt lat="47.32688" lon="2.81559">
        <ele>204.19999694824</ele>
        <time>2019-10-12T12:19:03Z</time>
      </trkpt>
      <trkpt lat="47.32684" lon="2.81552">
        <ele>204.19999694824</ele>
        <time>2019-10-12T12:19:08Z</time>
      </trkpt>
      <trkpt lat="47.3268" lon="2.81544">
        <ele>204.19999694824</ele>
        <time>2019-10-12T12:19:13Z</time>
      </trkpt>
      <trkpt lat="47.32674" lon="2.81539">
        <ele>204.19999694824</ele>
        <time>2019-10-12T12:19:18Z</time>
      </trkpt>
      <trkpt lat="47.3267" lon="2.81532">
        <ele>204.19999694824</ele>
        <time>2019-10-12T12:19:23Z</time>
      </trkpt>
      <trkpt lat="47.32666" lon="2.81527">
        <ele>204</ele>
        <time>2019-10-12T12:19:28Z</time>
      </trkpt>
      <trkpt lat="47.3266" lon="2.81523">
        <ele>204</ele>
        <time>2019-10-12T12:19:33Z</time>
      </trkpt>
      <trkpt lat="47.32655" lon="2.81518">
        <ele>204</ele>
        <time>2019-10-12T12:19:38Z</time>
      </trkpt>
      <trkpt lat="47.3265" lon="2.81515">
        <ele>204.19999694824</ele>
        <time>2019-10-12T12:19:43Z</time>
      </trkpt>
      <trkpt lat="47.32646" lon="2.81511">
        <ele>204.39999389648</ele>
        <time>2019-10-12T12:19:48Z</time>
      </trkpt>
      <trkpt lat="47.32642" lon="2.81508">
        <ele>204.39999389648</ele>
        <time>2019-10-12T12:19:53Z</time>
      </trkpt>
      <trkpt lat="47.32637" lon="2.81504">
        <ele>204.39999389648</ele>
        <time>2019-10-12T12:19:58Z</time>
      </trkpt>
      <trkpt lat="47.32632" lon="2.815">
        <ele>204.39999389648</ele>
        <time>2019-10-12T12:20:03Z</time>
      </trkpt>
      <trkpt lat="47.32627" lon="2.81497">
        <ele>204.39999389648</ele>
        <time>2019-10-12T12:20:08Z</time>
      </trkpt>
      <trkpt lat="47.32622" lon="2.81494">
        <ele>204.39999389648</ele>
        <time>2019-10-12T12:20:13Z</time>
      </trkpt>
      <trkpt lat="47.32618" lon="2.81491">
        <ele>204.39999389648</ele>
        <time>2019-10-12T12:20:18Z</time>
      </trkpt>
      <trkpt lat="47.32613" lon="2.81487">
        <ele>204.80000305176</ele>
        <time>2019-10-12T12:20:23Z</time>
      </trkpt>
      <trkpt lat="47.32608" lon="2.81483">
        <ele>205</ele>
        <time>2019-10-12T12:20:28Z</time>
      </trkpt>
      <trkpt lat="47.32603" lon="2.81481">
        <ele>205.39999389648</ele>
        <time>2019-10-12T12:20:33Z</time>
      </trkpt>
      <trkpt lat="47.32597" lon="2.81479">
        <ele>205.80000305176</ele>
        <time>2019-10-12T12:20:38Z</time>
      </trkpt>
      <trkpt lat="47.32593" lon="2.81478">
        <ele>206.19999694824</ele>
        <time>2019-10-12T12:20:43Z</time>
      </trkpt>
      <trkpt lat="47.32592" lon="2.81478">
        <ele>206.39999389648</ele>
        <time>2019-10-12T12:20:48Z</time>
      </trkpt>
      <trkpt lat="47.32592" lon="2.81478">
        <ele>206.80000305176</ele>
        <time>2019-10-12T12:20:53Z</time>
      </trkpt>
      <trkpt lat="47.32592" lon="2.81478">
        <ele>206.80000305176</ele>
        <time>2019-10-12T12:20:58Z</time>
      </trkpt>
      <trkpt lat="47.32592" lon="2.81478">
        <ele>206.80000305176</ele>
        <time>2019-10-12T12:21:03Z</time>
      </trkpt>
      <trkpt lat="47.32591" lon="2.81477">
        <ele>206.80000305176</ele>
        <time>2019-10-12T12:21:08Z</time>
      </trkpt>
      <trkpt lat="47.32592" lon="2.81476">
        <ele>206.80000305176</ele>
        <time>2019-10-12T12:21:13Z</time>
      </trkpt>
      <trkpt lat="47.32592" lon="2.81476">
        <ele>206.80000305176</ele>
        <time>2019-10-12T12:21:18Z</time>
      </trkpt>
      <trkpt lat="47.32592" lon="2.81476">
        <ele>207</ele>
        <time>2019-10-12T12:21:23Z</time>
      </trkpt>
      <trkpt lat="47.32592" lon="2.81476">
        <ele>207</ele>
        <time>2019-10-12T12:21:28Z</time>
      </trkpt>
      <trkpt lat="47.32593" lon="2.81476">
        <ele>207</ele>
        <time>2019-10-12T12:21:33Z</time>
      </trkpt>
      <trkpt lat="47.32593" lon="2.81476">
        <ele>207</ele>
        <time>2019-10-12T12:21:38Z</time>
      </trkpt>
      <trkpt lat="47.32593" lon="2.81476">
        <ele>206.80000305176</ele>
        <time>2019-10-12T12:21:43Z</time>
      </trkpt>
      <trkpt lat="47.32593" lon="2.81475">
        <ele>206.60000610352</ele>
        <time>2019-10-12T12:21:48Z</time>
      </trkpt>
      <trkpt lat="47.32593" lon="2.81475">
        <ele>206.60000610352</ele>
        <time>2019-10-12T12:21:53Z</time>
      </trkpt>
      <trkpt lat="47.32593" lon="2.81476">
        <ele>206.60000610352</ele>
        <time>2019-10-12T12:21:58Z</time>
      </trkpt>
      <trkpt lat="47.32593" lon="2.81477">
        <ele>206.60000610352</ele>
        <time>2019-10-12T12:22:03Z</time>
      </trkpt>
      <trkpt lat="47.32593" lon="2.81478">
        <ele>206.39999389648</ele>
        <time>2019-10-12T12:22:08Z</time>
      </trkpt>
      <trkpt lat="47.32592" lon="2.81479">
        <ele>206.60000610352</ele>
        <time>2019-10-12T12:22:13Z</time>
      </trkpt>
      <trkpt lat="47.32592" lon="2.81479">
        <ele>206.60000610352</ele>
        <time>2019-10-12T12:22:18Z</time>
      </trkpt>
      <trkpt lat="47.32592" lon="2.8148">
        <ele>206.60000610352</ele>
        <time>2019-10-12T12:22:23Z</time>
      </trkpt>
      <trkpt lat="47.32592" lon="2.81479">
        <ele>206.80000305176</ele>
        <time>2019-10-12T12:22:28Z</time>
      </trkpt>
      <trkpt lat="47.32592" lon="2.81478">
        <ele>206.60000610352</ele>
        <time>2019-10-12T12:22:33Z</time>
      </trkpt>
      <trkpt lat="47.32593" lon="2.81477">
        <ele>206.60000610352</ele>
        <time>2019-10-12T12:22:38Z</time>
      </trkpt>
      <trkpt lat="47.32593" lon="2.81477">
        <ele>206.60000610352</ele>
        <time>2019-10-12T12:22:43Z</time>
      </trkpt>
      <trkpt lat="47.32593" lon="2.81477">
        <ele>206.39999389648</ele>
        <time>2019-10-12T12:22:48Z</time>
      </trkpt>
      <trkpt lat="47.32593" lon="2.81478">
        <ele>206.39999389648</ele>
        <time>2019-10-12T12:22:53Z</time>
      </trkpt>
      <trkpt lat="47.32593" lon="2.81479">
        <ele>206.39999389648</ele>
        <time>2019-10-12T12:22:58Z</time>
      </trkpt>
      <trkpt lat="47.32593" lon="2.81479">
        <ele>206.39999389648</ele>
        <time>2019-10-12T12:23:03Z</time>
      </trkpt>
      <trkpt lat="47.32593" lon="2.81478">
        <ele>206.19999694824</ele>
        <time>2019-10-12T12:23:08Z</time>
      </trkpt>
      <trkpt lat="47.32593" lon="2.81477">
        <ele>206.39999389648</ele>
        <time>2019-10-12T12:23:13Z</time>
      </trkpt>
      <trkpt lat="47.32593" lon="2.81476">
        <ele>206.39999389648</ele>
        <time>2019-10-12T12:23:18Z</time>
      </trkpt>
      <trkpt lat="47.32593" lon="2.81475">
        <ele>206.39999389648</ele>
        <time>2019-10-12T12:23:23Z</time>
      </trkpt>
      <trkpt lat="47.32593" lon="2.81475">
        <ele>206.39999389648</ele>
        <time>2019-10-12T12:23:28Z</time>
      </trkpt>
      <trkpt lat="47.32593" lon="2.81477">
        <ele>206.19999694824</ele>
        <time>2019-10-12T12:23:33Z</time>
      </trkpt>
      <trkpt lat="47.32594" lon="2.81479">
        <ele>206.39999389648</ele>
        <time>2019-10-12T12:23:38Z</time>
      </trkpt>
      <trkpt lat="47.32594" lon="2.81479">
        <ele>206.19999694824</ele>
        <time>2019-10-12T12:23:43Z</time>
      </trkpt>
      <trkpt lat="47.32594" lon="2.81479">
        <ele>206</ele>
        <time>2019-10-12T12:23:48Z</time>
      </trkpt>
      <trkpt lat="47.32595" lon="2.81477">
        <ele>206</ele>
        <time>2019-10-12T12:23:53Z</time>
      </trkpt>
      <trkpt lat="47.32595" lon="2.81478">
        <ele>206</ele>
        <time>2019-10-12T12:23:58Z</time>
      </trkpt>
      <trkpt lat="47.32596" lon="2.81477">
        <ele>206</ele>
        <time>2019-10-12T12:24:03Z</time>
      </trkpt>
      <trkpt lat="47.32597" lon="2.81476">
        <ele>206</ele>
        <time>2019-10-12T12:24:08Z</time>
      </trkpt>
      <trkpt lat="47.32596" lon="2.81477">
        <ele>206</ele>
        <time>2019-10-12T12:24:13Z</time>
      </trkpt>
      <trkpt lat="47.32596" lon="2.81475">
        <ele>206</ele>
        <time>2019-10-12T12:24:18Z</time>
      </trkpt>
      <trkpt lat="47.32598" lon="2.81474">
        <ele>206</ele>
        <time>2019-10-12T12:24:23Z</time>
      </trkpt>
      <trkpt lat="47.32599" lon="2.81474">
        <ele>206</ele>
        <time>2019-10-12T12:24:28Z</time>
      </trkpt>
      <trkpt lat="47.32599" lon="2.81475">
        <ele>206</ele>
        <time>2019-10-12T12:24:33Z</time>
      </trkpt>
      <trkpt lat="47.32599" lon="2.81477">
        <ele>206</ele>
        <time>2019-10-12T12:24:38Z</time>
      </trkpt>
      <trkpt lat="47.32598" lon="2.81479">
        <ele>206</ele>
        <time>2019-10-12T12:24:43Z</time>
      </trkpt>
      <trkpt lat="47.32597" lon="2.8148">
        <ele>206</ele>
        <time>2019-10-12T12:24:48Z</time>
      </trkpt>
      <trkpt lat="47.32597" lon="2.8148">
        <ele>206</ele>
        <time>2019-10-12T12:24:53Z</time>
      </trkpt>
      <trkpt lat="47.32597" lon="2.81482">
        <ele>206</ele>
        <time>2019-10-12T12:24:58Z</time>
      </trkpt>
      <trkpt lat="47.32596" lon="2.81483">
        <ele>206</ele>
        <time>2019-10-12T12:25:03Z</time>
      </trkpt>
      <trkpt lat="47.32597" lon="2.81484">
        <ele>206</ele>
        <time>2019-10-12T12:25:08Z</time>
      </trkpt>
      <trkpt lat="47.32598" lon="2.81484">
        <ele>206</ele>
        <time>2019-10-12T12:25:13Z</time>
      </trkpt>
      <trkpt lat="47.326" lon="2.81483">
        <ele>206</ele>
        <time>2019-10-12T12:25:18Z</time>
      </trkpt>
      <trkpt lat="47.32601" lon="2.81482">
        <ele>206</ele>
        <time>2019-10-12T12:25:23Z</time>
      </trkpt>
      <trkpt lat="47.326" lon="2.8148">
        <ele>206</ele>
        <time>2019-10-12T12:25:28Z</time>
      </trkpt>
      <trkpt lat="47.32601" lon="2.8148">
        <ele>206</ele>
        <time>2019-10-12T12:25:33Z</time>
      </trkpt>
      <trkpt lat="47.326" lon="2.8148">
        <ele>206</ele>
        <time>2019-10-12T12:25:38Z</time>
      </trkpt>
      <trkpt lat="47.32598" lon="2.8148">
        <ele>206</ele>
        <time>2019-10-12T12:25:43Z</time>
      </trkpt>
      <trkpt lat="47.32597" lon="2.81479">
        <ele>206</ele>
        <time>2019-10-12T12:25:48Z</time>
      </trkpt>
      <trkpt lat="47.32597" lon="2.81478">
        <ele>206</ele>
        <time>2019-10-12T12:25:53Z</time>
      </trkpt>
      <trkpt lat="47.32597" lon="2.81478">
        <ele>206</ele>
        <time>2019-10-12T12:25:58Z</time>
      </trkpt>
      <trkpt lat="47.32596" lon="2.81476">
        <ele>206</ele>
        <time>2019-10-12T12:26:03Z</time>
      </trkpt>
      <trkpt lat="47.32595" lon="2.81476">
        <ele>206</ele>
        <time>2019-10-12T12:26:08Z</time>
      </trkpt>
      <trkpt lat="47.32595" lon="2.81477">
        <ele>206</ele>
        <time>2019-10-12T12:26:13Z</time>
      </trkpt>
      <trkpt lat="47.32595" lon="2.81476">
        <ele>206</ele>
        <time>2019-10-12T12:26:18Z</time>
      </trkpt>
      <trkpt lat="47.32596" lon="2.81474">
        <ele>206</ele>
        <time>2019-10-12T12:26:23Z</time>
      </trkpt>
      <trkpt lat="47.32595" lon="2.81474">
        <ele>206</ele>
        <time>2019-10-12T12:26:28Z</time>
      </trkpt>
      <trkpt lat="47.32594" lon="2.81477">
        <ele>206</ele>
        <time>2019-10-12T12:26:33Z</time>
      </trkpt>
      <trkpt lat="47.32592" lon="2.81476">
        <ele>206</ele>
        <time>2019-10-12T12:26:38Z</time>
      </trkpt>
      <trkpt lat="47.3259" lon="2.81475">
        <ele>206</ele>
        <time>2019-10-12T12:26:43Z</time>
      </trkpt>
      <trkpt lat="47.3259" lon="2.81474">
        <ele>206</ele>
        <time>2019-10-12T12:26:48Z</time>
      </trkpt>
      <trkpt lat="47.32588" lon="2.8147">
        <ele>206</ele>
        <time>2019-10-12T12:26:53Z</time>
      </trkpt>
      <trkpt lat="47.32584" lon="2.81463">
        <ele>206</ele>
        <time>2019-10-12T12:26:58Z</time>
      </trkpt>
      <trkpt lat="47.32582" lon="2.81457">
        <ele>206.39999389648</ele>
        <time>2019-10-12T12:27:03Z</time>
      </trkpt>
      <trkpt lat="47.3258" lon="2.81452">
        <ele>206.60000610352</ele>
        <time>2019-10-12T12:27:08Z</time>
      </trkpt>
      <trkpt lat="47.32579" lon="2.81447">
        <ele>206.60000610352</ele>
        <time>2019-10-12T12:27:13Z</time>
      </trkpt>
      <trkpt lat="47.32578" lon="2.81442">
        <ele>206.19999694824</ele>
        <time>2019-10-12T12:27:18Z</time>
      </trkpt>
      <trkpt lat="47.32576" lon="2.81434">
        <ele>206.19999694824</ele>
        <time>2019-10-12T12:27:23Z</time>
      </trkpt>
      <trkpt lat="47.32574" lon="2.81426">
        <ele>206.19999694824</ele>
        <time>2019-10-12T12:27:28Z</time>
      </trkpt>
      <trkpt lat="47.32573" lon="2.81418">
        <ele>206.39999389648</ele>
        <time>2019-10-12T12:27:33Z</time>
      </trkpt>
      <trkpt lat="47.32573" lon="2.81409">
        <ele>206.60000610352</ele>
        <time>2019-10-12T12:27:38Z</time>
      </trkpt>
      <trkpt lat="47.32572" lon="2.814">
        <ele>207</ele>
        <time>2019-10-12T12:27:43Z</time>
      </trkpt>
      <trkpt lat="47.32572" lon="2.81393">
        <ele>207.39999389648</ele>
        <time>2019-10-12T12:27:48Z</time>
      </trkpt>
      <trkpt lat="47.32572" lon="2.81384">
        <ele>207.39999389648</ele>
        <time>2019-10-12T12:27:53Z</time>
      </trkpt>
      <trkpt lat="47.32573" lon="2.81377">
        <ele>207.39999389648</ele>
        <time>2019-10-12T12:27:58Z</time>
      </trkpt>
      <trkpt lat="47.32574" lon="2.8137">
        <ele>207.60000610352</ele>
        <time>2019-10-12T12:28:03Z</time>
      </trkpt>
      <trkpt lat="47.32575" lon="2.81364">
        <ele>208</ele>
        <time>2019-10-12T12:28:08Z</time>
      </trkpt>
      <trkpt lat="47.32577" lon="2.81358">
        <ele>208.19999694824</ele>
        <time>2019-10-12T12:28:13Z</time>
      </trkpt>
      <trkpt lat="47.32579" lon="2.81352">
        <ele>208.39999389648</ele>
        <time>2019-10-12T12:28:18Z</time>
      </trkpt>
      <trkpt lat="47.3258" lon="2.81344">
        <ele>208.60000610352</ele>
        <time>2019-10-12T12:28:23Z</time>
      </trkpt>
      <trkpt lat="47.32581" lon="2.81336">
        <ele>208.80000305176</ele>
        <time>2019-10-12T12:28:28Z</time>
      </trkpt>
      <trkpt lat="47.32583" lon="2.81328">
        <ele>209</ele>
        <time>2019-10-12T12:28:33Z</time>
      </trkpt>
      <trkpt lat="47.32585" lon="2.8132">
        <ele>209.19999694824</ele>
        <time>2019-10-12T12:28:38Z</time>
      </trkpt>
      <trkpt lat="47.32586" lon="2.81312">
        <ele>209.39999389648</ele>
        <time>2019-10-12T12:28:43Z</time>
      </trkpt>
      <trkpt lat="47.32587" lon="2.81305">
        <ele>209.39999389648</ele>
        <time>2019-10-12T12:28:48Z</time>
      </trkpt>
      <trkpt lat="47.32588" lon="2.81297">
        <ele>209.60000610352</ele>
        <time>2019-10-12T12:28:53Z</time>
      </trkpt>
      <trkpt lat="47.32591" lon="2.8129">
        <ele>209.80000305176</ele>
        <time>2019-10-12T12:28:58Z</time>
      </trkpt>
      <trkpt lat="47.32593" lon="2.81282">
        <ele>209.80000305176</ele>
        <time>2019-10-12T12:29:03Z</time>
      </trkpt>
      <trkpt lat="47.32595" lon="2.81274">
        <ele>210</ele>
        <time>2019-10-12T12:29:08Z</time>
      </trkpt>
      <trkpt lat="47.32597" lon="2.81265">
        <ele>210.39999389648</ele>
        <time>2019-10-12T12:29:13Z</time>
      </trkpt>
      <trkpt lat="47.32599" lon="2.81256">
        <ele>210.80000305176</ele>
        <time>2019-10-12T12:29:18Z</time>
      </trkpt>
      <trkpt lat="47.326" lon="2.81248">
        <ele>211.19999694824</ele>
        <time>2019-10-12T12:29:23Z</time>
      </trkpt>
      <trkpt lat="47.326" lon="2.81241">
        <ele>211.39999389648</ele>
        <time>2019-10-12T12:29:28Z</time>
      </trkpt>
      <trkpt lat="47.326" lon="2.81235">
        <ele>211.60000610352</ele>
        <time>2019-10-12T12:29:33Z</time>
      </trkpt>
      <trkpt lat="47.32604" lon="2.81232">
        <ele>211.80000305176</ele>
        <time>2019-10-12T12:29:38Z</time>
      </trkpt>
      <trkpt lat="47.32605" lon="2.81231">
        <ele>212</ele>
        <time>2019-10-12T12:29:43Z</time>
      </trkpt>
      <trkpt lat="47.32608" lon="2.81232">
        <ele>211.80000305176</ele>
        <time>2019-10-12T12:29:48Z</time>
      </trkpt>
      <trkpt lat="47.32614" lon="2.81233">
        <ele>211.39999389648</ele>
        <time>2019-10-12T12:29:53Z</time>
      </trkpt>
      <trkpt lat="47.32619" lon="2.81234">
        <ele>211.19999694824</ele>
        <time>2019-10-12T12:29:58Z</time>
      </trkpt>
      <trkpt lat="47.32624" lon="2.81236">
        <ele>211.19999694824</ele>
        <time>2019-10-12T12:30:03Z</time>
      </trkpt>
      <trkpt lat="47.32629" lon="2.81239">
        <ele>211.19999694824</ele>
        <time>2019-10-12T12:30:08Z</time>
      </trkpt>
      <trkpt lat="47.32634" lon="2.81242">
        <ele>211.19999694824</ele>
        <time>2019-10-12T12:30:13Z</time>
      </trkpt>
      <trkpt lat="47.32638" lon="2.81247">
        <ele>211.39999389648</ele>
        <time>2019-10-12T12:30:18Z</time>
      </trkpt>
      <trkpt lat="47.32642" lon="2.81253">
        <ele>211.60000610352</ele>
        <time>2019-10-12T12:30:23Z</time>
      </trkpt>
      <trkpt lat="47.32645" lon="2.81259">
        <ele>212</ele>
        <time>2019-10-12T12:30:28Z</time>
      </trkpt>
      <trkpt lat="47.32647" lon="2.81265">
        <ele>212</ele>
        <time>2019-10-12T12:30:33Z</time>
      </trkpt>
      <trkpt lat="47.32652" lon="2.81271">
        <ele>212</ele>
        <time>2019-10-12T12:30:38Z</time>
      </trkpt>
      <trkpt lat="47.32655" lon="2.81278">
        <ele>212.19999694824</ele>
        <time>2019-10-12T12:30:43Z</time>
      </trkpt>
      <trkpt lat="47.32659" lon="2.81284">
        <ele>212.60000610352</ele>
        <time>2019-10-12T12:30:48Z</time>
      </trkpt>
      <trkpt lat="47.32664" lon="2.8129">
        <ele>212.80000305176</ele>
        <time>2019-10-12T12:30:53Z</time>
      </trkpt>
      <trkpt lat="47.32669" lon="2.81296">
        <ele>213</ele>
        <time>2019-10-12T12:30:58Z</time>
      </trkpt>
      <trkpt lat="47.32673" lon="2.81302">
        <ele>213.19999694824</ele>
        <time>2019-10-12T12:31:03Z</time>
      </trkpt>
      <trkpt lat="47.32677" lon="2.81307">
        <ele>213</ele>
        <time>2019-10-12T12:31:08Z</time>
      </trkpt>
      <trkpt lat="47.32681" lon="2.81314">
        <ele>213</ele>
        <time>2019-10-12T12:31:13Z</time>
      </trkpt>
      <trkpt lat="47.32685" lon="2.8132">
        <ele>213</ele>
        <time>2019-10-12T12:31:18Z</time>
      </trkpt>
      <trkpt lat="47.32689" lon="2.81324">
        <ele>212.39999389648</ele>
        <time>2019-10-12T12:31:23Z</time>
      </trkpt>
      <trkpt lat="47.32692" lon="2.81329">
        <ele>212</ele>
        <time>2019-10-12T12:31:28Z</time>
      </trkpt>
      <trkpt lat="47.32693" lon="2.81332">
        <ele>211.60000610352</ele>
        <time>2019-10-12T12:31:33Z</time>
      </trkpt>
      <trkpt lat="47.32694" lon="2.81333">
        <ele>211.60000610352</ele>
        <time>2019-10-12T12:31:38Z</time>
      </trkpt>
      <trkpt lat="47.32696" lon="2.81338">
        <ele>211.60000610352</ele>
        <time>2019-10-12T12:31:43Z</time>
      </trkpt>
      <trkpt lat="47.327" lon="2.81344">
        <ele>211.39999389648</ele>
        <time>2019-10-12T12:31:48Z</time>
      </trkpt>
      <trkpt lat="47.32703" lon="2.81349">
        <ele>211.19999694824</ele>
        <time>2019-10-12T12:31:53Z</time>
      </trkpt>
      <trkpt lat="47.32706" lon="2.81354">
        <ele>210.80000305176</ele>
        <time>2019-10-12T12:31:58Z</time>
      </trkpt>
      <trkpt lat="47.32709" lon="2.81358">
        <ele>210.39999389648</ele>
        <time>2019-10-12T12:32:03Z</time>
      </trkpt>
      <trkpt lat="47.32713" lon="2.81363">
        <ele>210</ele>
        <time>2019-10-12T12:32:08Z</time>
      </trkpt>
      <trkpt lat="47.32717" lon="2.81369">
        <ele>209.60000610352</ele>
        <time>2019-10-12T12:32:13Z</time>
      </trkpt>
      <trkpt lat="47.3272" lon="2.81374">
        <ele>209</ele>
        <time>2019-10-12T12:32:18Z</time>
      </trkpt>
      <trkpt lat="47.32724" lon="2.81381">
        <ele>208.39999389648</ele>
        <time>2019-10-12T12:32:23Z</time>
      </trkpt>
      <trkpt lat="47.3273" lon="2.81382">
        <ele>208</ele>
        <time>2019-10-12T12:32:28Z</time>
      </trkpt>
      <trkpt lat="47.32736" lon="2.8138">
        <ele>208</ele>
        <time>2019-10-12T12:32:33Z</time>
      </trkpt>
      <trkpt lat="47.3274" lon="2.81378">
        <ele>208.39999389648</ele>
        <time>2019-10-12T12:32:38Z</time>
      </trkpt>
      <trkpt lat="47.32744" lon="2.81377">
        <ele>209</ele>
        <time>2019-10-12T12:32:43Z</time>
      </trkpt>
      <trkpt lat="47.32749" lon="2.81377">
        <ele>209.60000610352</ele>
        <time>2019-10-12T12:32:48Z</time>
      </trkpt>
      <trkpt lat="47.32754" lon="2.81376">
        <ele>210</ele>
        <time>2019-10-12T12:32:53Z</time>
      </trkpt>
      <trkpt lat="47.32758" lon="2.81375">
        <ele>210.60000610352</ele>
        <time>2019-10-12T12:32:58Z</time>
      </trkpt>
      <trkpt lat="47.32763" lon="2.81374">
        <ele>211.19999694824</ele>
        <time>2019-10-12T12:33:03Z</time>
      </trkpt>
      <trkpt lat="47.32768" lon="2.81373">
        <ele>211.60000610352</ele>
        <time>2019-10-12T12:33:08Z</time>
      </trkpt>
      <trkpt lat="47.32773" lon="2.81372">
        <ele>212</ele>
        <time>2019-10-12T12:33:13Z</time>
      </trkpt>
      <trkpt lat="47.32777" lon="2.81373">
        <ele>212.39999389648</ele>
        <time>2019-10-12T12:33:18Z</time>
      </trkpt>
      <trkpt lat="47.32782" lon="2.81372">
        <ele>212.60000610352</ele>
        <time>2019-10-12T12:33:23Z</time>
      </trkpt>
      <trkpt lat="47.32787" lon="2.81371">
        <ele>213.19999694824</ele>
        <time>2019-10-12T12:33:28Z</time>
      </trkpt>
      <trkpt lat="47.32792" lon="2.81371">
        <ele>213.80000305176</ele>
        <time>2019-10-12T12:33:33Z</time>
      </trkpt>
      <trkpt lat="47.32795" lon="2.8137">
        <ele>214.39999389648</ele>
        <time>2019-10-12T12:33:38Z</time>
      </trkpt>
      <trkpt lat="47.32799" lon="2.81367">
        <ele>215</ele>
        <time>2019-10-12T12:33:43Z</time>
      </trkpt>
      <trkpt lat="47.32803" lon="2.81363">
        <ele>215.60000610352</ele>
        <time>2019-10-12T12:33:48Z</time>
      </trkpt>
      <trkpt lat="47.32805" lon="2.81357">
        <ele>216.39999389648</ele>
        <time>2019-10-12T12:33:53Z</time>
      </trkpt>
      <trkpt lat="47.32807" lon="2.8135">
        <ele>217</ele>
        <time>2019-10-12T12:33:58Z</time>
      </trkpt>
      <trkpt lat="47.32808" lon="2.81342">
        <ele>217.80000305176</ele>
        <time>2019-10-12T12:34:03Z</time>
      </trkpt>
      <trkpt lat="47.32808" lon="2.81334">
        <ele>218.80000305176</ele>
        <time>2019-10-12T12:34:08Z</time>
      </trkpt>
      <trkpt lat="47.32808" lon="2.81327">
        <ele>219.19999694824</ele>
        <time>2019-10-12T12:34:13Z</time>
      </trkpt>
      <trkpt lat="47.32807" lon="2.81321">
        <ele>220.39999389648</ele>
        <time>2019-10-12T12:34:18Z</time>
      </trkpt>
      <trkpt lat="47.32806" lon="2.81314">
        <ele>221.19999694824</ele>
        <time>2019-10-12T12:34:23Z</time>
      </trkpt>
      <trkpt lat="47.32806" lon="2.81307">
        <ele>221.80000305176</ele>
        <time>2019-10-12T12:34:28Z</time>
      </trkpt>
      <trkpt lat="47.32805" lon="2.81301">
        <ele>222.60000610352</ele>
        <time>2019-10-12T12:34:33Z</time>
      </trkpt>
      <trkpt lat="47.32803" lon="2.81295">
        <ele>223.19999694824</ele>
        <time>2019-10-12T12:34:38Z</time>
      </trkpt>
      <trkpt lat="47.328" lon="2.81289">
        <ele>224</ele>
        <time>2019-10-12T12:34:43Z</time>
      </trkpt>
      <trkpt lat="47.32795" lon="2.81287">
        <ele>224.60000610352</ele>
        <time>2019-10-12T12:34:48Z</time>
      </trkpt>
      <trkpt lat="47.32789" lon="2.81288">
        <ele>225.19999694824</ele>
        <time>2019-10-12T12:34:53Z</time>
      </trkpt>
      <trkpt lat="47.32784" lon="2.81291">
        <ele>225.80000305176</ele>
        <time>2019-10-12T12:34:58Z</time>
      </trkpt>
      <trkpt lat="47.32779" lon="2.81295">
        <ele>226.39999389648</ele>
        <time>2019-10-12T12:35:03Z</time>
      </trkpt>
      <trkpt lat="47.32775" lon="2.81298">
        <ele>227</ele>
        <time>2019-10-12T12:35:08Z</time>
      </trkpt>
      <trkpt lat="47.3277" lon="2.81302">
        <ele>227.60000610352</ele>
        <time>2019-10-12T12:35:13Z</time>
      </trkpt>
      <trkpt lat="47.32766" lon="2.81305">
        <ele>228.39999389648</ele>
        <time>2019-10-12T12:35:18Z</time>
      </trkpt>
      <trkpt lat="47.3276" lon="2.81306">
        <ele>229</ele>
        <time>2019-10-12T12:35:23Z</time>
      </trkpt>
      <trkpt lat="47.32755" lon="2.81306">
        <ele>229.39999389648</ele>
        <time>2019-10-12T12:35:28Z</time>
      </trkpt>
      <trkpt lat="47.3275" lon="2.81303">
        <ele>229.80000305176</ele>
        <time>2019-10-12T12:35:33Z</time>
      </trkpt>
      <trkpt lat="47.32746" lon="2.81297">
        <ele>230.19999694824</ele>
        <time>2019-10-12T12:35:38Z</time>
      </trkpt>
      <trkpt lat="47.32743" lon="2.81291">
        <ele>230.60000610352</ele>
        <time>2019-10-12T12:35:43Z</time>
      </trkpt>
      <trkpt lat="47.32739" lon="2.81285">
        <ele>231.39999389648</ele>
        <time>2019-10-12T12:35:48Z</time>
      </trkpt>
      <trkpt lat="47.32736" lon="2.81279">
        <ele>231.80000305176</ele>
        <time>2019-10-12T12:35:53Z</time>
      </trkpt>
      <trkpt lat="47.32732" lon="2.81273">
        <ele>232.60000610352</ele>
        <time>2019-10-12T12:35:58Z</time>
      </trkpt>
      <trkpt lat="47.32729" lon="2.81267">
        <ele>233</ele>
        <time>2019-10-12T12:36:03Z</time>
      </trkpt>
      <trkpt lat="47.32726" lon="2.81262">
        <ele>233.60000610352</ele>
        <time>2019-10-12T12:36:08Z</time>
      </trkpt>
      <trkpt lat="47.32723" lon="2.81255">
        <ele>233.80000305176</ele>
        <time>2019-10-12T12:36:13Z</time>
      </trkpt>
      <trkpt lat="47.32721" lon="2.81249">
        <ele>234.19999694824</ele>
        <time>2019-10-12T12:36:18Z</time>
      </trkpt>
      <trkpt lat="47.32719" lon="2.81242">
        <ele>234.80000305176</ele>
        <time>2019-10-12T12:36:23Z</time>
      </trkpt>
      <trkpt lat="47.32716" lon="2.81235">
        <ele>235.39999389648</ele>
        <time>2019-10-12T12:36:28Z</time>
      </trkpt>
      <trkpt lat="47.32715" lon="2.81229">
        <ele>235.80000305176</ele>
        <time>2019-10-12T12:36:33Z</time>
      </trkpt>
      <trkpt lat="47.32715" lon="2.81224">
        <ele>236.19999694824</ele>
        <time>2019-10-12T12:36:38Z</time>
      </trkpt>
      <trkpt lat="47.32716" lon="2.81221">
        <ele>236.80000305176</ele>
        <time>2019-10-12T12:36:43Z</time>
      </trkpt>
      <trkpt lat="47.3272" lon="2.81216">
        <ele>237</ele>
        <time>2019-10-12T12:36:48Z</time>
      </trkpt>
      <trkpt lat="47.32725" lon="2.81216">
        <ele>238</ele>
        <time>2019-10-12T12:36:53Z</time>
      </trkpt>
      <trkpt lat="47.32728" lon="2.81218">
        <ele>238.60000610352</ele>
        <time>2019-10-12T12:36:58Z</time>
      </trkpt>
      <trkpt lat="47.32732" lon="2.81218">
        <ele>239</ele>
        <time>2019-10-12T12:37:03Z</time>
      </trkpt>
      <trkpt lat="47.32735" lon="2.81219">
        <ele>239</ele>
        <time>2019-10-12T12:37:08Z</time>
      </trkpt>
      <trkpt lat="47.32737" lon="2.8122">
        <ele>239.19999694824</ele>
        <time>2019-10-12T12:37:13Z</time>
      </trkpt>
      <trkpt lat="47.3274" lon="2.8122">
        <ele>239.39999389648</ele>
        <time>2019-10-12T12:37:18Z</time>
      </trkpt>
      <trkpt lat="47.32743" lon="2.81221">
        <ele>239.60000610352</ele>
        <time>2019-10-12T12:37:23Z</time>
      </trkpt>
      <trkpt lat="47.32746" lon="2.81221">
        <ele>239.60000610352</ele>
        <time>2019-10-12T12:37:28Z</time>
      </trkpt>
      <trkpt lat="47.32749" lon="2.81223">
        <ele>240.39999389648</ele>
        <time>2019-10-12T12:37:33Z</time>
      </trkpt>
      <trkpt lat="47.32753" lon="2.81223">
        <ele>240.60000610352</ele>
        <time>2019-10-12T12:37:38Z</time>
      </trkpt>
      <trkpt lat="47.32757" lon="2.81222">
        <ele>240.60000610352</ele>
        <time>2019-10-12T12:37:43Z</time>
      </trkpt>
      <trkpt lat="47.32762" lon="2.81219">
        <ele>240.60000610352</ele>
        <time>2019-10-12T12:37:48Z</time>
      </trkpt>
      <trkpt lat="47.32766" lon="2.81216">
        <ele>240.80000305176</ele>
        <time>2019-10-12T12:37:53Z</time>
      </trkpt>
      <trkpt lat="47.32771" lon="2.81213">
        <ele>241</ele>
        <time>2019-10-12T12:37:58Z</time>
      </trkpt>
      <trkpt lat="47.32775" lon="2.8121">
        <ele>241.19999694824</ele>
        <time>2019-10-12T12:38:03Z</time>
      </trkpt>
      <trkpt lat="47.32779" lon="2.81207">
        <ele>241.39999389648</ele>
        <time>2019-10-12T12:38:08Z</time>
      </trkpt>
      <trkpt lat="47.32782" lon="2.81203">
        <ele>241.80000305176</ele>
        <time>2019-10-12T12:38:13Z</time>
      </trkpt>
      <trkpt lat="47.32784" lon="2.81197">
        <ele>242.19999694824</ele>
        <time>2019-10-12T12:38:18Z</time>
      </trkpt>
      <trkpt lat="47.32786" lon="2.81192">
        <ele>242.39999389648</ele>
        <time>2019-10-12T12:38:23Z</time>
      </trkpt>
      <trkpt lat="47.32787" lon="2.81186">
        <ele>243.19999694824</ele>
        <time>2019-10-12T12:38:28Z</time>
      </trkpt>
      <trkpt lat="47.32788" lon="2.81181">
        <ele>243.80000305176</ele>
        <time>2019-10-12T12:38:33Z</time>
      </trkpt>
      <trkpt lat="47.3279" lon="2.81174">
        <ele>244.39999389648</ele>
        <time>2019-10-12T12:38:38Z</time>
      </trkpt>
      <trkpt lat="47.32793" lon="2.81169">
        <ele>245.19999694824</ele>
        <time>2019-10-12T12:38:43Z</time>
      </trkpt>
      <trkpt lat="47.32796" lon="2.81165">
        <ele>245.60000610352</ele>
        <time>2019-10-12T12:38:48Z</time>
      </trkpt>
      <trkpt lat="47.32801" lon="2.81162">
        <ele>246.39999389648</ele>
        <time>2019-10-12T12:38:53Z</time>
      </trkpt>
      <trkpt lat="47.32804" lon="2.81161">
        <ele>246.60000610352</ele>
        <time>2019-10-12T12:38:58Z</time>
      </trkpt>
      <trkpt lat="47.32808" lon="2.81161">
        <ele>247.19999694824</ele>
        <time>2019-10-12T12:39:03Z</time>
      </trkpt>
      <trkpt lat="47.32812" lon="2.81162">
        <ele>247.39999389648</ele>
        <time>2019-10-12T12:39:08Z</time>
      </trkpt>
      <trkpt lat="47.32816" lon="2.81162">
        <ele>247.60000610352</ele>
        <time>2019-10-12T12:39:13Z</time>
      </trkpt>
      <trkpt lat="47.32822" lon="2.81162">
        <ele>248</ele>
        <time>2019-10-12T12:39:18Z</time>
      </trkpt>
      <trkpt lat="47.32827" lon="2.81163">
        <ele>248.19999694824</ele>
        <time>2019-10-12T12:39:23Z</time>
      </trkpt>
      <trkpt lat="47.32828" lon="2.81162">
        <ele>248.60000610352</ele>
        <time>2019-10-12T12:39:28Z</time>
      </trkpt>
      <trkpt lat="47.32834" lon="2.81162">
        <ele>249.19999694824</ele>
        <time>2019-10-12T12:39:33Z</time>
      </trkpt>
      <trkpt lat="47.32838" lon="2.81161">
        <ele>249.60000610352</ele>
        <time>2019-10-12T12:39:38Z</time>
      </trkpt>
      <trkpt lat="47.32841" lon="2.8116">
        <ele>250.39999389648</ele>
        <time>2019-10-12T12:39:43Z</time>
      </trkpt>
      <trkpt lat="47.32842" lon="2.81158">
        <ele>251</ele>
        <time>2019-10-12T12:39:48Z</time>
      </trkpt>
      <trkpt lat="47.32843" lon="2.81157">
        <ele>251.19999694824</ele>
        <time>2019-10-12T12:39:53Z</time>
      </trkpt>
      <trkpt lat="47.32843" lon="2.81157">
        <ele>251.19999694824</ele>
        <time>2019-10-12T12:39:58Z</time>
      </trkpt>
      <trkpt lat="47.32843" lon="2.81156">
        <ele>251.39999389648</ele>
        <time>2019-10-12T12:40:03Z</time>
      </trkpt>
      <trkpt lat="47.32843" lon="2.81157">
        <ele>251.39999389648</ele>
        <time>2019-10-12T12:40:08Z</time>
      </trkpt>
      <trkpt lat="47.32843" lon="2.81163">
        <ele>251.39999389648</ele>
        <time>2019-10-12T12:40:13Z</time>
      </trkpt>
      <trkpt lat="47.32842" lon="2.81166">
        <ele>251</ele>
        <time>2019-10-12T12:40:18Z</time>
      </trkpt>
      <trkpt lat="47.32842" lon="2.81166">
        <ele>250.80000305176</ele>
        <time>2019-10-12T12:40:23Z</time>
      </trkpt>
      <trkpt lat="47.32842" lon="2.81166">
        <ele>250.60000610352</ele>
        <time>2019-10-12T12:40:28Z</time>
      </trkpt>
      <trkpt lat="47.32842" lon="2.81166">
        <ele>250.60000610352</ele>
        <time>2019-10-12T12:40:33Z</time>
      </trkpt>
      <trkpt lat="47.32842" lon="2.81167">
        <ele>250.39999389648</ele>
        <time>2019-10-12T12:40:38Z</time>
      </trkpt>
      <trkpt lat="47.32842" lon="2.81167">
        <ele>250.39999389648</ele>
        <time>2019-10-12T12:40:43Z</time>
      </trkpt>
      <trkpt lat="47.32842" lon="2.81167">
        <ele>250.19999694824</ele>
        <time>2019-10-12T12:40:48Z</time>
      </trkpt>
      <trkpt lat="47.32842" lon="2.81163">
        <ele>250.39999389648</ele>
        <time>2019-10-12T12:40:53Z</time>
      </trkpt>
      <trkpt lat="47.32843" lon="2.81158">
        <ele>251</ele>
        <time>2019-10-12T12:40:58Z</time>
      </trkpt>
      <trkpt lat="47.32844" lon="2.81158">
        <ele>251.39999389648</ele>
        <time>2019-10-12T12:41:03Z</time>
      </trkpt>
      <trkpt lat="47.32844" lon="2.81157">
        <ele>251.39999389648</ele>
        <time>2019-10-12T12:41:08Z</time>
      </trkpt>
      <trkpt lat="47.32844" lon="2.81158">
        <ele>251.39999389648</ele>
        <time>2019-10-12T12:41:13Z</time>
      </trkpt>
      <trkpt lat="47.32845" lon="2.81156">
        <ele>251.39999389648</ele>
        <time>2019-10-12T12:41:18Z</time>
      </trkpt>
      <trkpt lat="47.32845" lon="2.81156">
        <ele>251.60000610352</ele>
        <time>2019-10-12T12:41:23Z</time>
      </trkpt>
      <trkpt lat="47.32845" lon="2.81154">
        <ele>251.60000610352</ele>
        <time>2019-10-12T12:41:28Z</time>
      </trkpt>
      <trkpt lat="47.32845" lon="2.81154">
        <ele>251.80000305176</ele>
        <time>2019-10-12T12:41:33Z</time>
      </trkpt>
      <trkpt lat="47.32845" lon="2.81155">
        <ele>252</ele>
        <time>2019-10-12T12:41:38Z</time>
      </trkpt>
      <trkpt lat="47.32844" lon="2.81155">
        <ele>252</ele>
        <time>2019-10-12T12:41:43Z</time>
      </trkpt>
      <trkpt lat="47.32846" lon="2.81156">
        <ele>252</ele>
        <time>2019-10-12T12:41:48Z</time>
      </trkpt>
      <trkpt lat="47.32848" lon="2.81157">
        <ele>252</ele>
        <time>2019-10-12T12:41:53Z</time>
      </trkpt>
      <trkpt lat="47.32846" lon="2.81155">
        <ele>252</ele>
        <time>2019-10-12T12:41:58Z</time>
      </trkpt>
      <trkpt lat="47.32846" lon="2.81155">
        <ele>252.19999694824</ele>
        <time>2019-10-12T12:42:03Z</time>
      </trkpt>
      <trkpt lat="47.32846" lon="2.81155">
        <ele>252</ele>
        <time>2019-10-12T12:42:08Z</time>
      </trkpt>
      <trkpt lat="47.32846" lon="2.81155">
        <ele>252</ele>
        <time>2019-10-12T12:42:13Z</time>
      </trkpt>
      <trkpt lat="47.32846" lon="2.81155">
        <ele>252</ele>
        <time>2019-10-12T12:42:18Z</time>
      </trkpt>
      <trkpt lat="47.32846" lon="2.81155">
        <ele>252</ele>
        <time>2019-10-12T12:42:23Z</time>
      </trkpt>
      <trkpt lat="47.32845" lon="2.81155">
        <ele>251.80000305176</ele>
        <time>2019-10-12T12:42:28Z</time>
      </trkpt>
      <trkpt lat="47.32845" lon="2.81155">
        <ele>252</ele>
        <time>2019-10-12T12:42:33Z</time>
      </trkpt>
      <trkpt lat="47.32846" lon="2.81155">
        <ele>252</ele>
        <time>2019-10-12T12:42:38Z</time>
      </trkpt>
      <trkpt lat="47.32846" lon="2.81155">
        <ele>252</ele>
        <time>2019-10-12T12:42:43Z</time>
      </trkpt>
      <trkpt lat="47.32847" lon="2.81155">
        <ele>252</ele>
        <time>2019-10-12T12:42:48Z</time>
      </trkpt>
      <trkpt lat="47.32847" lon="2.81155">
        <ele>252</ele>
        <time>2019-10-12T12:42:53Z</time>
      </trkpt>
      <trkpt lat="47.32846" lon="2.81156">
        <ele>252</ele>
        <time>2019-10-12T12:42:58Z</time>
      </trkpt>
      <trkpt lat="47.32845" lon="2.81158">
        <ele>252</ele>
        <time>2019-10-12T12:43:03Z</time>
      </trkpt>
      <trkpt lat="47.32845" lon="2.81159">
        <ele>252</ele>
        <time>2019-10-12T12:43:08Z</time>
      </trkpt>
      <trkpt lat="47.32844" lon="2.81159">
        <ele>252</ele>
        <time>2019-10-12T12:43:13Z</time>
      </trkpt>
      <trkpt lat="47.32844" lon="2.8116">
        <ele>252</ele>
        <time>2019-10-12T12:43:18Z</time>
      </trkpt>
      <trkpt lat="47.32845" lon="2.8116">
        <ele>252</ele>
        <time>2019-10-12T12:43:23Z</time>
      </trkpt>
      <trkpt lat="47.32844" lon="2.8116">
        <ele>252</ele>
        <time>2019-10-12T12:43:28Z</time>
      </trkpt>
      <trkpt lat="47.32844" lon="2.8116">
        <ele>252</ele>
        <time>2019-10-12T12:43:33Z</time>
      </trkpt>
      <trkpt lat="47.32844" lon="2.8116">
        <ele>252</ele>
        <time>2019-10-12T12:43:38Z</time>
      </trkpt>
      <trkpt lat="47.32844" lon="2.81158">
        <ele>252</ele>
        <time>2019-10-12T12:43:43Z</time>
      </trkpt>
      <trkpt lat="47.32843" lon="2.81157">
        <ele>252</ele>
        <time>2019-10-12T12:43:48Z</time>
      </trkpt>
      <trkpt lat="47.32842" lon="2.81157">
        <ele>252</ele>
        <time>2019-10-12T12:43:53Z</time>
      </trkpt>
      <trkpt lat="47.32843" lon="2.81156">
        <ele>252</ele>
        <time>2019-10-12T12:43:58Z</time>
      </trkpt>
      <trkpt lat="47.32843" lon="2.81156">
        <ele>252</ele>
        <time>2019-10-12T12:44:03Z</time>
      </trkpt>
      <trkpt lat="47.32843" lon="2.81156">
        <ele>252</ele>
        <time>2019-10-12T12:44:08Z</time>
      </trkpt>
      <trkpt lat="47.32843" lon="2.81156">
        <ele>252</ele>
        <time>2019-10-12T12:44:13Z</time>
      </trkpt>
      <trkpt lat="47.32843" lon="2.81156">
        <ele>252</ele>
        <time>2019-10-12T12:44:18Z</time>
      </trkpt>
      <trkpt lat="47.32844" lon="2.81156">
        <ele>252</ele>
        <time>2019-10-12T12:44:23Z</time>
      </trkpt>
      <trkpt lat="47.32844" lon="2.81156">
        <ele>252</ele>
        <time>2019-10-12T12:44:28Z</time>
      </trkpt>
      <trkpt lat="47.32844" lon="2.81156">
        <ele>252</ele>
        <time>2019-10-12T12:44:33Z</time>
      </trkpt>
      <trkpt lat="47.32844" lon="2.81156">
        <ele>252</ele>
        <time>2019-10-12T12:44:38Z</time>
      </trkpt>
      <trkpt lat="47.32844" lon="2.81156">
        <ele>252</ele>
        <time>2019-10-12T12:44:43Z</time>
      </trkpt>
      <trkpt lat="47.32844" lon="2.81155">
        <ele>252</ele>
        <time>2019-10-12T12:44:48Z</time>
      </trkpt>
      <trkpt lat="47.32844" lon="2.81155">
        <ele>252</ele>
        <time>2019-10-12T12:44:53Z</time>
      </trkpt>
      <trkpt lat="47.32845" lon="2.81155">
        <ele>252</ele>
        <time>2019-10-12T12:44:58Z</time>
      </trkpt>
      <trkpt lat="47.32845" lon="2.81155">
        <ele>252</ele>
        <time>2019-10-12T12:45:03Z</time>
      </trkpt>
      <trkpt lat="47.32845" lon="2.81155">
        <ele>252</ele>
        <time>2019-10-12T12:45:08Z</time>
      </trkpt>
      <trkpt lat="47.32845" lon="2.81155">
        <ele>252</ele>
        <time>2019-10-12T12:45:13Z</time>
      </trkpt>
      <trkpt lat="47.32846" lon="2.81155">
        <ele>252</ele>
        <time>2019-10-12T12:45:18Z</time>
      </trkpt>
      <trkpt lat="47.32843" lon="2.81157">
        <ele>252</ele>
        <time>2019-10-12T12:45:23Z</time>
      </trkpt>
      <trkpt lat="47.32841" lon="2.81157">
        <ele>252</ele>
        <time>2019-10-12T12:45:28Z</time>
      </trkpt>
      <trkpt lat="47.32839" lon="2.81158">
        <ele>252</ele>
        <time>2019-10-12T12:45:33Z</time>
      </trkpt>
      <trkpt lat="47.32839" lon="2.81158">
        <ele>252</ele>
        <time>2019-10-12T12:45:38Z</time>
      </trkpt>
      <trkpt lat="47.32838" lon="2.81158">
        <ele>252</ele>
        <time>2019-10-12T12:45:43Z</time>
      </trkpt>
      <trkpt lat="47.32838" lon="2.81158">
        <ele>252</ele>
        <time>2019-10-12T12:45:48Z</time>
      </trkpt>
      <trkpt lat="47.32838" lon="2.81158">
        <ele>252</ele>
        <time>2019-10-12T12:45:53Z</time>
      </trkpt>
      <trkpt lat="47.32837" lon="2.81158">
        <ele>252</ele>
        <time>2019-10-12T12:45:58Z</time>
      </trkpt>
      <trkpt lat="47.32837" lon="2.81158">
        <ele>252</ele>
        <time>2019-10-12T12:46:03Z</time>
      </trkpt>
      <trkpt lat="47.32837" lon="2.81159">
        <ele>252</ele>
        <time>2019-10-12T12:46:08Z</time>
      </trkpt>
      <trkpt lat="47.32838" lon="2.81159">
        <ele>252</ele>
        <time>2019-10-12T12:46:13Z</time>
      </trkpt>
      <trkpt lat="47.32837" lon="2.81159">
        <ele>252</ele>
        <time>2019-10-12T12:46:18Z</time>
      </trkpt>
      <trkpt lat="47.32837" lon="2.81159">
        <ele>252</ele>
        <time>2019-10-12T12:46:23Z</time>
      </trkpt>
      <trkpt lat="47.32837" lon="2.81158">
        <ele>252</ele>
        <time>2019-10-12T12:46:28Z</time>
      </trkpt>
      <trkpt lat="47.32838" lon="2.81157">
        <ele>252</ele>
        <time>2019-10-12T12:46:33Z</time>
      </trkpt>
      <trkpt lat="47.32838" lon="2.81157">
        <ele>252</ele>
        <time>2019-10-12T12:46:38Z</time>
      </trkpt>
      <trkpt lat="47.3284" lon="2.81159">
        <ele>252</ele>
        <time>2019-10-12T12:46:43Z</time>
      </trkpt>
      <trkpt lat="47.3284" lon="2.81159">
        <ele>252</ele>
        <time>2019-10-12T12:46:48Z</time>
      </trkpt>
      <trkpt lat="47.3284" lon="2.81159">
        <ele>252</ele>
        <time>2019-10-12T12:46:53Z</time>
      </trkpt>
      <trkpt lat="47.32839" lon="2.81159">
        <ele>252</ele>
        <time>2019-10-12T12:46:58Z</time>
      </trkpt>
      <trkpt lat="47.32839" lon="2.81159">
        <ele>252</ele>
        <time>2019-10-12T12:47:03Z</time>
      </trkpt>
      <trkpt lat="47.32839" lon="2.81159">
        <ele>252</ele>
        <time>2019-10-12T12:47:08Z</time>
      </trkpt>
      <trkpt lat="47.32839" lon="2.81159">
        <ele>252</ele>
        <time>2019-10-12T12:47:13Z</time>
      </trkpt>
      <trkpt lat="47.3284" lon="2.81159">
        <ele>252</ele>
        <time>2019-10-12T12:47:18Z</time>
      </trkpt>
      <trkpt lat="47.32839" lon="2.8116">
        <ele>252</ele>
        <time>2019-10-12T12:47:23Z</time>
      </trkpt>
      <trkpt lat="47.32839" lon="2.8116">
        <ele>252</ele>
        <time>2019-10-12T12:47:28Z</time>
      </trkpt>
      <trkpt lat="47.32839" lon="2.8116">
        <ele>252</ele>
        <time>2019-10-12T12:47:33Z</time>
      </trkpt>
      <trkpt lat="47.32839" lon="2.8116">
        <ele>252</ele>
        <time>2019-10-12T12:47:38Z</time>
      </trkpt>
      <trkpt lat="47.3284" lon="2.81159">
        <ele>252</ele>
        <time>2019-10-12T12:47:43Z</time>
      </trkpt>
      <trkpt lat="47.3284" lon="2.8116">
        <ele>252</ele>
        <time>2019-10-12T12:47:48Z</time>
      </trkpt>
      <trkpt lat="47.3284" lon="2.81161">
        <ele>252</ele>
        <time>2019-10-12T12:47:53Z</time>
      </trkpt>
      <trkpt lat="47.3284" lon="2.8116">
        <ele>252</ele>
        <time>2019-10-12T12:47:58Z</time>
      </trkpt>
      <trkpt lat="47.32841" lon="2.81159">
        <ele>252</ele>
        <time>2019-10-12T12:48:03Z</time>
      </trkpt>
      <trkpt lat="47.32841" lon="2.81159">
        <ele>252</ele>
        <time>2019-10-12T12:48:08Z</time>
      </trkpt>
      <trkpt lat="47.32841" lon="2.81158">
        <ele>252</ele>
        <time>2019-10-12T12:48:13Z</time>
      </trkpt>
      <trkpt lat="47.32841" lon="2.81158">
        <ele>252</ele>
        <time>2019-10-12T12:48:18Z</time>
      </trkpt>
      <trkpt lat="47.32841" lon="2.81157">
        <ele>252</ele>
        <time>2019-10-12T12:48:23Z</time>
      </trkpt>
      <trkpt lat="47.32841" lon="2.81156">
        <ele>252</ele>
        <time>2019-10-12T12:48:28Z</time>
      </trkpt>
      <trkpt lat="47.32841" lon="2.81155">
        <ele>252</ele>
        <time>2019-10-12T12:48:33Z</time>
      </trkpt>
      <trkpt lat="47.3284" lon="2.81156">
        <ele>252</ele>
        <time>2019-10-12T12:48:38Z</time>
      </trkpt>
      <trkpt lat="47.3284" lon="2.81157">
        <ele>252</ele>
        <time>2019-10-12T12:48:43Z</time>
      </trkpt>
      <trkpt lat="47.3284" lon="2.81157">
        <ele>252</ele>
        <time>2019-10-12T12:48:48Z</time>
      </trkpt>
      <trkpt lat="47.32839" lon="2.81158">
        <ele>252</ele>
        <time>2019-10-12T12:48:53Z</time>
      </trkpt>
      <trkpt lat="47.3284" lon="2.81158">
        <ele>252</ele>
        <time>2019-10-12T12:48:58Z</time>
      </trkpt>
      <trkpt lat="47.32841" lon="2.81156">
        <ele>252</ele>
        <time>2019-10-12T12:49:03Z</time>
      </trkpt>
      <trkpt lat="47.32841" lon="2.81153">
        <ele>252</ele>
        <time>2019-10-12T12:49:08Z</time>
      </trkpt>
      <trkpt lat="47.32841" lon="2.8115">
        <ele>252</ele>
        <time>2019-10-12T12:49:13Z</time>
      </trkpt>
      <trkpt lat="47.32841" lon="2.8115">
        <ele>252</ele>
        <time>2019-10-12T12:49:18Z</time>
      </trkpt>
      <trkpt lat="47.32841" lon="2.8115">
        <ele>252</ele>
        <time>2019-10-12T12:49:23Z</time>
      </trkpt>
      <trkpt lat="47.32841" lon="2.8115">
        <ele>252</ele>
        <time>2019-10-12T12:49:28Z</time>
      </trkpt>
      <trkpt lat="47.32841" lon="2.8115">
        <ele>252</ele>
        <time>2019-10-12T12:49:33Z</time>
      </trkpt>
      <trkpt lat="47.32842" lon="2.8115">
        <ele>252</ele>
        <time>2019-10-12T12:49:38Z</time>
      </trkpt>
      <trkpt lat="47.32842" lon="2.8115">
        <ele>252</ele>
        <time>2019-10-12T12:49:43Z</time>
      </trkpt>
      <trkpt lat="47.32842" lon="2.8115">
        <ele>252</ele>
        <time>2019-10-12T12:49:48Z</time>
      </trkpt>
      <trkpt lat="47.32842" lon="2.8115">
        <ele>252</ele>
        <time>2019-10-12T12:49:53Z</time>
      </trkpt>
      <trkpt lat="47.32842" lon="2.8115">
        <ele>252</ele>
        <time>2019-10-12T12:49:58Z</time>
      </trkpt>
      <trkpt lat="47.32844" lon="2.81149">
        <ele>252</ele>
        <time>2019-10-12T12:50:03Z</time>
      </trkpt>
      <trkpt lat="47.32845" lon="2.8115">
        <ele>252</ele>
        <time>2019-10-12T12:50:08Z</time>
      </trkpt>
      <trkpt lat="47.32847" lon="2.8115">
        <ele>252</ele>
        <time>2019-10-12T12:50:13Z</time>
      </trkpt>
      <trkpt lat="47.32851" lon="2.81146">
        <ele>252</ele>
        <time>2019-10-12T12:50:18Z</time>
      </trkpt>
      <trkpt lat="47.32854" lon="2.81141">
        <ele>253.80000305176</ele>
        <time>2019-10-12T12:50:23Z</time>
      </trkpt>
      <trkpt lat="47.32858" lon="2.81136">
        <ele>254.39999389648</ele>
        <time>2019-10-12T12:50:28Z</time>
      </trkpt>
      <trkpt lat="47.32861" lon="2.81131">
        <ele>254.80000305176</ele>
        <time>2019-10-12T12:50:33Z</time>
      </trkpt>
      <trkpt lat="47.32865" lon="2.81126">
        <ele>255.60000610352</ele>
        <time>2019-10-12T12:50:38Z</time>
      </trkpt>
      <trkpt lat="47.32869" lon="2.81122">
        <ele>256</ele>
        <time>2019-10-12T12:50:43Z</time>
      </trkpt>
      <trkpt lat="47.32873" lon="2.81116">
        <ele>256.39999389648</ele>
        <time>2019-10-12T12:50:48Z</time>
      </trkpt>
      <trkpt lat="47.32877" lon="2.81111">
        <ele>257</ele>
        <time>2019-10-12T12:50:53Z</time>
      </trkpt>
      <trkpt lat="47.3288" lon="2.81108">
        <ele>257.60000610352</ele>
        <time>2019-10-12T12:50:58Z</time>
      </trkpt>
      <trkpt lat="47.32884" lon="2.81103">
        <ele>257.79998779297</ele>
        <time>2019-10-12T12:51:03Z</time>
      </trkpt>
      <trkpt lat="47.32889" lon="2.81099">
        <ele>258</ele>
        <time>2019-10-12T12:51:08Z</time>
      </trkpt>
      <trkpt lat="47.32893" lon="2.81095">
        <ele>258.20001220703</ele>
        <time>2019-10-12T12:51:13Z</time>
      </trkpt>
      <trkpt lat="47.32897" lon="2.8109">
        <ele>258.60000610352</ele>
        <time>2019-10-12T12:51:18Z</time>
      </trkpt>
      <trkpt lat="47.32901" lon="2.81085">
        <ele>258.79998779297</ele>
        <time>2019-10-12T12:51:23Z</time>
      </trkpt>
      <trkpt lat="47.32906" lon="2.81081">
        <ele>259</ele>
        <time>2019-10-12T12:51:28Z</time>
      </trkpt>
      <trkpt lat="47.3291" lon="2.81076">
        <ele>259.20001220703</ele>
        <time>2019-10-12T12:51:33Z</time>
      </trkpt>
      <trkpt lat="47.32914" lon="2.8107">
        <ele>259.20001220703</ele>
        <time>2019-10-12T12:51:38Z</time>
      </trkpt>
      <trkpt lat="47.32918" lon="2.81065">
        <ele>259.20001220703</ele>
        <time>2019-10-12T12:51:43Z</time>
      </trkpt>
      <trkpt lat="47.32924" lon="2.81062">
        <ele>259.60000610352</ele>
        <time>2019-10-12T12:51:48Z</time>
      </trkpt>
      <trkpt lat="47.32929" lon="2.81063">
        <ele>260.39999389648</ele>
        <time>2019-10-12T12:51:53Z</time>
      </trkpt>
      <trkpt lat="47.32934" lon="2.81065">
        <ele>260.60000610352</ele>
        <time>2019-10-12T12:51:58Z</time>
      </trkpt>
      <trkpt lat="47.32937" lon="2.81071">
        <ele>260.39999389648</ele>
        <time>2019-10-12T12:52:03Z</time>
      </trkpt>
      <trkpt lat="47.32939" lon="2.81078">
        <ele>260.39999389648</ele>
        <time>2019-10-12T12:52:08Z</time>
      </trkpt>
      <trkpt lat="47.32941" lon="2.81085">
        <ele>260.20001220703</ele>
        <time>2019-10-12T12:52:13Z</time>
      </trkpt>
      <trkpt lat="47.32943" lon="2.81093">
        <ele>260.39999389648</ele>
        <time>2019-10-12T12:52:18Z</time>
      </trkpt>
      <trkpt lat="47.32947" lon="2.81101">
        <ele>260.39999389648</ele>
        <time>2019-10-12T12:52:23Z</time>
      </trkpt>
      <trkpt lat="47.32949" lon="2.81109">
        <ele>260.39999389648</ele>
        <time>2019-10-12T12:52:28Z</time>
      </trkpt>
      <trkpt lat="47.32952" lon="2.81116">
        <ele>260.20001220703</ele>
        <time>2019-10-12T12:52:33Z</time>
      </trkpt>
      <trkpt lat="47.32954" lon="2.81124">
        <ele>260</ele>
        <time>2019-10-12T12:52:38Z</time>
      </trkpt>
      <trkpt lat="47.32957" lon="2.81131">
        <ele>260</ele>
        <time>2019-10-12T12:52:43Z</time>
      </trkpt>
      <trkpt lat="47.32959" lon="2.81139">
        <ele>260</ele>
        <time>2019-10-12T12:52:48Z</time>
      </trkpt>
      <trkpt lat="47.32961" lon="2.81147">
        <ele>260</ele>
        <time>2019-10-12T12:52:53Z</time>
      </trkpt>
      <trkpt lat="47.32964" lon="2.81155">
        <ele>260.20001220703</ele>
        <time>2019-10-12T12:52:58Z</time>
      </trkpt>
      <trkpt lat="47.32966" lon="2.81162">
        <ele>260</ele>
        <time>2019-10-12T12:53:03Z</time>
      </trkpt>
      <trkpt lat="47.3297" lon="2.81169">
        <ele>259.39999389648</ele>
        <time>2019-10-12T12:53:08Z</time>
      </trkpt>
      <trkpt lat="47.32972" lon="2.81176">
        <ele>259.39999389648</ele>
        <time>2019-10-12T12:53:13Z</time>
      </trkpt>
      <trkpt lat="47.32974" lon="2.81186">
        <ele>259</ele>
        <time>2019-10-12T12:53:18Z</time>
      </trkpt>
      <trkpt lat="47.32976" lon="2.81193">
        <ele>259.20001220703</ele>
        <time>2019-10-12T12:53:23Z</time>
      </trkpt>
      <trkpt lat="47.32978" lon="2.81202">
        <ele>259.20001220703</ele>
        <time>2019-10-12T12:53:28Z</time>
      </trkpt>
      <trkpt lat="47.32983" lon="2.8121">
        <ele>259.20001220703</ele>
        <time>2019-10-12T12:53:33Z</time>
      </trkpt>
      <trkpt lat="47.32987" lon="2.81217">
        <ele>259.20001220703</ele>
        <time>2019-10-12T12:53:38Z</time>
      </trkpt>
      <trkpt lat="47.32989" lon="2.81223">
        <ele>259.20001220703</ele>
        <time>2019-10-12T12:53:43Z</time>
      </trkpt>
      <trkpt lat="47.32992" lon="2.81232">
        <ele>259.20001220703</ele>
        <time>2019-10-12T12:53:48Z</time>
      </trkpt>
      <trkpt lat="47.32995" lon="2.81238">
        <ele>259</ele>
        <time>2019-10-12T12:53:53Z</time>
      </trkpt>
      <trkpt lat="47.32998" lon="2.81247">
        <ele>259</ele>
        <time>2019-10-12T12:53:58Z</time>
      </trkpt>
      <trkpt lat="47.33001" lon="2.81254">
        <ele>259</ele>
        <time>2019-10-12T12:54:03Z</time>
      </trkpt>
      <trkpt lat="47.33005" lon="2.81262">
        <ele>259</ele>
        <time>2019-10-12T12:54:08Z</time>
      </trkpt>
      <trkpt lat="47.33007" lon="2.81269">
        <ele>259</ele>
        <time>2019-10-12T12:54:13Z</time>
      </trkpt>
      <trkpt lat="47.33011" lon="2.81276">
        <ele>258.79998779297</ele>
        <time>2019-10-12T12:54:18Z</time>
      </trkpt>
      <trkpt lat="47.33015" lon="2.81284">
        <ele>258.79998779297</ele>
        <time>2019-10-12T12:54:23Z</time>
      </trkpt>
      <trkpt lat="47.33018" lon="2.8129">
        <ele>258.79998779297</ele>
        <time>2019-10-12T12:54:28Z</time>
      </trkpt>
      <trkpt lat="47.33021" lon="2.81297">
        <ele>258.79998779297</ele>
        <time>2019-10-12T12:54:33Z</time>
      </trkpt>
      <trkpt lat="47.33024" lon="2.81306">
        <ele>258.60000610352</ele>
        <time>2019-10-12T12:54:38Z</time>
      </trkpt>
      <trkpt lat="47.33026" lon="2.81313">
        <ele>258.39999389648</ele>
        <time>2019-10-12T12:54:43Z</time>
      </trkpt>
      <trkpt lat="47.33029" lon="2.81322">
        <ele>258.39999389648</ele>
        <time>2019-10-12T12:54:48Z</time>
      </trkpt>
      <trkpt lat="47.33032" lon="2.8133">
        <ele>258.20001220703</ele>
        <time>2019-10-12T12:54:53Z</time>
      </trkpt>
      <trkpt lat="47.33035" lon="2.81338">
        <ele>258.39999389648</ele>
        <time>2019-10-12T12:54:58Z</time>
      </trkpt>
      <trkpt lat="47.33038" lon="2.81346">
        <ele>258.20001220703</ele>
        <time>2019-10-12T12:55:03Z</time>
      </trkpt>
      <trkpt lat="47.33041" lon="2.81354">
        <ele>258</ele>
        <time>2019-10-12T12:55:08Z</time>
      </trkpt>
      <trkpt lat="47.33044" lon="2.81362">
        <ele>258</ele>
        <time>2019-10-12T12:55:13Z</time>
      </trkpt>
      <trkpt lat="47.33047" lon="2.81369">
        <ele>257.79998779297</ele>
        <time>2019-10-12T12:55:18Z</time>
      </trkpt>
      <trkpt lat="47.3305" lon="2.81376">
        <ele>257.79998779297</ele>
        <time>2019-10-12T12:55:23Z</time>
      </trkpt>
      <trkpt lat="47.33054" lon="2.81383">
        <ele>257.60000610352</ele>
        <time>2019-10-12T12:55:28Z</time>
      </trkpt>
      <trkpt lat="47.33058" lon="2.8139">
        <ele>257.20001220703</ele>
        <time>2019-10-12T12:55:33Z</time>
      </trkpt>
      <trkpt lat="47.33062" lon="2.81396">
        <ele>257.20001220703</ele>
        <time>2019-10-12T12:55:38Z</time>
      </trkpt>
      <trkpt lat="47.33066" lon="2.81403">
        <ele>257.20001220703</ele>
        <time>2019-10-12T12:55:43Z</time>
      </trkpt>
      <trkpt lat="47.33069" lon="2.8141">
        <ele>257.20001220703</ele>
        <time>2019-10-12T12:55:48Z</time>
      </trkpt>
      <trkpt lat="47.33073" lon="2.81418">
        <ele>257</ele>
        <time>2019-10-12T12:55:53Z</time>
      </trkpt>
      <trkpt lat="47.33077" lon="2.81424">
        <ele>256.79998779297</ele>
        <time>2019-10-12T12:55:58Z</time>
      </trkpt>
      <trkpt lat="47.33081" lon="2.8143">
        <ele>256.60000610352</ele>
        <time>2019-10-12T12:56:03Z</time>
      </trkpt>
      <trkpt lat="47.33085" lon="2.81437">
        <ele>256.60000610352</ele>
        <time>2019-10-12T12:56:08Z</time>
      </trkpt>
      <trkpt lat="47.33089" lon="2.81443">
        <ele>256.39999389648</ele>
        <time>2019-10-12T12:56:13Z</time>
      </trkpt>
      <trkpt lat="47.33093" lon="2.81449">
        <ele>256.39999389648</ele>
        <time>2019-10-12T12:56:18Z</time>
      </trkpt>
      <trkpt lat="47.33097" lon="2.81455">
        <ele>256.20001220703</ele>
        <time>2019-10-12T12:56:23Z</time>
      </trkpt>
      <trkpt lat="47.33101" lon="2.81461">
        <ele>256</ele>
        <time>2019-10-12T12:56:28Z</time>
      </trkpt>
      <trkpt lat="47.33105" lon="2.81467">
        <ele>256</ele>
        <time>2019-10-12T12:56:33Z</time>
      </trkpt>
      <trkpt lat="47.33109" lon="2.81472">
        <ele>256</ele>
        <time>2019-10-12T12:56:37Z</time>
      </trkpt>
      <trkpt lat="47.33113" lon="2.8148">
        <ele>255.80000305176</ele>
        <time>2019-10-12T12:56:43Z</time>
      </trkpt>
      <trkpt lat="47.33116" lon="2.81486">
        <ele>255.60000610352</ele>
        <time>2019-10-12T12:56:48Z</time>
      </trkpt>
      <trkpt lat="47.33119" lon="2.81493">
        <ele>255.39999389648</ele>
        <time>2019-10-12T12:56:53Z</time>
      </trkpt>
      <trkpt lat="47.33124" lon="2.815">
        <ele>255.19999694824</ele>
        <time>2019-10-12T12:56:59Z</time>
      </trkpt>
      <trkpt lat="47.33128" lon="2.81509">
        <ele>254.80000305176</ele>
        <time>2019-10-12T12:57:05Z</time>
      </trkpt>
      <trkpt lat="47.33132" lon="2.81517">
        <ele>254.60000610352</ele>
        <time>2019-10-12T12:57:11Z</time>
      </trkpt>
      <trkpt lat="47.33135" lon="2.81523">
        <ele>254.39999389648</ele>
        <time>2019-10-12T12:57:16Z</time>
      </trkpt>
      <trkpt lat="47.33138" lon="2.81528">
        <ele>254.19999694824</ele>
        <time>2019-10-12T12:57:20Z</time>
      </trkpt>
      <trkpt lat="47.33143" lon="2.81536">
        <ele>253.80000305176</ele>
        <time>2019-10-12T12:57:26Z</time>
      </trkpt>
      <trkpt lat="47.33146" lon="2.81543">
        <ele>253.80000305176</ele>
        <time>2019-10-12T12:57:31Z</time>
      </trkpt>
      <trkpt lat="47.33151" lon="2.81551">
        <ele>253.19999694824</ele>
        <time>2019-10-12T12:57:37Z</time>
      </trkpt>
      <trkpt lat="47.33155" lon="2.81558">
        <ele>253.19999694824</ele>
        <time>2019-10-12T12:57:42Z</time>
      </trkpt>
      <trkpt lat="47.3316" lon="2.81563">
        <ele>253</ele>
        <time>2019-10-12T12:57:47Z</time>
      </trkpt>
      <trkpt lat="47.33164" lon="2.8157">
        <ele>252.80000305176</ele>
        <time>2019-10-12T12:57:52Z</time>
      </trkpt>
      <trkpt lat="47.33168" lon="2.81576">
        <ele>252.60000610352</ele>
        <time>2019-10-12T12:57:57Z</time>
      </trkpt>
      <trkpt lat="47.33174" lon="2.81582">
        <ele>252.39999389648</ele>
        <time>2019-10-12T12:58:02Z</time>
      </trkpt>
      <trkpt lat="47.33179" lon="2.81588">
        <ele>252.19999694824</ele>
        <time>2019-10-12T12:58:07Z</time>
      </trkpt>
      <trkpt lat="47.33184" lon="2.81593">
        <ele>251.80000305176</ele>
        <time>2019-10-12T12:58:12Z</time>
      </trkpt>
      <trkpt lat="47.33189" lon="2.81599">
        <ele>251.60000610352</ele>
        <time>2019-10-12T12:58:17Z</time>
      </trkpt>
      <trkpt lat="47.33195" lon="2.81604">
        <ele>251.19999694824</ele>
        <time>2019-10-12T12:58:22Z</time>
      </trkpt>
      <trkpt lat="47.332" lon="2.81611">
        <ele>250.80000305176</ele>
        <time>2019-10-12T12:58:27Z</time>
      </trkpt>
      <trkpt lat="47.33205" lon="2.81617">
        <ele>250.60000610352</ele>
        <time>2019-10-12T12:58:32Z</time>
      </trkpt>
      <trkpt lat="47.33209" lon="2.81622">
        <ele>250.60000610352</ele>
        <time>2019-10-12T12:58:37Z</time>
      </trkpt>
      <trkpt lat="47.33214" lon="2.81627">
        <ele>250.39999389648</ele>
        <time>2019-10-12T12:58:42Z</time>
      </trkpt>
      <trkpt lat="47.33219" lon="2.81633">
        <ele>249.80000305176</ele>
        <time>2019-10-12T12:58:47Z</time>
      </trkpt>
      <trkpt lat="47.33222" lon="2.8164">
        <ele>249.60000610352</ele>
        <time>2019-10-12T12:58:52Z</time>
      </trkpt>
      <trkpt lat="47.33226" lon="2.81646">
        <ele>249.60000610352</ele>
        <time>2019-10-12T12:58:57Z</time>
      </trkpt>
      <trkpt lat="47.3323" lon="2.81653">
        <ele>249.39999389648</ele>
        <time>2019-10-12T12:59:02Z</time>
      </trkpt>
      <trkpt lat="47.33234" lon="2.81659">
        <ele>248.80000305176</ele>
        <time>2019-10-12T12:59:07Z</time>
      </trkpt>
      <trkpt lat="47.33239" lon="2.81665">
        <ele>248.39999389648</ele>
        <time>2019-10-12T12:59:12Z</time>
      </trkpt>
      <trkpt lat="47.33244" lon="2.81673">
        <ele>248.19999694824</ele>
        <time>2019-10-12T12:59:18Z</time>
      </trkpt>
      <trkpt lat="47.33247" lon="2.81679">
        <ele>248</ele>
        <time>2019-10-12T12:59:23Z</time>
      </trkpt>
      <trkpt lat="47.33252" lon="2.81685">
        <ele>247.80000305176</ele>
        <time>2019-10-12T12:59:28Z</time>
      </trkpt>
      <trkpt lat="47.33256" lon="2.8169">
        <ele>247.39999389648</ele>
        <time>2019-10-12T12:59:33Z</time>
      </trkpt>
      <trkpt lat="47.33261" lon="2.81696">
        <ele>247.39999389648</ele>
        <time>2019-10-12T12:59:38Z</time>
      </trkpt>
      <trkpt lat="47.33266" lon="2.81701">
        <ele>247.19999694824</ele>
        <time>2019-10-12T12:59:43Z</time>
      </trkpt>
      <trkpt lat="47.33271" lon="2.81707">
        <ele>247</ele>
        <time>2019-10-12T12:59:48Z</time>
      </trkpt>
      <trkpt lat="47.33275" lon="2.81713">
        <ele>246.80000305176</ele>
        <time>2019-10-12T12:59:53Z</time>
      </trkpt>
      <trkpt lat="47.3328" lon="2.81719">
        <ele>246.60000610352</ele>
        <time>2019-10-12T12:59:58Z</time>
      </trkpt>
      <trkpt lat="47.33285" lon="2.81725">
        <ele>246.39999389648</ele>
        <time>2019-10-12T13:00:04Z</time>
      </trkpt>
      <trkpt lat="47.33289" lon="2.8173">
        <ele>246</ele>
        <time>2019-10-12T13:00:09Z</time>
      </trkpt>
      <trkpt lat="47.33294" lon="2.81737">
        <ele>245.80000305176</ele>
        <time>2019-10-12T13:00:14Z</time>
      </trkpt>
      <trkpt lat="47.33298" lon="2.81743">
        <ele>245.60000610352</ele>
        <time>2019-10-12T13:00:19Z</time>
      </trkpt>
      <trkpt lat="47.33302" lon="2.81752">
        <ele>245</ele>
        <time>2019-10-12T13:00:24Z</time>
      </trkpt>
      <trkpt lat="47.33304" lon="2.81759">
        <ele>244.39999389648</ele>
        <time>2019-10-12T13:00:29Z</time>
      </trkpt>
      <trkpt lat="47.33306" lon="2.81766">
        <ele>243.39999389648</ele>
        <time>2019-10-12T13:00:34Z</time>
      </trkpt>
      <trkpt lat="47.33309" lon="2.81773">
        <ele>242.80000305176</ele>
        <time>2019-10-12T13:00:39Z</time>
      </trkpt>
      <trkpt lat="47.33312" lon="2.8178">
        <ele>242.19999694824</ele>
        <time>2019-10-12T13:00:44Z</time>
      </trkpt>
      <trkpt lat="47.33314" lon="2.81786">
        <ele>242</ele>
        <time>2019-10-12T13:00:49Z</time>
      </trkpt>
      <trkpt lat="47.33318" lon="2.81793">
        <ele>241.39999389648</ele>
        <time>2019-10-12T13:00:54Z</time>
      </trkpt>
      <trkpt lat="47.33321" lon="2.81799">
        <ele>241</ele>
        <time>2019-10-12T13:00:59Z</time>
      </trkpt>
      <trkpt lat="47.33325" lon="2.81805">
        <ele>240.80000305176</ele>
        <time>2019-10-12T13:01:04Z</time>
      </trkpt>
      <trkpt lat="47.33329" lon="2.8181">
        <ele>240.60000610352</ele>
        <time>2019-10-12T13:01:09Z</time>
      </trkpt>
      <trkpt lat="47.33333" lon="2.81815">
        <ele>240.39999389648</ele>
        <time>2019-10-12T13:01:14Z</time>
      </trkpt>
      <trkpt lat="47.33338" lon="2.81821">
        <ele>240</ele>
        <time>2019-10-12T13:01:20Z</time>
      </trkpt>
      <trkpt lat="47.33342" lon="2.81827">
        <ele>239.39999389648</ele>
        <time>2019-10-12T13:01:25Z</time>
      </trkpt>
      <trkpt lat="47.33346" lon="2.81834">
        <ele>238.60000610352</ele>
        <time>2019-10-12T13:01:30Z</time>
      </trkpt>
      <trkpt lat="47.33349" lon="2.81841">
        <ele>237.60000610352</ele>
        <time>2019-10-12T13:01:35Z</time>
      </trkpt>
      <trkpt lat="47.33351" lon="2.81848">
        <ele>237</ele>
        <time>2019-10-12T13:01:40Z</time>
      </trkpt>
      <trkpt lat="47.33353" lon="2.81854">
        <ele>236.39999389648</ele>
        <time>2019-10-12T13:01:45Z</time>
      </trkpt>
      <trkpt lat="47.33357" lon="2.81861">
        <ele>236</ele>
        <time>2019-10-12T13:01:50Z</time>
      </trkpt>
      <trkpt lat="47.3336" lon="2.81868">
        <ele>235.39999389648</ele>
        <time>2019-10-12T13:01:55Z</time>
      </trkpt>
      <trkpt lat="47.33364" lon="2.81877">
        <ele>235</ele>
        <time>2019-10-12T13:02:00Z</time>
      </trkpt>
      <trkpt lat="47.33367" lon="2.81884">
        <ele>234.60000610352</ele>
        <time>2019-10-12T13:02:05Z</time>
      </trkpt>
      <trkpt lat="47.33369" lon="2.81891">
        <ele>234</ele>
        <time>2019-10-12T13:02:10Z</time>
      </trkpt>
      <trkpt lat="47.33372" lon="2.81898">
        <ele>233.19999694824</ele>
        <time>2019-10-12T13:02:15Z</time>
      </trkpt>
      <trkpt lat="47.33375" lon="2.81905">
        <ele>232.39999389648</ele>
        <time>2019-10-12T13:02:20Z</time>
      </trkpt>
      <trkpt lat="47.33377" lon="2.81912">
        <ele>232</ele>
        <time>2019-10-12T13:02:25Z</time>
      </trkpt>
      <trkpt lat="47.33379" lon="2.81921">
        <ele>231.60000610352</ele>
        <time>2019-10-12T13:02:30Z</time>
      </trkpt>
      <trkpt lat="47.33381" lon="2.81928">
        <ele>231</ele>
        <time>2019-10-12T13:02:35Z</time>
      </trkpt>
      <trkpt lat="47.33384" lon="2.81936">
        <ele>230.19999694824</ele>
        <time>2019-10-12T13:02:40Z</time>
      </trkpt>
      <trkpt lat="47.33385" lon="2.81943">
        <ele>229.60000610352</ele>
        <time>2019-10-12T13:02:45Z</time>
      </trkpt>
      <trkpt lat="47.33388" lon="2.8195">
        <ele>228.80000305176</ele>
        <time>2019-10-12T13:02:50Z</time>
      </trkpt>
      <trkpt lat="47.33391" lon="2.81958">
        <ele>228</ele>
        <time>2019-10-12T13:02:55Z</time>
      </trkpt>
      <trkpt lat="47.33393" lon="2.81965">
        <ele>227.39999389648</ele>
        <time>2019-10-12T13:03:00Z</time>
      </trkpt>
      <trkpt lat="47.33395" lon="2.81971">
        <ele>226.80000305176</ele>
        <time>2019-10-12T13:03:05Z</time>
      </trkpt>
      <trkpt lat="47.33398" lon="2.81977">
        <ele>226.39999389648</ele>
        <time>2019-10-12T13:03:10Z</time>
      </trkpt>
      <trkpt lat="47.33402" lon="2.81984">
        <ele>225.60000610352</ele>
        <time>2019-10-12T13:03:15Z</time>
      </trkpt>
      <trkpt lat="47.33406" lon="2.81989">
        <ele>224.80000305176</ele>
        <time>2019-10-12T13:03:20Z</time>
      </trkpt>
      <trkpt lat="47.3341" lon="2.81995">
        <ele>224.39999389648</ele>
        <time>2019-10-12T13:03:25Z</time>
      </trkpt>
      <trkpt lat="47.33413" lon="2.82004">
        <ele>223.80000305176</ele>
        <time>2019-10-12T13:03:30Z</time>
      </trkpt>
      <trkpt lat="47.33415" lon="2.82011">
        <ele>223.39999389648</ele>
        <time>2019-10-12T13:03:35Z</time>
      </trkpt>
      <trkpt lat="47.33417" lon="2.82018">
        <ele>222.80000305176</ele>
        <time>2019-10-12T13:03:40Z</time>
      </trkpt>
      <trkpt lat="47.33419" lon="2.82026">
        <ele>222</ele>
        <time>2019-10-12T13:03:45Z</time>
      </trkpt>
      <trkpt lat="47.33422" lon="2.82033">
        <ele>221.39999389648</ele>
        <time>2019-10-12T13:03:50Z</time>
      </trkpt>
      <trkpt lat="47.33424" lon="2.82041">
        <ele>220.60000610352</ele>
        <time>2019-10-12T13:03:55Z</time>
      </trkpt>
      <trkpt lat="47.33426" lon="2.82048">
        <ele>220.19999694824</ele>
        <time>2019-10-12T13:04:00Z</time>
      </trkpt>
      <trkpt lat="47.33428" lon="2.82055">
        <ele>219.60000610352</ele>
        <time>2019-10-12T13:04:05Z</time>
      </trkpt>
      <trkpt lat="47.33431" lon="2.82061">
        <ele>218.39999389648</ele>
        <time>2019-10-12T13:04:10Z</time>
      </trkpt>
      <trkpt lat="47.33434" lon="2.82069">
        <ele>217.60000610352</ele>
        <time>2019-10-12T13:04:15Z</time>
      </trkpt>
      <trkpt lat="47.33438" lon="2.82077">
        <ele>217</ele>
        <time>2019-10-12T13:04:20Z</time>
      </trkpt>
      <trkpt lat="47.3344" lon="2.82083">
        <ele>216</ele>
        <time>2019-10-12T13:04:25Z</time>
      </trkpt>
      <trkpt lat="47.33442" lon="2.8209">
        <ele>215</ele>
        <time>2019-10-12T13:04:30Z</time>
      </trkpt>
      <trkpt lat="47.33446" lon="2.82097">
        <ele>213.80000305176</ele>
        <time>2019-10-12T13:04:35Z</time>
      </trkpt>
      <trkpt lat="47.3345" lon="2.82104">
        <ele>213.19999694824</ele>
        <time>2019-10-12T13:04:40Z</time>
      </trkpt>
      <trkpt lat="47.33454" lon="2.8211">
        <ele>212.39999389648</ele>
        <time>2019-10-12T13:04:45Z</time>
      </trkpt>
      <trkpt lat="47.33457" lon="2.82113">
        <ele>211.60000610352</ele>
        <time>2019-10-12T13:04:50Z</time>
      </trkpt>
      <trkpt lat="47.3346" lon="2.82118">
        <ele>210.80000305176</ele>
        <time>2019-10-12T13:04:55Z</time>
      </trkpt>
      <trkpt lat="47.33463" lon="2.82124">
        <ele>210</ele>
        <time>2019-10-12T13:05:00Z</time>
      </trkpt>
      <trkpt lat="47.33468" lon="2.82127">
        <ele>209</ele>
        <time>2019-10-12T13:05:05Z</time>
      </trkpt>
      <trkpt lat="47.33471" lon="2.82132">
        <ele>207.80000305176</ele>
        <time>2019-10-12T13:05:10Z</time>
      </trkpt>
      <trkpt lat="47.33474" lon="2.82137">
        <ele>206.60000610352</ele>
        <time>2019-10-12T13:05:15Z</time>
      </trkpt>
      <trkpt lat="47.33478" lon="2.82143">
        <ele>205.19999694824</ele>
        <time>2019-10-12T13:05:20Z</time>
      </trkpt>
      <trkpt lat="47.33481" lon="2.82148">
        <ele>204.19999694824</ele>
        <time>2019-10-12T13:05:25Z</time>
      </trkpt>
      <trkpt lat="47.33484" lon="2.82152">
        <ele>203.19999694824</ele>
        <time>2019-10-12T13:05:30Z</time>
      </trkpt>
      <trkpt lat="47.33488" lon="2.82157">
        <ele>202.60000610352</ele>
        <time>2019-10-12T13:05:35Z</time>
      </trkpt>
      <trkpt lat="47.33492" lon="2.82164">
        <ele>201.60000610352</ele>
        <time>2019-10-12T13:05:40Z</time>
      </trkpt>
      <trkpt lat="47.33496" lon="2.82169">
        <ele>200.60000610352</ele>
        <time>2019-10-12T13:05:45Z</time>
      </trkpt>
      <trkpt lat="47.33499" lon="2.82175">
        <ele>199.39999389648</ele>
        <time>2019-10-12T13:05:50Z</time>
      </trkpt>
      <trkpt lat="47.33501" lon="2.82181">
        <ele>198.60000610352</ele>
        <time>2019-10-12T13:05:55Z</time>
      </trkpt>
      <trkpt lat="47.33502" lon="2.82186">
        <ele>198</ele>
        <time>2019-10-12T13:06:00Z</time>
      </trkpt>
      <trkpt lat="47.33503" lon="2.82191">
        <ele>197.80000305176</ele>
        <time>2019-10-12T13:06:05Z</time>
      </trkpt>
      <trkpt lat="47.33503" lon="2.82194">
        <ele>197.39999389648</ele>
        <time>2019-10-12T13:06:10Z</time>
      </trkpt>
      <trkpt lat="47.33504" lon="2.82194">
        <ele>197.39999389648</ele>
        <time>2019-10-12T13:06:15Z</time>
      </trkpt>
      <trkpt lat="47.33503" lon="2.82197">
        <ele>197.19999694824</ele>
        <time>2019-10-12T13:06:20Z</time>
      </trkpt>
      <trkpt lat="47.33502" lon="2.82198">
        <ele>197.19999694824</ele>
        <time>2019-10-12T13:06:25Z</time>
      </trkpt>
      <trkpt lat="47.33502" lon="2.822">
        <ele>197.39999389648</ele>
        <time>2019-10-12T13:06:30Z</time>
      </trkpt>
      <trkpt lat="47.33503" lon="2.822">
        <ele>197.39999389648</ele>
        <time>2019-10-12T13:06:35Z</time>
      </trkpt>
      <trkpt lat="47.33505" lon="2.82199">
        <ele>197.60000610352</ele>
        <time>2019-10-12T13:06:40Z</time>
      </trkpt>
      <trkpt lat="47.33505" lon="2.82199">
        <ele>197.39999389648</ele>
        <time>2019-10-12T13:06:45Z</time>
      </trkpt>
      <trkpt lat="47.33504" lon="2.822">
        <ele>197.39999389648</ele>
        <time>2019-10-12T13:06:50Z</time>
      </trkpt>
      <trkpt lat="47.33505" lon="2.82199">
        <ele>197.19999694824</ele>
        <time>2019-10-12T13:06:55Z</time>
      </trkpt>
      <trkpt lat="47.33506" lon="2.82198">
        <ele>198</ele>
        <time>2019-10-12T13:07:00Z</time>
      </trkpt>
      <trkpt lat="47.33506" lon="2.82199">
        <ele>198</ele>
        <time>2019-10-12T13:07:05Z</time>
      </trkpt>
      <trkpt lat="47.33505" lon="2.82199">
        <ele>198</ele>
        <time>2019-10-12T13:07:10Z</time>
      </trkpt>
      <trkpt lat="47.33506" lon="2.82199">
        <ele>198</ele>
        <time>2019-10-12T13:07:15Z</time>
      </trkpt>
      <trkpt lat="47.33506" lon="2.82199">
        <ele>198</ele>
        <time>2019-10-12T13:07:20Z</time>
      </trkpt>
      <trkpt lat="47.33506" lon="2.82199">
        <ele>198</ele>
        <time>2019-10-12T13:07:25Z</time>
      </trkpt>
      <trkpt lat="47.33506" lon="2.82199">
        <ele>198</ele>
        <time>2019-10-12T13:07:30Z</time>
      </trkpt>
      <trkpt lat="47.33506" lon="2.822">
        <ele>198</ele>
        <time>2019-10-12T13:07:35Z</time>
      </trkpt>
      <trkpt lat="47.33504" lon="2.822">
        <ele>198</ele>
        <time>2019-10-12T13:07:40Z</time>
      </trkpt>
      <trkpt lat="47.33503" lon="2.822">
        <ele>198</ele>
        <time>2019-10-12T13:07:45Z</time>
      </trkpt>
      <trkpt lat="47.33503" lon="2.822">
        <ele>198</ele>
        <time>2019-10-12T13:07:50Z</time>
      </trkpt>
      <trkpt lat="47.33503" lon="2.82199">
        <ele>198</ele>
        <time>2019-10-12T13:07:55Z</time>
      </trkpt>
      <trkpt lat="47.33503" lon="2.822">
        <ele>198</ele>
        <time>2019-10-12T13:08:00Z</time>
      </trkpt>
      <trkpt lat="47.33503" lon="2.82199">
        <ele>198</ele>
        <time>2019-10-12T13:08:05Z</time>
      </trkpt>
      <trkpt lat="47.33503" lon="2.82199">
        <ele>198</ele>
        <time>2019-10-12T13:08:10Z</time>
      </trkpt>
      <trkpt lat="47.33503" lon="2.82198">
        <ele>198</ele>
        <time>2019-10-12T13:08:15Z</time>
      </trkpt>
      <trkpt lat="47.33505" lon="2.82197">
        <ele>198</ele>
        <time>2019-10-12T13:08:20Z</time>
      </trkpt>
      <trkpt lat="47.33505" lon="2.82196">
        <ele>198</ele>
        <time>2019-10-12T13:08:25Z</time>
      </trkpt>
      <trkpt lat="47.33505" lon="2.82197">
        <ele>198</ele>
        <time>2019-10-12T13:08:30Z</time>
      </trkpt>
      <trkpt lat="47.33505" lon="2.82195">
        <ele>198</ele>
        <time>2019-10-12T13:08:35Z</time>
      </trkpt>
      <trkpt lat="47.33504" lon="2.82189">
        <ele>198</ele>
        <time>2019-10-12T13:08:40Z</time>
      </trkpt>
      <trkpt lat="47.33505" lon="2.82184">
        <ele>198</ele>
        <time>2019-10-12T13:08:45Z</time>
      </trkpt>
      <trkpt lat="47.33504" lon="2.82181">
        <ele>198</ele>
        <time>2019-10-12T13:08:50Z</time>
      </trkpt>
      <trkpt lat="47.33505" lon="2.82181">
        <ele>198</ele>
        <time>2019-10-12T13:08:55Z</time>
      </trkpt>
      <trkpt lat="47.33506" lon="2.8218">
        <ele>198</ele>
        <time>2019-10-12T13:09:00Z</time>
      </trkpt>
      <trkpt lat="47.33505" lon="2.82182">
        <ele>198</ele>
        <time>2019-10-12T13:09:05Z</time>
      </trkpt>
      <trkpt lat="47.33505" lon="2.82184">
        <ele>198</ele>
        <time>2019-10-12T13:09:10Z</time>
      </trkpt>
      <trkpt lat="47.33505" lon="2.82186">
        <ele>198</ele>
        <time>2019-10-12T13:09:15Z</time>
      </trkpt>
      <trkpt lat="47.33504" lon="2.82191">
        <ele>198</ele>
        <time>2019-10-12T13:09:20Z</time>
      </trkpt>
      <trkpt lat="47.33503" lon="2.82193">
        <ele>197.60000610352</ele>
        <time>2019-10-12T13:09:25Z</time>
      </trkpt>
      <trkpt lat="47.33505" lon="2.82195">
        <ele>197.60000610352</ele>
        <time>2019-10-12T13:09:30Z</time>
      </trkpt>
      <trkpt lat="47.33506" lon="2.82195">
        <ele>197.19999694824</ele>
        <time>2019-10-12T13:09:35Z</time>
      </trkpt>
      <trkpt lat="47.33506" lon="2.82195">
        <ele>197.19999694824</ele>
        <time>2019-10-12T13:09:40Z</time>
      </trkpt>
      <trkpt lat="47.33506" lon="2.82196">
        <ele>197.19999694824</ele>
        <time>2019-10-12T13:09:45Z</time>
      </trkpt>
      <trkpt lat="47.33506" lon="2.82197">
        <ele>197.19999694824</ele>
        <time>2019-10-12T13:09:50Z</time>
      </trkpt>
      <trkpt lat="47.33506" lon="2.82198">
        <ele>197.19999694824</ele>
        <time>2019-10-12T13:09:55Z</time>
      </trkpt>
      <trkpt lat="47.33506" lon="2.82198">
        <ele>197.60000610352</ele>
        <time>2019-10-12T13:10:00Z</time>
      </trkpt>
      <trkpt lat="47.33506" lon="2.82198">
        <ele>197.60000610352</ele>
        <time>2019-10-12T13:10:05Z</time>
      </trkpt>
      <trkpt lat="47.33505" lon="2.82198">
        <ele>197.60000610352</ele>
        <time>2019-10-12T13:10:10Z</time>
      </trkpt>
      <trkpt lat="47.33506" lon="2.82199">
        <ele>197.80000305176</ele>
        <time>2019-10-12T13:10:14Z</time>
      </trkpt>
      <trkpt lat="47.33505" lon="2.82199">
        <ele>197.80000305176</ele>
        <time>2019-10-12T13:10:20Z</time>
      </trkpt>
      <trkpt lat="47.33505" lon="2.82199">
        <ele>197.80000305176</ele>
        <time>2019-10-12T13:10:25Z</time>
      </trkpt>
      <trkpt lat="47.33505" lon="2.82199">
        <ele>197.80000305176</ele>
        <time>2019-10-12T13:10:30Z</time>
      </trkpt>
      <trkpt lat="47.33505" lon="2.822">
        <ele>197.80000305176</ele>
        <time>2019-10-12T13:10:35Z</time>
      </trkpt>
      <trkpt lat="47.33505" lon="2.822">
        <ele>197.80000305176</ele>
        <time>2019-10-12T13:10:40Z</time>
      </trkpt>
      <trkpt lat="47.33505" lon="2.822">
        <ele>197.80000305176</ele>
        <time>2019-10-12T13:10:44Z</time>
      </trkpt>
      <trkpt lat="47.33505" lon="2.82201">
        <ele>197.80000305176</ele>
        <time>2019-10-12T13:10:50Z</time>
      </trkpt>
      <trkpt lat="47.33505" lon="2.82201">
        <ele>197.80000305176</ele>
        <time>2019-10-12T13:10:55Z</time>
      </trkpt>
      <trkpt lat="47.33505" lon="2.82201">
        <ele>197.80000305176</ele>
        <time>2019-10-12T13:11:00Z</time>
      </trkpt>
      <trkpt lat="47.33505" lon="2.82201">
        <ele>197.80000305176</ele>
        <time>2019-10-12T13:11:05Z</time>
      </trkpt>
      <trkpt lat="47.33505" lon="2.82201">
        <ele>197.80000305176</ele>
        <time>2019-10-12T13:11:10Z</time>
      </trkpt>
      <trkpt lat="47.33505" lon="2.82201">
        <ele>197.80000305176</ele>
        <time>2019-10-12T13:11:15Z</time>
      </trkpt>
      <trkpt lat="47.33504" lon="2.82201">
        <ele>197.80000305176</ele>
        <time>2019-10-12T13:11:20Z</time>
      </trkpt>
      <trkpt lat="47.33504" lon="2.82205">
        <ele>197.80000305176</ele>
        <time>2019-10-12T13:11:25Z</time>
      </trkpt>
      <trkpt lat="47.33501" lon="2.82212">
        <ele>197.60000610352</ele>
        <time>2019-10-12T13:11:30Z</time>
      </trkpt>
      <trkpt lat="47.33501" lon="2.82218">
        <ele>196.39999389648</ele>
        <time>2019-10-12T13:11:35Z</time>
      </trkpt>
      <trkpt lat="47.335" lon="2.82222">
        <ele>196</ele>
        <time>2019-10-12T13:11:40Z</time>
      </trkpt>
      <trkpt lat="47.33498" lon="2.82227">
        <ele>195.19999694824</ele>
        <time>2019-10-12T13:11:45Z</time>
      </trkpt>
      <trkpt lat="47.33496" lon="2.82232">
        <ele>195</ele>
        <time>2019-10-12T13:11:50Z</time>
      </trkpt>
      <trkpt lat="47.33494" lon="2.82239">
        <ele>194.60000610352</ele>
        <time>2019-10-12T13:11:55Z</time>
      </trkpt>
      <trkpt lat="47.33491" lon="2.82244">
        <ele>194.19999694824</ele>
        <time>2019-10-12T13:12:00Z</time>
      </trkpt>
      <trkpt lat="47.33491" lon="2.8225">
        <ele>194</ele>
        <time>2019-10-12T13:12:05Z</time>
      </trkpt>
      <trkpt lat="47.33486" lon="2.82257">
        <ele>193.80000305176</ele>
        <time>2019-10-12T13:12:10Z</time>
      </trkpt>
      <trkpt lat="47.33482" lon="2.82263">
        <ele>193.39999389648</ele>
        <time>2019-10-12T13:12:15Z</time>
      </trkpt>
      <trkpt lat="47.33477" lon="2.8227">
        <ele>193.19999694824</ele>
        <time>2019-10-12T13:12:20Z</time>
      </trkpt>
      <trkpt lat="47.33474" lon="2.82277">
        <ele>192.80000305176</ele>
        <time>2019-10-12T13:12:25Z</time>
      </trkpt>
      <trkpt lat="47.3347" lon="2.82282">
        <ele>192.60000610352</ele>
        <time>2019-10-12T13:12:30Z</time>
      </trkpt>
      <trkpt lat="47.33465" lon="2.82289">
        <ele>192.19999694824</ele>
        <time>2019-10-12T13:12:35Z</time>
      </trkpt>
      <trkpt lat="47.33461" lon="2.82293">
        <ele>191.80000305176</ele>
        <time>2019-10-12T13:12:40Z</time>
      </trkpt>
      <trkpt lat="47.33457" lon="2.823">
        <ele>191</ele>
        <time>2019-10-12T13:12:45Z</time>
      </trkpt>
      <trkpt lat="47.33455" lon="2.82305">
        <ele>190.39999389648</ele>
        <time>2019-10-12T13:12:50Z</time>
      </trkpt>
      <trkpt lat="47.33452" lon="2.82312">
        <ele>190.19999694824</ele>
        <time>2019-10-12T13:12:55Z</time>
      </trkpt>
      <trkpt lat="47.33446" lon="2.82318">
        <ele>190</ele>
        <time>2019-10-12T13:13:00Z</time>
      </trkpt>
      <trkpt lat="47.33442" lon="2.82324">
        <ele>189.60000610352</ele>
        <time>2019-10-12T13:13:05Z</time>
      </trkpt>
      <trkpt lat="47.33438" lon="2.8233">
        <ele>189.19999694824</ele>
        <time>2019-10-12T13:13:10Z</time>
      </trkpt>
      <trkpt lat="47.33434" lon="2.82335">
        <ele>189</ele>
        <time>2019-10-12T13:13:15Z</time>
      </trkpt>
      <trkpt lat="47.33432" lon="2.82339">
        <ele>188.60000610352</ele>
        <time>2019-10-12T13:13:20Z</time>
      </trkpt>
      <trkpt lat="47.33428" lon="2.82344">
        <ele>188.19999694824</ele>
        <time>2019-10-12T13:13:25Z</time>
      </trkpt>
      <trkpt lat="47.33425" lon="2.82349">
        <ele>187.80000305176</ele>
        <time>2019-10-12T13:13:30Z</time>
      </trkpt>
      <trkpt lat="47.33422" lon="2.82355">
        <ele>187.60000610352</ele>
        <time>2019-10-12T13:13:35Z</time>
      </trkpt>
      <trkpt lat="47.33417" lon="2.82362">
        <ele>187.19999694824</ele>
        <time>2019-10-12T13:13:40Z</time>
      </trkpt>
      <trkpt lat="47.33413" lon="2.82368">
        <ele>186.80000305176</ele>
        <time>2019-10-12T13:13:45Z</time>
      </trkpt>
      <trkpt lat="47.33409" lon="2.82375">
        <ele>186.60000610352</ele>
        <time>2019-10-12T13:13:50Z</time>
      </trkpt>
      <trkpt lat="47.33406" lon="2.82382">
        <ele>186.39999389648</ele>
        <time>2019-10-12T13:13:55Z</time>
      </trkpt>
      <trkpt lat="47.33401" lon="2.82387">
        <ele>186.19999694824</ele>
        <time>2019-10-12T13:14:00Z</time>
      </trkpt>
      <trkpt lat="47.33396" lon="2.82391">
        <ele>185.80000305176</ele>
        <time>2019-10-12T13:14:05Z</time>
      </trkpt>
      <trkpt lat="47.33391" lon="2.82397">
        <ele>185.39999389648</ele>
        <time>2019-10-12T13:14:10Z</time>
      </trkpt>
      <trkpt lat="47.33387" lon="2.82405">
        <ele>185.60000610352</ele>
        <time>2019-10-12T13:14:15Z</time>
      </trkpt>
      <trkpt lat="47.33384" lon="2.82411">
        <ele>185.39999389648</ele>
        <time>2019-10-12T13:14:20Z</time>
      </trkpt>
      <trkpt lat="47.33381" lon="2.82416">
        <ele>185.39999389648</ele>
        <time>2019-10-12T13:14:25Z</time>
      </trkpt>
      <trkpt lat="47.33378" lon="2.8242">
        <ele>185.39999389648</ele>
        <time>2019-10-12T13:14:30Z</time>
      </trkpt>
      <trkpt lat="47.33375" lon="2.82426">
        <ele>185.39999389648</ele>
        <time>2019-10-12T13:14:35Z</time>
      </trkpt>
      <trkpt lat="47.3337" lon="2.82431">
        <ele>185.39999389648</ele>
        <time>2019-10-12T13:14:40Z</time>
      </trkpt>
      <trkpt lat="47.33369" lon="2.82435">
        <ele>185.39999389648</ele>
        <time>2019-10-12T13:14:45Z</time>
      </trkpt>
      <trkpt lat="47.33366" lon="2.82439">
        <ele>185.19999694824</ele>
        <time>2019-10-12T13:14:50Z</time>
      </trkpt>
      <trkpt lat="47.33364" lon="2.82442">
        <ele>185.19999694824</ele>
        <time>2019-10-12T13:14:55Z</time>
      </trkpt>
      <trkpt lat="47.33361" lon="2.82447">
        <ele>185.19999694824</ele>
        <time>2019-10-12T13:15:00Z</time>
      </trkpt>
      <trkpt lat="47.33356" lon="2.82451">
        <ele>185.19999694824</ele>
        <time>2019-10-12T13:15:05Z</time>
      </trkpt>
      <trkpt lat="47.33351" lon="2.82456">
        <ele>185.60000610352</ele>
        <time>2019-10-12T13:15:10Z</time>
      </trkpt>
      <trkpt lat="47.33345" lon="2.82462">
        <ele>185.19999694824</ele>
        <time>2019-10-12T13:15:15Z</time>
      </trkpt>
      <trkpt lat="47.33341" lon="2.82467">
        <ele>185.19999694824</ele>
        <time>2019-10-12T13:15:20Z</time>
      </trkpt>
      <trkpt lat="47.33339" lon="2.82472">
        <ele>185</ele>
        <time>2019-10-12T13:15:25Z</time>
      </trkpt>
      <trkpt lat="47.33337" lon="2.82475">
        <ele>184.80000305176</ele>
        <time>2019-10-12T13:15:30Z</time>
      </trkpt>
      <trkpt lat="47.33337" lon="2.82478">
        <ele>184.80000305176</ele>
        <time>2019-10-12T13:15:35Z</time>
      </trkpt>
      <trkpt lat="47.33337" lon="2.82481">
        <ele>185</ele>
        <time>2019-10-12T13:15:40Z</time>
      </trkpt>
      <trkpt lat="47.33337" lon="2.82485">
        <ele>185</ele>
        <time>2019-10-12T13:15:45Z</time>
      </trkpt>
      <trkpt lat="47.33336" lon="2.82484">
        <ele>185</ele>
        <time>2019-10-12T13:15:50Z</time>
      </trkpt>
      <trkpt lat="47.33336" lon="2.82484">
        <ele>184.60000610352</ele>
        <time>2019-10-12T13:15:55Z</time>
      </trkpt>
      <trkpt lat="47.33337" lon="2.82483">
        <ele>184</ele>
        <time>2019-10-12T13:16:00Z</time>
      </trkpt>
      <trkpt lat="47.33337" lon="2.82483">
        <ele>184</ele>
        <time>2019-10-12T13:16:05Z</time>
      </trkpt>
      <trkpt lat="47.33337" lon="2.82482">
        <ele>184.39999389648</ele>
        <time>2019-10-12T13:16:10Z</time>
      </trkpt>
      <trkpt lat="47.33337" lon="2.82481">
        <ele>184.39999389648</ele>
        <time>2019-10-12T13:16:15Z</time>
      </trkpt>
      <trkpt lat="47.33338" lon="2.82478">
        <ele>184.39999389648</ele>
        <time>2019-10-12T13:16:20Z</time>
      </trkpt>
      <trkpt lat="47.33339" lon="2.82478">
        <ele>184.60000610352</ele>
        <time>2019-10-12T13:16:25Z</time>
      </trkpt>
      <trkpt lat="47.33338" lon="2.82478">
        <ele>184.80000305176</ele>
        <time>2019-10-12T13:16:30Z</time>
      </trkpt>
      <trkpt lat="47.33334" lon="2.82481">
        <ele>184.80000305176</ele>
        <time>2019-10-12T13:16:35Z</time>
      </trkpt>
      <trkpt lat="47.3333" lon="2.82487">
        <ele>184.60000610352</ele>
        <time>2019-10-12T13:16:40Z</time>
      </trkpt>
      <trkpt lat="47.33324" lon="2.82493">
        <ele>184.39999389648</ele>
        <time>2019-10-12T13:16:45Z</time>
      </trkpt>
      <trkpt lat="47.33318" lon="2.82502">
        <ele>184.39999389648</ele>
        <time>2019-10-12T13:16:50Z</time>
      </trkpt>
      <trkpt lat="47.33316" lon="2.82508">
        <ele>184.19999694824</ele>
        <time>2019-10-12T13:16:55Z</time>
      </trkpt>
      <trkpt lat="47.33311" lon="2.82515">
        <ele>184.19999694824</ele>
        <time>2019-10-12T13:17:00Z</time>
      </trkpt>
      <trkpt lat="47.33306" lon="2.82525">
        <ele>184.19999694824</ele>
        <time>2019-10-12T13:17:05Z</time>
      </trkpt>
      <trkpt lat="47.33302" lon="2.82531">
        <ele>184.19999694824</ele>
        <time>2019-10-12T13:17:10Z</time>
      </trkpt>
      <trkpt lat="47.333" lon="2.82537">
        <ele>184</ele>
        <time>2019-10-12T13:17:15Z</time>
      </trkpt>
      <trkpt lat="47.33295" lon="2.82545">
        <ele>183.80000305176</ele>
        <time>2019-10-12T13:17:20Z</time>
      </trkpt>
      <trkpt lat="47.33292" lon="2.8255">
        <ele>184</ele>
        <time>2019-10-12T13:17:25Z</time>
      </trkpt>
      <trkpt lat="47.33287" lon="2.82557">
        <ele>184</ele>
        <time>2019-10-12T13:17:30Z</time>
      </trkpt>
      <trkpt lat="47.33283" lon="2.82564">
        <ele>184</ele>
        <time>2019-10-12T13:17:35Z</time>
      </trkpt>
      <trkpt lat="47.33279" lon="2.82571">
        <ele>183.80000305176</ele>
        <time>2019-10-12T13:17:40Z</time>
      </trkpt>
      <trkpt lat="47.33275" lon="2.82577">
        <ele>183.80000305176</ele>
        <time>2019-10-12T13:17:45Z</time>
      </trkpt>
      <trkpt lat="47.33269" lon="2.82585">
        <ele>183.80000305176</ele>
        <time>2019-10-12T13:17:50Z</time>
      </trkpt>
      <trkpt lat="47.33264" lon="2.82592">
        <ele>183.80000305176</ele>
        <time>2019-10-12T13:17:55Z</time>
      </trkpt>
      <trkpt lat="47.33259" lon="2.82596">
        <ele>184</ele>
        <time>2019-10-12T13:18:00Z</time>
      </trkpt>
      <trkpt lat="47.33255" lon="2.82602">
        <ele>184</ele>
        <time>2019-10-12T13:18:05Z</time>
      </trkpt>
      <trkpt lat="47.33251" lon="2.82608">
        <ele>184</ele>
        <time>2019-10-12T13:18:10Z</time>
      </trkpt>
      <trkpt lat="47.33248" lon="2.82614">
        <ele>184</ele>
        <time>2019-10-12T13:18:15Z</time>
      </trkpt>
      <trkpt lat="47.33245" lon="2.82621">
        <ele>184.19999694824</ele>
        <time>2019-10-12T13:18:20Z</time>
      </trkpt>
      <trkpt lat="47.33241" lon="2.82629">
        <ele>184.39999389648</ele>
        <time>2019-10-12T13:18:25Z</time>
      </trkpt>
      <trkpt lat="47.33238" lon="2.82635">
        <ele>184.39999389648</ele>
        <time>2019-10-12T13:18:30Z</time>
      </trkpt>
      <trkpt lat="47.33232" lon="2.82641">
        <ele>184.60000610352</ele>
        <time>2019-10-12T13:18:35Z</time>
      </trkpt>
      <trkpt lat="47.33227" lon="2.82649">
        <ele>184.60000610352</ele>
        <time>2019-10-12T13:18:40Z</time>
      </trkpt>
      <trkpt lat="47.33223" lon="2.82655">
        <ele>184.80000305176</ele>
        <time>2019-10-12T13:18:45Z</time>
      </trkpt>
      <trkpt lat="47.33221" lon="2.82661">
        <ele>185.39999389648</ele>
        <time>2019-10-12T13:18:50Z</time>
      </trkpt>
      <trkpt lat="47.33218" lon="2.82668">
        <ele>185.60000610352</ele>
        <time>2019-10-12T13:18:55Z</time>
      </trkpt>
      <trkpt lat="47.33213" lon="2.82676">
        <ele>185.80000305176</ele>
        <time>2019-10-12T13:19:00Z</time>
      </trkpt>
      <trkpt lat="47.33209" lon="2.82682">
        <ele>185.80000305176</ele>
        <time>2019-10-12T13:19:05Z</time>
      </trkpt>
      <trkpt lat="47.33205" lon="2.82688">
        <ele>186.19999694824</ele>
        <time>2019-10-12T13:19:10Z</time>
      </trkpt>
      <trkpt lat="47.33201" lon="2.82694">
        <ele>187</ele>
        <time>2019-10-12T13:19:15Z</time>
      </trkpt>
      <trkpt lat="47.33198" lon="2.827">
        <ele>187.60000610352</ele>
        <time>2019-10-12T13:19:20Z</time>
      </trkpt>
      <trkpt lat="47.33194" lon="2.82707">
        <ele>187.80000305176</ele>
        <time>2019-10-12T13:19:25Z</time>
      </trkpt>
      <trkpt lat="47.33191" lon="2.82711">
        <ele>187.39999389648</ele>
        <time>2019-10-12T13:19:30Z</time>
      </trkpt>
      <trkpt lat="47.33188" lon="2.82717">
        <ele>187.39999389648</ele>
        <time>2019-10-12T13:19:35Z</time>
      </trkpt>
      <trkpt lat="47.33185" lon="2.82723">
        <ele>187.80000305176</ele>
        <time>2019-10-12T13:19:40Z</time>
      </trkpt>
      <trkpt lat="47.33181" lon="2.82729">
        <ele>188</ele>
        <time>2019-10-12T13:19:45Z</time>
      </trkpt>
      <trkpt lat="47.33178" lon="2.82735">
        <ele>188.19999694824</ele>
        <time>2019-10-12T13:19:50Z</time>
      </trkpt>
      <trkpt lat="47.33174" lon="2.82743">
        <ele>188.19999694824</ele>
        <time>2019-10-12T13:19:55Z</time>
      </trkpt>
      <trkpt lat="47.3317" lon="2.8275">
        <ele>188.39999389648</ele>
        <time>2019-10-12T13:20:00Z</time>
      </trkpt>
      <trkpt lat="47.33167" lon="2.82756">
        <ele>188.80000305176</ele>
        <time>2019-10-12T13:20:05Z</time>
      </trkpt>
      <trkpt lat="47.33164" lon="2.82761">
        <ele>189.19999694824</ele>
        <time>2019-10-12T13:20:10Z</time>
      </trkpt>
      <trkpt lat="47.3316" lon="2.82768">
        <ele>189.60000610352</ele>
        <time>2019-10-12T13:20:15Z</time>
      </trkpt>
      <trkpt lat="47.33157" lon="2.82774">
        <ele>190</ele>
        <time>2019-10-12T13:20:20Z</time>
      </trkpt>
      <trkpt lat="47.33154" lon="2.82781">
        <ele>190.60000610352</ele>
        <time>2019-10-12T13:20:25Z</time>
      </trkpt>
      <trkpt lat="47.3315" lon="2.82787">
        <ele>191.19999694824</ele>
        <time>2019-10-12T13:20:30Z</time>
      </trkpt>
      <trkpt lat="47.33147" lon="2.82794">
        <ele>191.80000305176</ele>
        <time>2019-10-12T13:20:35Z</time>
      </trkpt>
      <trkpt lat="47.33144" lon="2.82799">
        <ele>192</ele>
        <time>2019-10-12T13:20:40Z</time>
      </trkpt>
      <trkpt lat="47.33142" lon="2.82806">
        <ele>192.39999389648</ele>
        <time>2019-10-12T13:20:45Z</time>
      </trkpt>
      <trkpt lat="47.33139" lon="2.82812">
        <ele>192.80000305176</ele>
        <time>2019-10-12T13:20:50Z</time>
      </trkpt>
      <trkpt lat="47.33136" lon="2.82818">
        <ele>193.19999694824</ele>
        <time>2019-10-12T13:20:55Z</time>
      </trkpt>
      <trkpt lat="47.33137" lon="2.82826">
        <ele>193.60000610352</ele>
        <time>2019-10-12T13:21:00Z</time>
      </trkpt>
      <trkpt lat="47.33137" lon="2.82834">
        <ele>193.80000305176</ele>
        <time>2019-10-12T13:21:05Z</time>
      </trkpt>
      <trkpt lat="47.33137" lon="2.82841">
        <ele>194.19999694824</ele>
        <time>2019-10-12T13:21:10Z</time>
      </trkpt>
      <trkpt lat="47.33136" lon="2.82849">
        <ele>194.39999389648</ele>
        <time>2019-10-12T13:21:15Z</time>
      </trkpt>
      <trkpt lat="47.33136" lon="2.82855">
        <ele>195</ele>
        <time>2019-10-12T13:21:20Z</time>
      </trkpt>
      <trkpt lat="47.33134" lon="2.82862">
        <ele>195.39999389648</ele>
        <time>2019-10-12T13:21:25Z</time>
      </trkpt>
      <trkpt lat="47.33133" lon="2.82869">
        <ele>195.39999389648</ele>
        <time>2019-10-12T13:21:30Z</time>
      </trkpt>
      <trkpt lat="47.33131" lon="2.82877">
        <ele>195.80000305176</ele>
        <time>2019-10-12T13:21:35Z</time>
      </trkpt>
      <trkpt lat="47.33129" lon="2.82885">
        <ele>196.19999694824</ele>
        <time>2019-10-12T13:21:40Z</time>
      </trkpt>
      <trkpt lat="47.33128" lon="2.82892">
        <ele>196.39999389648</ele>
        <time>2019-10-12T13:21:45Z</time>
      </trkpt>
      <trkpt lat="47.33127" lon="2.82899">
        <ele>196.80000305176</ele>
        <time>2019-10-12T13:21:50Z</time>
      </trkpt>
      <trkpt lat="47.33126" lon="2.82906">
        <ele>197.19999694824</ele>
        <time>2019-10-12T13:21:55Z</time>
      </trkpt>
      <trkpt lat="47.33123" lon="2.82913">
        <ele>197.80000305176</ele>
        <time>2019-10-12T13:22:00Z</time>
      </trkpt>
      <trkpt lat="47.33122" lon="2.8292">
        <ele>198.39999389648</ele>
        <time>2019-10-12T13:22:05Z</time>
      </trkpt>
      <trkpt lat="47.3312" lon="2.82927">
        <ele>198.80000305176</ele>
        <time>2019-10-12T13:22:10Z</time>
      </trkpt>
      <trkpt lat="47.33118" lon="2.82934">
        <ele>199.39999389648</ele>
        <time>2019-10-12T13:22:15Z</time>
      </trkpt>
      <trkpt lat="47.33117" lon="2.82941">
        <ele>200</ele>
        <time>2019-10-12T13:22:20Z</time>
      </trkpt>
      <trkpt lat="47.33114" lon="2.82947">
        <ele>200.60000610352</ele>
        <time>2019-10-12T13:22:25Z</time>
      </trkpt>
      <trkpt lat="47.33111" lon="2.82955">
        <ele>201.19999694824</ele>
        <time>2019-10-12T13:22:30Z</time>
      </trkpt>
      <trkpt lat="47.33109" lon="2.82961">
        <ele>202</ele>
        <time>2019-10-12T13:22:35Z</time>
      </trkpt>
      <trkpt lat="47.33105" lon="2.82967">
        <ele>202.60000610352</ele>
        <time>2019-10-12T13:22:40Z</time>
      </trkpt>
      <trkpt lat="47.33102" lon="2.82972">
        <ele>203.39999389648</ele>
        <time>2019-10-12T13:22:45Z</time>
      </trkpt>
      <trkpt lat="47.33098" lon="2.82978">
        <ele>203.80000305176</ele>
        <time>2019-10-12T13:22:50Z</time>
      </trkpt>
      <trkpt lat="47.33096" lon="2.82984">
        <ele>204.19999694824</ele>
        <time>2019-10-12T13:22:55Z</time>
      </trkpt>
      <trkpt lat="47.33092" lon="2.82989">
        <ele>205</ele>
        <time>2019-10-12T13:23:00Z</time>
      </trkpt>
      <trkpt lat="47.3309" lon="2.82994">
        <ele>205.60000610352</ele>
        <time>2019-10-12T13:23:05Z</time>
      </trkpt>
      <trkpt lat="47.33088" lon="2.83">
        <ele>206.39999389648</ele>
        <time>2019-10-12T13:23:10Z</time>
      </trkpt>
      <trkpt lat="47.33086" lon="2.83005">
        <ele>207.60000610352</ele>
        <time>2019-10-12T13:23:15Z</time>
      </trkpt>
      <trkpt lat="47.33084" lon="2.8301">
        <ele>208.60000610352</ele>
        <time>2019-10-12T13:23:20Z</time>
      </trkpt>
      <trkpt lat="47.33082" lon="2.83014">
        <ele>209.39999389648</ele>
        <time>2019-10-12T13:23:25Z</time>
      </trkpt>
      <trkpt lat="47.33081" lon="2.83016">
        <ele>210</ele>
        <time>2019-10-12T13:23:30Z</time>
      </trkpt>
      <trkpt lat="47.33079" lon="2.83019">
        <ele>210.19999694824</ele>
        <time>2019-10-12T13:23:35Z</time>
      </trkpt>
      <trkpt lat="47.33077" lon="2.83024">
        <ele>210.60000610352</ele>
        <time>2019-10-12T13:23:40Z</time>
      </trkpt>
      <trkpt lat="47.33075" lon="2.83027">
        <ele>211.19999694824</ele>
        <time>2019-10-12T13:23:45Z</time>
      </trkpt>
      <trkpt lat="47.33075" lon="2.83027">
        <ele>211.39999389648</ele>
        <time>2019-10-12T13:23:50Z</time>
      </trkpt>
      <trkpt lat="47.33075" lon="2.83027">
        <ele>211.39999389648</ele>
        <time>2019-10-12T13:23:55Z</time>
      </trkpt>
      <trkpt lat="47.33074" lon="2.83026">
        <ele>211.39999389648</ele>
        <time>2019-10-12T13:24:00Z</time>
      </trkpt>
      <trkpt lat="47.33074" lon="2.83026">
        <ele>211.39999389648</ele>
        <time>2019-10-12T13:24:05Z</time>
      </trkpt>
      <trkpt lat="47.33073" lon="2.83026">
        <ele>211.19999694824</ele>
        <time>2019-10-12T13:24:10Z</time>
      </trkpt>
      <trkpt lat="47.33073" lon="2.83029">
        <ele>211.19999694824</ele>
        <time>2019-10-12T13:24:15Z</time>
      </trkpt>
      <trkpt lat="47.33073" lon="2.8303">
        <ele>211.19999694824</ele>
        <time>2019-10-12T13:24:20Z</time>
      </trkpt>
      <trkpt lat="47.33072" lon="2.8303">
        <ele>211.39999389648</ele>
        <time>2019-10-12T13:24:25Z</time>
      </trkpt>
      <trkpt lat="47.33068" lon="2.8303">
        <ele>211.80000305176</ele>
        <time>2019-10-12T13:24:30Z</time>
      </trkpt>
      <trkpt lat="47.33065" lon="2.83032">
        <ele>212.39999389648</ele>
        <time>2019-10-12T13:24:35Z</time>
      </trkpt>
      <trkpt lat="47.33061" lon="2.83035">
        <ele>213.39999389648</ele>
        <time>2019-10-12T13:24:40Z</time>
      </trkpt>
      <trkpt lat="47.33061" lon="2.83037">
        <ele>213.39999389648</ele>
        <time>2019-10-12T13:24:45Z</time>
      </trkpt>
      <trkpt lat="47.33061" lon="2.83041">
        <ele>213.39999389648</ele>
        <time>2019-10-12T13:24:50Z</time>
      </trkpt>
      <trkpt lat="47.3306" lon="2.83041">
        <ele>213.19999694824</ele>
        <time>2019-10-12T13:24:55Z</time>
      </trkpt>
      <trkpt lat="47.3306" lon="2.83041">
        <ele>213.19999694824</ele>
        <time>2019-10-12T13:25:00Z</time>
      </trkpt>
      <trkpt lat="47.3306" lon="2.83041">
        <ele>213</ele>
        <time>2019-10-12T13:25:05Z</time>
      </trkpt>
      <trkpt lat="47.33061" lon="2.83042">
        <ele>213</ele>
        <time>2019-10-12T13:25:10Z</time>
      </trkpt>
      <trkpt lat="47.33061" lon="2.83042">
        <ele>213.19999694824</ele>
        <time>2019-10-12T13:25:15Z</time>
      </trkpt>
      <trkpt lat="47.33061" lon="2.83041">
        <ele>213.19999694824</ele>
        <time>2019-10-12T13:25:20Z</time>
      </trkpt>
      <trkpt lat="47.33061" lon="2.83041">
        <ele>213.19999694824</ele>
        <time>2019-10-12T13:25:25Z</time>
      </trkpt>
      <trkpt lat="47.33061" lon="2.8304">
        <ele>213.19999694824</ele>
        <time>2019-10-12T13:25:30Z</time>
      </trkpt>
      <trkpt lat="47.33061" lon="2.8304">
        <ele>213.39999389648</ele>
        <time>2019-10-12T13:25:35Z</time>
      </trkpt>
      <trkpt lat="47.33061" lon="2.83039">
        <ele>213.39999389648</ele>
        <time>2019-10-12T13:25:40Z</time>
      </trkpt>
      <trkpt lat="47.33061" lon="2.8304">
        <ele>213.19999694824</ele>
        <time>2019-10-12T13:25:45Z</time>
      </trkpt>
      <trkpt lat="47.33062" lon="2.83039">
        <ele>213.19999694824</ele>
        <time>2019-10-12T13:25:50Z</time>
      </trkpt>
      <trkpt lat="47.33062" lon="2.83039">
        <ele>213.19999694824</ele>
        <time>2019-10-12T13:25:55Z</time>
      </trkpt>
      <trkpt lat="47.33062" lon="2.83039">
        <ele>213</ele>
        <time>2019-10-12T13:26:00Z</time>
      </trkpt>
      <trkpt lat="47.33062" lon="2.83039">
        <ele>213</ele>
        <time>2019-10-12T13:26:05Z</time>
      </trkpt>
      <trkpt lat="47.33062" lon="2.83039">
        <ele>212.60000610352</ele>
        <time>2019-10-12T13:26:10Z</time>
      </trkpt>
      <trkpt lat="47.3306" lon="2.83042">
        <ele>212.80000305176</ele>
        <time>2019-10-12T13:26:15Z</time>
      </trkpt>
      <trkpt lat="47.33059" lon="2.83048">
        <ele>212.80000305176</ele>
        <time>2019-10-12T13:26:20Z</time>
      </trkpt>
      <trkpt lat="47.3306" lon="2.83052">
        <ele>212.80000305176</ele>
        <time>2019-10-12T13:26:25Z</time>
      </trkpt>
      <trkpt lat="47.33057" lon="2.83054">
        <ele>213.19999694824</ele>
        <time>2019-10-12T13:26:30Z</time>
      </trkpt>
      <trkpt lat="47.33057" lon="2.83055">
        <ele>213.19999694824</ele>
        <time>2019-10-12T13:26:35Z</time>
      </trkpt>
      <trkpt lat="47.33057" lon="2.83054">
        <ele>213.19999694824</ele>
        <time>2019-10-12T13:26:40Z</time>
      </trkpt>
      <trkpt lat="47.33057" lon="2.83053">
        <ele>213.19999694824</ele>
        <time>2019-10-12T13:26:45Z</time>
      </trkpt>
      <trkpt lat="47.33057" lon="2.83052">
        <ele>213.19999694824</ele>
        <time>2019-10-12T13:26:50Z</time>
      </trkpt>
      <trkpt lat="47.33056" lon="2.83052">
        <ele>213.19999694824</ele>
        <time>2019-10-12T13:26:55Z</time>
      </trkpt>
      <trkpt lat="47.33056" lon="2.83051">
        <ele>213.19999694824</ele>
        <time>2019-10-12T13:27:00Z</time>
      </trkpt>
      <trkpt lat="47.33055" lon="2.83052">
        <ele>213.19999694824</ele>
        <time>2019-10-12T13:27:05Z</time>
      </trkpt>
      <trkpt lat="47.33056" lon="2.83052">
        <ele>213.19999694824</ele>
        <time>2019-10-12T13:27:10Z</time>
      </trkpt>
      <trkpt lat="47.33056" lon="2.83053">
        <ele>213.19999694824</ele>
        <time>2019-10-12T13:27:15Z</time>
      </trkpt>
      <trkpt lat="47.33056" lon="2.83055">
        <ele>213.19999694824</ele>
        <time>2019-10-12T13:27:20Z</time>
      </trkpt>
      <trkpt lat="47.33056" lon="2.83056">
        <ele>213.19999694824</ele>
        <time>2019-10-12T13:27:25Z</time>
      </trkpt>
      <trkpt lat="47.33056" lon="2.83057">
        <ele>213.19999694824</ele>
        <time>2019-10-12T13:27:30Z</time>
      </trkpt>
      <trkpt lat="47.33057" lon="2.83059">
        <ele>213.19999694824</ele>
        <time>2019-10-12T13:27:35Z</time>
      </trkpt>
      <trkpt lat="47.33057" lon="2.8306">
        <ele>213.19999694824</ele>
        <time>2019-10-12T13:27:40Z</time>
      </trkpt>
      <trkpt lat="47.33057" lon="2.8306">
        <ele>213.19999694824</ele>
        <time>2019-10-12T13:27:45Z</time>
      </trkpt>
      <trkpt lat="47.33057" lon="2.8306">
        <ele>213.19999694824</ele>
        <time>2019-10-12T13:27:50Z</time>
      </trkpt>
      <trkpt lat="47.33057" lon="2.83061">
        <ele>213.19999694824</ele>
        <time>2019-10-12T13:27:55Z</time>
      </trkpt>
      <trkpt lat="47.33058" lon="2.83063">
        <ele>213.19999694824</ele>
        <time>2019-10-12T13:28:00Z</time>
      </trkpt>
      <trkpt lat="47.33058" lon="2.83064">
        <ele>213.19999694824</ele>
        <time>2019-10-12T13:28:05Z</time>
      </trkpt>
      <trkpt lat="47.33058" lon="2.83063">
        <ele>213.19999694824</ele>
        <time>2019-10-12T13:28:10Z</time>
      </trkpt>
      <trkpt lat="47.33057" lon="2.83061">
        <ele>213.19999694824</ele>
        <time>2019-10-12T13:28:15Z</time>
      </trkpt>
      <trkpt lat="47.33055" lon="2.83062">
        <ele>213.19999694824</ele>
        <time>2019-10-12T13:28:20Z</time>
      </trkpt>
      <trkpt lat="47.33054" lon="2.83061">
        <ele>213.19999694824</ele>
        <time>2019-10-12T13:28:25Z</time>
      </trkpt>
      <trkpt lat="47.33054" lon="2.83059">
        <ele>213.19999694824</ele>
        <time>2019-10-12T13:28:30Z</time>
      </trkpt>
      <trkpt lat="47.33057" lon="2.83057">
        <ele>213.19999694824</ele>
        <time>2019-10-12T13:28:35Z</time>
      </trkpt>
      <trkpt lat="47.33057" lon="2.83055">
        <ele>213.19999694824</ele>
        <time>2019-10-12T13:28:40Z</time>
      </trkpt>
      <trkpt lat="47.33058" lon="2.83054">
        <ele>213.19999694824</ele>
        <time>2019-10-12T13:28:45Z</time>
      </trkpt>
      <trkpt lat="47.33058" lon="2.83055">
        <ele>213.19999694824</ele>
        <time>2019-10-12T13:28:50Z</time>
      </trkpt>
      <trkpt lat="47.33058" lon="2.83054">
        <ele>213.19999694824</ele>
        <time>2019-10-12T13:28:55Z</time>
      </trkpt>
      <trkpt lat="47.33059" lon="2.83054">
        <ele>213.19999694824</ele>
        <time>2019-10-12T13:29:00Z</time>
      </trkpt>
      <trkpt lat="47.3306" lon="2.83054">
        <ele>213.19999694824</ele>
        <time>2019-10-12T13:29:05Z</time>
      </trkpt>
      <trkpt lat="47.3306" lon="2.83056">
        <ele>213.19999694824</ele>
        <time>2019-10-12T13:29:10Z</time>
      </trkpt>
      <trkpt lat="47.33059" lon="2.83062">
        <ele>213.19999694824</ele>
        <time>2019-10-12T13:29:15Z</time>
      </trkpt>
      <trkpt lat="47.33058" lon="2.83067">
        <ele>213.39999389648</ele>
        <time>2019-10-12T13:29:20Z</time>
      </trkpt>
      <trkpt lat="47.33056" lon="2.83072">
        <ele>214.60000610352</ele>
        <time>2019-10-12T13:29:25Z</time>
      </trkpt>
      <trkpt lat="47.33054" lon="2.83076">
        <ele>215</ele>
        <time>2019-10-12T13:29:30Z</time>
      </trkpt>
      <trkpt lat="47.33051" lon="2.83081">
        <ele>215.60000610352</ele>
        <time>2019-10-12T13:29:35Z</time>
      </trkpt>
      <trkpt lat="47.33049" lon="2.83085">
        <ele>216</ele>
        <time>2019-10-12T13:29:40Z</time>
      </trkpt>
      <trkpt lat="47.33047" lon="2.8309">
        <ele>216.60000610352</ele>
        <time>2019-10-12T13:29:45Z</time>
      </trkpt>
      <trkpt lat="47.33044" lon="2.83095">
        <ele>217</ele>
        <time>2019-10-12T13:29:50Z</time>
      </trkpt>
      <trkpt lat="47.33042" lon="2.83102">
        <ele>217.39999389648</ele>
        <time>2019-10-12T13:29:55Z</time>
      </trkpt>
      <trkpt lat="47.33041" lon="2.83104">
        <ele>217.80000305176</ele>
        <time>2019-10-12T13:30:00Z</time>
      </trkpt>
      <trkpt lat="47.33039" lon="2.83104">
        <ele>217.80000305176</ele>
        <time>2019-10-12T13:30:05Z</time>
      </trkpt>
      <trkpt lat="47.33036" lon="2.8311">
        <ele>218.19999694824</ele>
        <time>2019-10-12T13:30:10Z</time>
      </trkpt>
      <trkpt lat="47.33034" lon="2.83114">
        <ele>218.80000305176</ele>
        <time>2019-10-12T13:30:15Z</time>
      </trkpt>
      <trkpt lat="47.33033" lon="2.83121">
        <ele>219.19999694824</ele>
        <time>2019-10-12T13:30:20Z</time>
      </trkpt>
      <trkpt lat="47.33034" lon="2.83127">
        <ele>219.80000305176</ele>
        <time>2019-10-12T13:30:25Z</time>
      </trkpt>
      <trkpt lat="47.33031" lon="2.83133">
        <ele>220.39999389648</ele>
        <time>2019-10-12T13:30:30Z</time>
      </trkpt>
      <trkpt lat="47.3303" lon="2.83138">
        <ele>221.19999694824</ele>
        <time>2019-10-12T13:30:35Z</time>
      </trkpt>
      <trkpt lat="47.33029" lon="2.83142">
        <ele>221.60000610352</ele>
        <time>2019-10-12T13:30:40Z</time>
      </trkpt>
      <trkpt lat="47.33026" lon="2.83146">
        <ele>222.19999694824</ele>
        <time>2019-10-12T13:30:45Z</time>
      </trkpt>
      <trkpt lat="47.33024" lon="2.8315">
        <ele>222.60000610352</ele>
        <time>2019-10-12T13:30:50Z</time>
      </trkpt>
      <trkpt lat="47.3302" lon="2.83153">
        <ele>223</ele>
        <time>2019-10-12T13:30:55Z</time>
      </trkpt>
      <trkpt lat="47.33019" lon="2.83157">
        <ele>223.39999389648</ele>
        <time>2019-10-12T13:31:00Z</time>
      </trkpt>
      <trkpt lat="47.33018" lon="2.83161">
        <ele>223.80000305176</ele>
        <time>2019-10-12T13:31:05Z</time>
      </trkpt>
      <trkpt lat="47.33015" lon="2.83165">
        <ele>224.19999694824</ele>
        <time>2019-10-12T13:31:10Z</time>
      </trkpt>
      <trkpt lat="47.33014" lon="2.8317">
        <ele>224.80000305176</ele>
        <time>2019-10-12T13:31:15Z</time>
      </trkpt>
      <trkpt lat="47.33011" lon="2.83175">
        <ele>225.39999389648</ele>
        <time>2019-10-12T13:31:20Z</time>
      </trkpt>
      <trkpt lat="47.33009" lon="2.83177">
        <ele>225.80000305176</ele>
        <time>2019-10-12T13:31:25Z</time>
      </trkpt>
      <trkpt lat="47.33005" lon="2.83182">
        <ele>226.19999694824</ele>
        <time>2019-10-12T13:31:30Z</time>
      </trkpt>
      <trkpt lat="47.33002" lon="2.83186">
        <ele>226.60000610352</ele>
        <time>2019-10-12T13:31:35Z</time>
      </trkpt>
      <trkpt lat="47.32999" lon="2.83192">
        <ele>227.19999694824</ele>
        <time>2019-10-12T13:31:40Z</time>
      </trkpt>
      <trkpt lat="47.32996" lon="2.83197">
        <ele>227.80000305176</ele>
        <time>2019-10-12T13:31:45Z</time>
      </trkpt>
      <trkpt lat="47.32994" lon="2.832">
        <ele>228.39999389648</ele>
        <time>2019-10-12T13:31:50Z</time>
      </trkpt>
      <trkpt lat="47.32995" lon="2.83201">
        <ele>228.80000305176</ele>
        <time>2019-10-12T13:31:55Z</time>
      </trkpt>
      <trkpt lat="47.32994" lon="2.83201">
        <ele>229</ele>
        <time>2019-10-12T13:32:00Z</time>
      </trkpt>
      <trkpt lat="47.32992" lon="2.83203">
        <ele>229.19999694824</ele>
        <time>2019-10-12T13:32:05Z</time>
      </trkpt>
      <trkpt lat="47.32991" lon="2.83208">
        <ele>229.80000305176</ele>
        <time>2019-10-12T13:32:10Z</time>
      </trkpt>
      <trkpt lat="47.3299" lon="2.83214">
        <ele>230.39999389648</ele>
        <time>2019-10-12T13:32:15Z</time>
      </trkpt>
      <trkpt lat="47.32989" lon="2.83221">
        <ele>231.19999694824</ele>
        <time>2019-10-12T13:32:20Z</time>
      </trkpt>
      <trkpt lat="47.32988" lon="2.83226">
        <ele>231.80000305176</ele>
        <time>2019-10-12T13:32:25Z</time>
      </trkpt>
      <trkpt lat="47.32987" lon="2.83231">
        <ele>232.39999389648</ele>
        <time>2019-10-12T13:32:30Z</time>
      </trkpt>
      <trkpt lat="47.32986" lon="2.83235">
        <ele>233.19999694824</ele>
        <time>2019-10-12T13:32:35Z</time>
      </trkpt>
      <trkpt lat="47.32984" lon="2.83239">
        <ele>233.60000610352</ele>
        <time>2019-10-12T13:32:40Z</time>
      </trkpt>
      <trkpt lat="47.32982" lon="2.83243">
        <ele>234.39999389648</ele>
        <time>2019-10-12T13:32:45Z</time>
      </trkpt>
      <trkpt lat="47.3298" lon="2.83248">
        <ele>234.80000305176</ele>
        <time>2019-10-12T13:32:50Z</time>
      </trkpt>
      <trkpt lat="47.32979" lon="2.83253">
        <ele>235.80000305176</ele>
        <time>2019-10-12T13:32:55Z</time>
      </trkpt>
      <trkpt lat="47.32977" lon="2.83258">
        <ele>237</ele>
        <time>2019-10-12T13:33:00Z</time>
      </trkpt>
      <trkpt lat="47.32975" lon="2.83259">
        <ele>237.60000610352</ele>
        <time>2019-10-12T13:33:05Z</time>
      </trkpt>
      <trkpt lat="47.32973" lon="2.83263">
        <ele>238.19999694824</ele>
        <time>2019-10-12T13:33:10Z</time>
      </trkpt>
      <trkpt lat="47.32973" lon="2.83268">
        <ele>239.19999694824</ele>
        <time>2019-10-12T13:33:15Z</time>
      </trkpt>
      <trkpt lat="47.32972" lon="2.83275">
        <ele>240.19999694824</ele>
        <time>2019-10-12T13:33:20Z</time>
      </trkpt>
      <trkpt lat="47.3297" lon="2.83283">
        <ele>241</ele>
        <time>2019-10-12T13:33:25Z</time>
      </trkpt>
      <trkpt lat="47.32968" lon="2.83289">
        <ele>241.60000610352</ele>
        <time>2019-10-12T13:33:30Z</time>
      </trkpt>
      <trkpt lat="47.32967" lon="2.83295">
        <ele>242.60000610352</ele>
        <time>2019-10-12T13:33:35Z</time>
      </trkpt>
      <trkpt lat="47.32967" lon="2.833">
        <ele>243.60000610352</ele>
        <time>2019-10-12T13:33:40Z</time>
      </trkpt>
      <trkpt lat="47.32966" lon="2.83306">
        <ele>244.39999389648</ele>
        <time>2019-10-12T13:33:45Z</time>
      </trkpt>
      <trkpt lat="47.32965" lon="2.83311">
        <ele>245.60000610352</ele>
        <time>2019-10-12T13:33:50Z</time>
      </trkpt>
      <trkpt lat="47.32964" lon="2.83314">
        <ele>246.60000610352</ele>
        <time>2019-10-12T13:33:55Z</time>
      </trkpt>
      <trkpt lat="47.32963" lon="2.83319">
        <ele>247.80000305176</ele>
        <time>2019-10-12T13:34:00Z</time>
      </trkpt>
      <trkpt lat="47.32962" lon="2.83321">
        <ele>248.60000610352</ele>
        <time>2019-10-12T13:34:05Z</time>
      </trkpt>
      <trkpt lat="47.32963" lon="2.8332">
        <ele>249</ele>
        <time>2019-10-12T13:34:10Z</time>
      </trkpt>
      <trkpt lat="47.32963" lon="2.8332">
        <ele>248.80000305176</ele>
        <time>2019-10-12T13:34:15Z</time>
      </trkpt>
      <trkpt lat="47.32966" lon="2.83321">
        <ele>248.39999389648</ele>
        <time>2019-10-12T13:34:20Z</time>
      </trkpt>
      <trkpt lat="47.32969" lon="2.83323">
        <ele>248</ele>
        <time>2019-10-12T13:34:25Z</time>
      </trkpt>
      <trkpt lat="47.3297" lon="2.83325">
        <ele>248</ele>
        <time>2019-10-12T13:34:30Z</time>
      </trkpt>
      <trkpt lat="47.32972" lon="2.83325">
        <ele>248</ele>
        <time>2019-10-12T13:34:35Z</time>
      </trkpt>
      <trkpt lat="47.32973" lon="2.83326">
        <ele>247.80000305176</ele>
        <time>2019-10-12T13:34:40Z</time>
      </trkpt>
      <trkpt lat="47.32973" lon="2.83328">
        <ele>247.80000305176</ele>
        <time>2019-10-12T13:34:45Z</time>
      </trkpt>
      <trkpt lat="47.32972" lon="2.83329">
        <ele>248</ele>
        <time>2019-10-12T13:34:50Z</time>
      </trkpt>
      <trkpt lat="47.32972" lon="2.83332">
        <ele>248</ele>
        <time>2019-10-12T13:34:55Z</time>
      </trkpt>
      <trkpt lat="47.32972" lon="2.83334">
        <ele>248</ele>
        <time>2019-10-12T13:35:00Z</time>
      </trkpt>
      <trkpt lat="47.32973" lon="2.83335">
        <ele>248</ele>
        <time>2019-10-12T13:35:05Z</time>
      </trkpt>
      <trkpt lat="47.32973" lon="2.83335">
        <ele>247.80000305176</ele>
        <time>2019-10-12T13:35:10Z</time>
      </trkpt>
      <trkpt lat="47.32974" lon="2.83334">
        <ele>247.60000610352</ele>
        <time>2019-10-12T13:35:15Z</time>
      </trkpt>
      <trkpt lat="47.32975" lon="2.83333">
        <ele>247.80000305176</ele>
        <time>2019-10-12T13:35:20Z</time>
      </trkpt>
      <trkpt lat="47.32977" lon="2.83334">
        <ele>248</ele>
        <time>2019-10-12T13:35:25Z</time>
      </trkpt>
      <trkpt lat="47.32977" lon="2.83334">
        <ele>248</ele>
        <time>2019-10-12T13:35:30Z</time>
      </trkpt>
      <trkpt lat="47.32975" lon="2.83335">
        <ele>248.19999694824</ele>
        <time>2019-10-12T13:35:35Z</time>
      </trkpt>
      <trkpt lat="47.32975" lon="2.83335">
        <ele>248</ele>
        <time>2019-10-12T13:35:40Z</time>
      </trkpt>
      <trkpt lat="47.32976" lon="2.83335">
        <ele>248</ele>
        <time>2019-10-12T13:35:45Z</time>
      </trkpt>
      <trkpt lat="47.32975" lon="2.83336">
        <ele>248</ele>
        <time>2019-10-12T13:35:50Z</time>
      </trkpt>
      <trkpt lat="47.32974" lon="2.83335">
        <ele>248.19999694824</ele>
        <time>2019-10-12T13:35:55Z</time>
      </trkpt>
      <trkpt lat="47.32973" lon="2.83334">
        <ele>248</ele>
        <time>2019-10-12T13:36:00Z</time>
      </trkpt>
      <trkpt lat="47.32973" lon="2.83334">
        <ele>248</ele>
        <time>2019-10-12T13:36:05Z</time>
      </trkpt>
      <trkpt lat="47.32974" lon="2.83335">
        <ele>248.19999694824</ele>
        <time>2019-10-12T13:36:10Z</time>
      </trkpt>
      <trkpt lat="47.32973" lon="2.83334">
        <ele>248</ele>
        <time>2019-10-12T13:36:15Z</time>
      </trkpt>
      <trkpt lat="47.32973" lon="2.83334">
        <ele>247.80000305176</ele>
        <time>2019-10-12T13:36:20Z</time>
      </trkpt>
      <trkpt lat="47.32973" lon="2.83334">
        <ele>248</ele>
        <time>2019-10-12T13:36:25Z</time>
      </trkpt>
      <trkpt lat="47.32973" lon="2.83335">
        <ele>248</ele>
        <time>2019-10-12T13:36:30Z</time>
      </trkpt>
      <trkpt lat="47.32975" lon="2.83336">
        <ele>248</ele>
        <time>2019-10-12T13:36:35Z</time>
      </trkpt>
      <trkpt lat="47.32976" lon="2.83338">
        <ele>247.80000305176</ele>
        <time>2019-10-12T13:36:40Z</time>
      </trkpt>
      <trkpt lat="47.3298" lon="2.83344">
        <ele>247.80000305176</ele>
        <time>2019-10-12T13:36:45Z</time>
      </trkpt>
      <trkpt lat="47.32981" lon="2.83354">
        <ele>247.80000305176</ele>
        <time>2019-10-12T13:36:50Z</time>
      </trkpt>
      <trkpt lat="47.32982" lon="2.83355">
        <ele>248.19999694824</ele>
        <time>2019-10-12T13:36:55Z</time>
      </trkpt>
      <trkpt lat="47.32987" lon="2.83357">
        <ele>249.39999389648</ele>
        <time>2019-10-12T13:37:00Z</time>
      </trkpt>
      <trkpt lat="47.32992" lon="2.83356">
        <ele>249.80000305176</ele>
        <time>2019-10-12T13:37:05Z</time>
      </trkpt>
      <trkpt lat="47.32999" lon="2.83355">
        <ele>250</ele>
        <time>2019-10-12T13:37:10Z</time>
      </trkpt>
      <trkpt lat="47.33005" lon="2.83356">
        <ele>250</ele>
        <time>2019-10-12T13:37:15Z</time>
      </trkpt>
      <trkpt lat="47.3301" lon="2.83356">
        <ele>249.60000610352</ele>
        <time>2019-10-12T13:37:20Z</time>
      </trkpt>
      <trkpt lat="47.33014" lon="2.83357">
        <ele>249.60000610352</ele>
        <time>2019-10-12T13:37:25Z</time>
      </trkpt>
      <trkpt lat="47.33017" lon="2.83357">
        <ele>249.39999389648</ele>
        <time>2019-10-12T13:37:30Z</time>
      </trkpt>
      <trkpt lat="47.33021" lon="2.83358">
        <ele>249.39999389648</ele>
        <time>2019-10-12T13:37:35Z</time>
      </trkpt>
      <trkpt lat="47.33025" lon="2.8336">
        <ele>249.39999389648</ele>
        <time>2019-10-12T13:37:40Z</time>
      </trkpt>
      <trkpt lat="47.33027" lon="2.83362">
        <ele>249</ele>
        <time>2019-10-12T13:37:45Z</time>
      </trkpt>
      <trkpt lat="47.33032" lon="2.83364">
        <ele>248.60000610352</ele>
        <time>2019-10-12T13:37:50Z</time>
      </trkpt>
      <trkpt lat="47.33038" lon="2.83365">
        <ele>248.60000610352</ele>
        <time>2019-10-12T13:37:55Z</time>
      </trkpt>
      <trkpt lat="47.33044" lon="2.83366">
        <ele>248.39999389648</ele>
        <time>2019-10-12T13:38:00Z</time>
      </trkpt>
      <trkpt lat="47.3305" lon="2.83367">
        <ele>248.39999389648</ele>
        <time>2019-10-12T13:38:05Z</time>
      </trkpt>
      <trkpt lat="47.33056" lon="2.83368">
        <ele>248.19999694824</ele>
        <time>2019-10-12T13:38:10Z</time>
      </trkpt>
      <trkpt lat="47.33061" lon="2.83371">
        <ele>248</ele>
        <time>2019-10-12T13:38:15Z</time>
      </trkpt>
      <trkpt lat="47.33066" lon="2.83372">
        <ele>248</ele>
        <time>2019-10-12T13:38:20Z</time>
      </trkpt>
      <trkpt lat="47.33071" lon="2.83373">
        <ele>247.39999389648</ele>
        <time>2019-10-12T13:38:25Z</time>
      </trkpt>
      <trkpt lat="47.33076" lon="2.83374">
        <ele>247.19999694824</ele>
        <time>2019-10-12T13:38:30Z</time>
      </trkpt>
      <trkpt lat="47.33081" lon="2.83376">
        <ele>247</ele>
        <time>2019-10-12T13:38:35Z</time>
      </trkpt>
      <trkpt lat="47.33086" lon="2.83376">
        <ele>247</ele>
        <time>2019-10-12T13:38:40Z</time>
      </trkpt>
      <trkpt lat="47.33089" lon="2.83379">
        <ele>246.60000610352</ele>
        <time>2019-10-12T13:38:45Z</time>
      </trkpt>
      <trkpt lat="47.33089" lon="2.83384">
        <ele>246.39999389648</ele>
        <time>2019-10-12T13:38:50Z</time>
      </trkpt>
      <trkpt lat="47.33094" lon="2.83384">
        <ele>246.19999694824</ele>
        <time>2019-10-12T13:38:55Z</time>
      </trkpt>
      <trkpt lat="47.33099" lon="2.83385">
        <ele>246</ele>
        <time>2019-10-12T13:39:00Z</time>
      </trkpt>
      <trkpt lat="47.33103" lon="2.83385">
        <ele>246</ele>
        <time>2019-10-12T13:39:05Z</time>
      </trkpt>
      <trkpt lat="47.33108" lon="2.83385">
        <ele>246</ele>
        <time>2019-10-12T13:39:10Z</time>
      </trkpt>
      <trkpt lat="47.33113" lon="2.83386">
        <ele>246</ele>
        <time>2019-10-12T13:39:15Z</time>
      </trkpt>
      <trkpt lat="47.33118" lon="2.83387">
        <ele>245.80000305176</ele>
        <time>2019-10-12T13:39:20Z</time>
      </trkpt>
      <trkpt lat="47.33124" lon="2.83388">
        <ele>245.60000610352</ele>
        <time>2019-10-12T13:39:25Z</time>
      </trkpt>
      <trkpt lat="47.33129" lon="2.83387">
        <ele>245.39999389648</ele>
        <time>2019-10-12T13:39:30Z</time>
      </trkpt>
      <trkpt lat="47.33135" lon="2.83386">
        <ele>245.19999694824</ele>
        <time>2019-10-12T13:39:35Z</time>
      </trkpt>
      <trkpt lat="47.3314" lon="2.83384">
        <ele>244.80000305176</ele>
        <time>2019-10-12T13:39:40Z</time>
      </trkpt>
      <trkpt lat="47.33147" lon="2.8338">
        <ele>244.39999389648</ele>
        <time>2019-10-12T13:39:45Z</time>
      </trkpt>
      <trkpt lat="47.33154" lon="2.83377">
        <ele>244.19999694824</ele>
        <time>2019-10-12T13:39:50Z</time>
      </trkpt>
      <trkpt lat="47.33159" lon="2.83374">
        <ele>244</ele>
        <time>2019-10-12T13:39:55Z</time>
      </trkpt>
      <trkpt lat="47.33165" lon="2.83374">
        <ele>244</ele>
        <time>2019-10-12T13:40:00Z</time>
      </trkpt>
      <trkpt lat="47.33172" lon="2.83375">
        <ele>243.80000305176</ele>
        <time>2019-10-12T13:40:05Z</time>
      </trkpt>
      <trkpt lat="47.33179" lon="2.83382">
        <ele>243.80000305176</ele>
        <time>2019-10-12T13:40:10Z</time>
      </trkpt>
      <trkpt lat="47.33183" lon="2.83384">
        <ele>243.39999389648</ele>
        <time>2019-10-12T13:40:15Z</time>
      </trkpt>
      <trkpt lat="47.33188" lon="2.83385">
        <ele>243.19999694824</ele>
        <time>2019-10-12T13:40:20Z</time>
      </trkpt>
      <trkpt lat="47.33193" lon="2.83387">
        <ele>243.39999389648</ele>
        <time>2019-10-12T13:40:25Z</time>
      </trkpt>
      <trkpt lat="47.332" lon="2.83387">
        <ele>243.19999694824</ele>
        <time>2019-10-12T13:40:30Z</time>
      </trkpt>
      <trkpt lat="47.33205" lon="2.83384">
        <ele>243.19999694824</ele>
        <time>2019-10-12T13:40:35Z</time>
      </trkpt>
      <trkpt lat="47.3321" lon="2.83382">
        <ele>243.19999694824</ele>
        <time>2019-10-12T13:40:40Z</time>
      </trkpt>
      <trkpt lat="47.33216" lon="2.83384">
        <ele>243</ele>
        <time>2019-10-12T13:40:45Z</time>
      </trkpt>
      <trkpt lat="47.33222" lon="2.83387">
        <ele>242.80000305176</ele>
        <time>2019-10-12T13:40:50Z</time>
      </trkpt>
      <trkpt lat="47.33227" lon="2.83389">
        <ele>242.39999389648</ele>
        <time>2019-10-12T13:40:55Z</time>
      </trkpt>
      <trkpt lat="47.33232" lon="2.83391">
        <ele>242.19999694824</ele>
        <time>2019-10-12T13:41:00Z</time>
      </trkpt>
      <trkpt lat="47.33239" lon="2.83391">
        <ele>242</ele>
        <time>2019-10-12T13:41:05Z</time>
      </trkpt>
      <trkpt lat="47.33245" lon="2.83393">
        <ele>241.80000305176</ele>
        <time>2019-10-12T13:41:10Z</time>
      </trkpt>
      <trkpt lat="47.3325" lon="2.83394">
        <ele>241.60000610352</ele>
        <time>2019-10-12T13:41:15Z</time>
      </trkpt>
      <trkpt lat="47.33256" lon="2.83394">
        <ele>241.39999389648</ele>
        <time>2019-10-12T13:41:20Z</time>
      </trkpt>
      <trkpt lat="47.33261" lon="2.83396">
        <ele>241.39999389648</ele>
        <time>2019-10-12T13:41:25Z</time>
      </trkpt>
      <trkpt lat="47.33268" lon="2.83397">
        <ele>241.19999694824</ele>
        <time>2019-10-12T13:41:30Z</time>
      </trkpt>
      <trkpt lat="47.33272" lon="2.83401">
        <ele>241</ele>
        <time>2019-10-12T13:41:35Z</time>
      </trkpt>
      <trkpt lat="47.33276" lon="2.83401">
        <ele>241</ele>
        <time>2019-10-12T13:41:40Z</time>
      </trkpt>
      <trkpt lat="47.33282" lon="2.834">
        <ele>241</ele>
        <time>2019-10-12T13:41:45Z</time>
      </trkpt>
      <trkpt lat="47.33288" lon="2.83401">
        <ele>240.39999389648</ele>
        <time>2019-10-12T13:41:50Z</time>
      </trkpt>
      <trkpt lat="47.33294" lon="2.83403">
        <ele>240.19999694824</ele>
        <time>2019-10-12T13:41:55Z</time>
      </trkpt>
      <trkpt lat="47.33299" lon="2.83405">
        <ele>240.19999694824</ele>
        <time>2019-10-12T13:42:00Z</time>
      </trkpt>
      <trkpt lat="47.33304" lon="2.83408">
        <ele>240</ele>
        <time>2019-10-12T13:42:05Z</time>
      </trkpt>
      <trkpt lat="47.33307" lon="2.8341">
        <ele>240</ele>
        <time>2019-10-12T13:42:10Z</time>
      </trkpt>
      <trkpt lat="47.33307" lon="2.8341">
        <ele>239.80000305176</ele>
        <time>2019-10-12T13:42:15Z</time>
      </trkpt>
      <trkpt lat="47.33307" lon="2.8341">
        <ele>239.80000305176</ele>
        <time>2019-10-12T13:42:20Z</time>
      </trkpt>
      <trkpt lat="47.33307" lon="2.8341">
        <ele>239.80000305176</ele>
        <time>2019-10-12T13:42:24Z</time>
      </trkpt>
      <trkpt lat="47.33305" lon="2.8341">
        <ele>240</ele>
        <time>2019-10-12T13:42:30Z</time>
      </trkpt>
      <trkpt lat="47.33301" lon="2.83408">
        <ele>240</ele>
        <time>2019-10-12T13:42:35Z</time>
      </trkpt>
      <trkpt lat="47.33296" lon="2.83405">
        <ele>240</ele>
        <time>2019-10-12T13:42:40Z</time>
      </trkpt>
      <trkpt lat="47.33294" lon="2.83401">
        <ele>240.19999694824</ele>
        <time>2019-10-12T13:42:45Z</time>
      </trkpt>
      <trkpt lat="47.3329" lon="2.834">
        <ele>240.19999694824</ele>
        <time>2019-10-12T13:42:50Z</time>
      </trkpt>
      <trkpt lat="47.33286" lon="2.83398">
        <ele>240.19999694824</ele>
        <time>2019-10-12T13:42:55Z</time>
      </trkpt>
      <trkpt lat="47.3328" lon="2.83396">
        <ele>240.19999694824</ele>
        <time>2019-10-12T13:43:00Z</time>
      </trkpt>
      <trkpt lat="47.33274" lon="2.83395">
        <ele>240.60000610352</ele>
        <time>2019-10-12T13:43:05Z</time>
      </trkpt>
      <trkpt lat="47.33269" lon="2.83392">
        <ele>240.80000305176</ele>
        <time>2019-10-12T13:43:10Z</time>
      </trkpt>
      <trkpt lat="47.33262" lon="2.83392">
        <ele>240.80000305176</ele>
        <time>2019-10-12T13:43:15Z</time>
      </trkpt>
      <trkpt lat="47.33256" lon="2.83392">
        <ele>240.60000610352</ele>
        <time>2019-10-12T13:43:20Z</time>
      </trkpt>
      <trkpt lat="47.33249" lon="2.83393">
        <ele>240.60000610352</ele>
        <time>2019-10-12T13:43:25Z</time>
      </trkpt>
      <trkpt lat="47.33243" lon="2.83392">
        <ele>241</ele>
        <time>2019-10-12T13:43:30Z</time>
      </trkpt>
      <trkpt lat="47.33239" lon="2.83392">
        <ele>241.39999389648</ele>
        <time>2019-10-12T13:43:35Z</time>
      </trkpt>
      <trkpt lat="47.33234" lon="2.83391">
        <ele>241.39999389648</ele>
        <time>2019-10-12T13:43:40Z</time>
      </trkpt>
      <trkpt lat="47.33229" lon="2.83392">
        <ele>241.39999389648</ele>
        <time>2019-10-12T13:43:45Z</time>
      </trkpt>
      <trkpt lat="47.33224" lon="2.83391">
        <ele>241.39999389648</ele>
        <time>2019-10-12T13:43:50Z</time>
      </trkpt>
      <trkpt lat="47.33216" lon="2.83392">
        <ele>241.80000305176</ele>
        <time>2019-10-12T13:43:55Z</time>
      </trkpt>
      <trkpt lat="47.33209" lon="2.83392">
        <ele>242</ele>
        <time>2019-10-12T13:44:00Z</time>
      </trkpt>
      <trkpt lat="47.33203" lon="2.83392">
        <ele>242.19999694824</ele>
        <time>2019-10-12T13:44:05Z</time>
      </trkpt>
      <trkpt lat="47.33197" lon="2.83392">
        <ele>242.19999694824</ele>
        <time>2019-10-12T13:44:10Z</time>
      </trkpt>
      <trkpt lat="47.33192" lon="2.83392">
        <ele>242.39999389648</ele>
        <time>2019-10-12T13:44:15Z</time>
      </trkpt>
      <trkpt lat="47.33187" lon="2.83391">
        <ele>242.80000305176</ele>
        <time>2019-10-12T13:44:20Z</time>
      </trkpt>
      <trkpt lat="47.33184" lon="2.83391">
        <ele>243</ele>
        <time>2019-10-12T13:44:25Z</time>
      </trkpt>
      <trkpt lat="47.33181" lon="2.83392">
        <ele>243.39999389648</ele>
        <time>2019-10-12T13:44:30Z</time>
      </trkpt>
      <trkpt lat="47.33182" lon="2.83395">
        <ele>244.39999389648</ele>
        <time>2019-10-12T13:44:35Z</time>
      </trkpt>
      <trkpt lat="47.3318" lon="2.834">
        <ele>246</ele>
        <time>2019-10-12T13:44:40Z</time>
      </trkpt>
      <trkpt lat="47.33179" lon="2.83405">
        <ele>246.60000610352</ele>
        <time>2019-10-12T13:44:45Z</time>
      </trkpt>
      <trkpt lat="47.33177" lon="2.8341">
        <ele>247</ele>
        <time>2019-10-12T13:44:50Z</time>
      </trkpt>
      <trkpt lat="47.33175" lon="2.83415">
        <ele>247.80000305176</ele>
        <time>2019-10-12T13:44:55Z</time>
      </trkpt>
      <trkpt lat="47.33172" lon="2.8342">
        <ele>248.39999389648</ele>
        <time>2019-10-12T13:45:00Z</time>
      </trkpt>
      <trkpt lat="47.3317" lon="2.83426">
        <ele>249.19999694824</ele>
        <time>2019-10-12T13:45:05Z</time>
      </trkpt>
      <trkpt lat="47.33169" lon="2.83429">
        <ele>250</ele>
        <time>2019-10-12T13:45:10Z</time>
      </trkpt>
      <trkpt lat="47.33165" lon="2.83433">
        <ele>250.60000610352</ele>
        <time>2019-10-12T13:45:15Z</time>
      </trkpt>
      <trkpt lat="47.33161" lon="2.83439">
        <ele>251.60000610352</ele>
        <time>2019-10-12T13:45:20Z</time>
      </trkpt>
      <trkpt lat="47.33157" lon="2.83445">
        <ele>252.39999389648</ele>
        <time>2019-10-12T13:45:25Z</time>
      </trkpt>
      <trkpt lat="47.33155" lon="2.83451">
        <ele>253.19999694824</ele>
        <time>2019-10-12T13:45:30Z</time>
      </trkpt>
      <trkpt lat="47.33147" lon="2.83459">
        <ele>254</ele>
        <time>2019-10-12T13:45:35Z</time>
      </trkpt>
      <trkpt lat="47.33142" lon="2.83465">
        <ele>255.19999694824</ele>
        <time>2019-10-12T13:45:40Z</time>
      </trkpt>
      <trkpt lat="47.33138" lon="2.8347">
        <ele>256.20001220703</ele>
        <time>2019-10-12T13:45:45Z</time>
      </trkpt>
      <trkpt lat="47.33133" lon="2.83474">
        <ele>257</ele>
        <time>2019-10-12T13:45:50Z</time>
      </trkpt>
      <trkpt lat="47.3313" lon="2.83477">
        <ele>258</ele>
        <time>2019-10-12T13:45:55Z</time>
      </trkpt>
      <trkpt lat="47.33128" lon="2.83484">
        <ele>259</ele>
        <time>2019-10-12T13:46:00Z</time>
      </trkpt>
      <trkpt lat="47.33125" lon="2.8349">
        <ele>259.79998779297</ele>
        <time>2019-10-12T13:46:05Z</time>
      </trkpt>
      <trkpt lat="47.33123" lon="2.83496">
        <ele>260.60000610352</ele>
        <time>2019-10-12T13:46:10Z</time>
      </trkpt>
      <trkpt lat="47.33121" lon="2.83501">
        <ele>261.39999389648</ele>
        <time>2019-10-12T13:46:15Z</time>
      </trkpt>
      <trkpt lat="47.3312" lon="2.83507">
        <ele>262.20001220703</ele>
        <time>2019-10-12T13:46:20Z</time>
      </trkpt>
      <trkpt lat="47.33119" lon="2.83512">
        <ele>262.79998779297</ele>
        <time>2019-10-12T13:46:25Z</time>
      </trkpt>
      <trkpt lat="47.3312" lon="2.83517">
        <ele>263.79998779297</ele>
        <time>2019-10-12T13:46:30Z</time>
      </trkpt>
      <trkpt lat="47.33123" lon="2.83523">
        <ele>265</ele>
        <time>2019-10-12T13:46:35Z</time>
      </trkpt>
      <trkpt lat="47.33125" lon="2.83527">
        <ele>265.39999389648</ele>
        <time>2019-10-12T13:46:40Z</time>
      </trkpt>
      <trkpt lat="47.33129" lon="2.83531">
        <ele>266.20001220703</ele>
        <time>2019-10-12T13:46:45Z</time>
      </trkpt>
      <trkpt lat="47.33131" lon="2.83536">
        <ele>266.79998779297</ele>
        <time>2019-10-12T13:46:50Z</time>
      </trkpt>
      <trkpt lat="47.33135" lon="2.83542">
        <ele>267.20001220703</ele>
        <time>2019-10-12T13:46:55Z</time>
      </trkpt>
      <trkpt lat="47.33137" lon="2.83547">
        <ele>268.20001220703</ele>
        <time>2019-10-12T13:47:00Z</time>
      </trkpt>
      <trkpt lat="47.33139" lon="2.83551">
        <ele>269</ele>
        <time>2019-10-12T13:47:05Z</time>
      </trkpt>
      <trkpt lat="47.33142" lon="2.83555">
        <ele>269.20001220703</ele>
        <time>2019-10-12T13:47:10Z</time>
      </trkpt>
      <trkpt lat="47.33146" lon="2.83556">
        <ele>269.20001220703</ele>
        <time>2019-10-12T13:47:15Z</time>
      </trkpt>
      <trkpt lat="47.33148" lon="2.83558">
        <ele>269.39999389648</ele>
        <time>2019-10-12T13:47:20Z</time>
      </trkpt>
      <trkpt lat="47.33148" lon="2.83558">
        <ele>270</ele>
        <time>2019-10-12T13:47:25Z</time>
      </trkpt>
      <trkpt lat="47.33148" lon="2.83558">
        <ele>270</ele>
        <time>2019-10-12T13:47:30Z</time>
      </trkpt>
      <trkpt lat="47.33148" lon="2.83557">
        <ele>270</ele>
        <time>2019-10-12T13:47:35Z</time>
      </trkpt>
      <trkpt lat="47.33149" lon="2.83558">
        <ele>270</ele>
        <time>2019-10-12T13:47:40Z</time>
      </trkpt>
      <trkpt lat="47.3315" lon="2.83559">
        <ele>270</ele>
        <time>2019-10-12T13:47:45Z</time>
      </trkpt>
      <trkpt lat="47.33151" lon="2.83559">
        <ele>270.39999389648</ele>
        <time>2019-10-12T13:47:50Z</time>
      </trkpt>
      <trkpt lat="47.33152" lon="2.8356">
        <ele>270.39999389648</ele>
        <time>2019-10-12T13:47:55Z</time>
      </trkpt>
      <trkpt lat="47.33152" lon="2.8356">
        <ele>270.39999389648</ele>
        <time>2019-10-12T13:48:00Z</time>
      </trkpt>
      <trkpt lat="47.33152" lon="2.8356">
        <ele>270.39999389648</ele>
        <time>2019-10-12T13:48:04Z</time>
      </trkpt>
      <trkpt lat="47.33153" lon="2.83561">
        <ele>270.60000610352</ele>
        <time>2019-10-12T13:48:10Z</time>
      </trkpt>
      <trkpt lat="47.33153" lon="2.83561">
        <ele>270.60000610352</ele>
        <time>2019-10-12T13:48:15Z</time>
      </trkpt>
      <trkpt lat="47.33151" lon="2.83561">
        <ele>270.60000610352</ele>
        <time>2019-10-12T13:48:20Z</time>
      </trkpt>
      <trkpt lat="47.33149" lon="2.83561">
        <ele>271</ele>
        <time>2019-10-12T13:48:26Z</time>
      </trkpt>
      <trkpt lat="47.33148" lon="2.83561">
        <ele>271</ele>
        <time>2019-10-12T13:48:32Z</time>
      </trkpt>
      <trkpt lat="47.33147" lon="2.83562">
        <ele>271</ele>
        <time>2019-10-12T13:48:37Z</time>
      </trkpt>
      <trkpt lat="47.33146" lon="2.83561">
        <ele>270.79998779297</ele>
        <time>2019-10-12T13:48:42Z</time>
      </trkpt>
      <trkpt lat="47.33146" lon="2.83561">
        <ele>270.79998779297</ele>
        <time>2019-10-12T13:48:47Z</time>
      </trkpt>
      <trkpt lat="47.33146" lon="2.83562">
        <ele>270.60000610352</ele>
        <time>2019-10-12T13:48:52Z</time>
      </trkpt>
      <trkpt lat="47.33146" lon="2.83562">
        <ele>270.39999389648</ele>
        <time>2019-10-12T13:48:57Z</time>
      </trkpt>
      <trkpt lat="47.33146" lon="2.83561">
        <ele>270.79998779297</ele>
        <time>2019-10-12T13:49:02Z</time>
      </trkpt>
      <trkpt lat="47.33147" lon="2.83561">
        <ele>271</ele>
        <time>2019-10-12T13:49:07Z</time>
      </trkpt>
      <trkpt lat="47.33147" lon="2.83561">
        <ele>270.39999389648</ele>
        <time>2019-10-12T13:49:12Z</time>
      </trkpt>
      <trkpt lat="47.33146" lon="2.83561">
        <ele>270.60000610352</ele>
        <time>2019-10-12T13:49:17Z</time>
      </trkpt>
      <trkpt lat="47.33146" lon="2.83562">
        <ele>271</ele>
        <time>2019-10-12T13:49:22Z</time>
      </trkpt>
      <trkpt lat="47.33147" lon="2.83562">
        <ele>271</ele>
        <time>2019-10-12T13:49:27Z</time>
      </trkpt>
      <trkpt lat="47.33149" lon="2.83564">
        <ele>271</ele>
        <time>2019-10-12T13:49:32Z</time>
      </trkpt>
      <trkpt lat="47.33151" lon="2.83564">
        <ele>271</ele>
        <time>2019-10-12T13:49:37Z</time>
      </trkpt>
      <trkpt lat="47.33151" lon="2.83564">
        <ele>271</ele>
        <time>2019-10-12T13:49:42Z</time>
      </trkpt>
      <trkpt lat="47.33153" lon="2.83564">
        <ele>271</ele>
        <time>2019-10-12T13:49:47Z</time>
      </trkpt>
      <trkpt lat="47.33155" lon="2.83562">
        <ele>271</ele>
        <time>2019-10-12T13:49:52Z</time>
      </trkpt>
      <trkpt lat="47.33155" lon="2.83569">
        <ele>271</ele>
        <time>2019-10-12T13:49:57Z</time>
      </trkpt>
      <trkpt lat="47.33153" lon="2.8358">
        <ele>271</ele>
        <time>2019-10-12T13:50:02Z</time>
      </trkpt>
      <trkpt lat="47.33151" lon="2.83584">
        <ele>272</ele>
        <time>2019-10-12T13:50:07Z</time>
      </trkpt>
      <trkpt lat="47.33152" lon="2.83587">
        <ele>273.39999389648</ele>
        <time>2019-10-12T13:50:12Z</time>
      </trkpt>
      <trkpt lat="47.33149" lon="2.8359">
        <ele>274.79998779297</ele>
        <time>2019-10-12T13:50:17Z</time>
      </trkpt>
      <trkpt lat="47.33147" lon="2.83594">
        <ele>275</ele>
        <time>2019-10-12T13:50:22Z</time>
      </trkpt>
      <trkpt lat="47.33146" lon="2.83598">
        <ele>275.39999389648</ele>
        <time>2019-10-12T13:50:27Z</time>
      </trkpt>
      <trkpt lat="47.33144" lon="2.83601">
        <ele>275.39999389648</ele>
        <time>2019-10-12T13:50:32Z</time>
      </trkpt>
      <trkpt lat="47.33143" lon="2.83603">
        <ele>275.79998779297</ele>
        <time>2019-10-12T13:50:37Z</time>
      </trkpt>
      <trkpt lat="47.33142" lon="2.83606">
        <ele>276.60000610352</ele>
        <time>2019-10-12T13:50:42Z</time>
      </trkpt>
      <trkpt lat="47.33138" lon="2.83608">
        <ele>277.60000610352</ele>
        <time>2019-10-12T13:50:47Z</time>
      </trkpt>
      <trkpt lat="47.33134" lon="2.83608">
        <ele>278.20001220703</ele>
        <time>2019-10-12T13:50:52Z</time>
      </trkpt>
      <trkpt lat="47.3313" lon="2.83608">
        <ele>278.39999389648</ele>
        <time>2019-10-12T13:50:57Z</time>
      </trkpt>
      <trkpt lat="47.33127" lon="2.83608">
        <ele>279</ele>
        <time>2019-10-12T13:51:02Z</time>
      </trkpt>
      <trkpt lat="47.33125" lon="2.83611">
        <ele>279.60000610352</ele>
        <time>2019-10-12T13:51:07Z</time>
      </trkpt>
      <trkpt lat="47.33124" lon="2.83611">
        <ele>280</ele>
        <time>2019-10-12T13:51:12Z</time>
      </trkpt>
      <trkpt lat="47.33124" lon="2.83612">
        <ele>280.20001220703</ele>
        <time>2019-10-12T13:51:17Z</time>
      </trkpt>
      <trkpt lat="47.33124" lon="2.83613">
        <ele>280.20001220703</ele>
        <time>2019-10-12T13:51:22Z</time>
      </trkpt>
      <trkpt lat="47.33124" lon="2.83614">
        <ele>280.20001220703</ele>
        <time>2019-10-12T13:51:27Z</time>
      </trkpt>
      <trkpt lat="47.33124" lon="2.83619">
        <ele>280.20001220703</ele>
        <time>2019-10-12T13:51:32Z</time>
      </trkpt>
      <trkpt lat="47.33123" lon="2.83625">
        <ele>280.60000610352</ele>
        <time>2019-10-12T13:51:37Z</time>
      </trkpt>
      <trkpt lat="47.33123" lon="2.83626">
        <ele>281</ele>
        <time>2019-10-12T13:51:42Z</time>
      </trkpt>
      <trkpt lat="47.33121" lon="2.83627">
        <ele>281</ele>
        <time>2019-10-12T13:51:47Z</time>
      </trkpt>
      <trkpt lat="47.33119" lon="2.83629">
        <ele>281</ele>
        <time>2019-10-12T13:51:52Z</time>
      </trkpt>
      <trkpt lat="47.33118" lon="2.8363">
        <ele>280.79998779297</ele>
        <time>2019-10-12T13:51:57Z</time>
      </trkpt>
      <trkpt lat="47.33118" lon="2.8363">
        <ele>280.79998779297</ele>
        <time>2019-10-12T13:52:02Z</time>
      </trkpt>
      <trkpt lat="47.33117" lon="2.83631">
        <ele>281</ele>
        <time>2019-10-12T13:52:07Z</time>
      </trkpt>
      <trkpt lat="47.33115" lon="2.83632">
        <ele>281</ele>
        <time>2019-10-12T13:52:12Z</time>
      </trkpt>
      <trkpt lat="47.3311" lon="2.83634">
        <ele>281.20001220703</ele>
        <time>2019-10-12T13:52:17Z</time>
      </trkpt>
      <trkpt lat="47.33104" lon="2.83638">
        <ele>281.39999389648</ele>
        <time>2019-10-12T13:52:22Z</time>
      </trkpt>
      <trkpt lat="47.33098" lon="2.83641">
        <ele>281.60000610352</ele>
        <time>2019-10-12T13:52:27Z</time>
      </trkpt>
      <trkpt lat="47.33094" lon="2.83642">
        <ele>282</ele>
        <time>2019-10-12T13:52:32Z</time>
      </trkpt>
      <trkpt lat="47.33088" lon="2.83644">
        <ele>282.60000610352</ele>
        <time>2019-10-12T13:52:37Z</time>
      </trkpt>
      <trkpt lat="47.33084" lon="2.83644">
        <ele>283</ele>
        <time>2019-10-12T13:52:42Z</time>
      </trkpt>
      <trkpt lat="47.33079" lon="2.83644">
        <ele>283.39999389648</ele>
        <time>2019-10-12T13:52:47Z</time>
      </trkpt>
      <trkpt lat="47.33075" lon="2.83646">
        <ele>283.79998779297</ele>
        <time>2019-10-12T13:52:52Z</time>
      </trkpt>
      <trkpt lat="47.33073" lon="2.83647">
        <ele>284.20001220703</ele>
        <time>2019-10-12T13:52:57Z</time>
      </trkpt>
      <trkpt lat="47.33073" lon="2.83647">
        <ele>284.79998779297</ele>
        <time>2019-10-12T13:53:02Z</time>
      </trkpt>
      <trkpt lat="47.33072" lon="2.83647">
        <ele>285</ele>
        <time>2019-10-12T13:53:07Z</time>
      </trkpt>
      <trkpt lat="47.33071" lon="2.83648">
        <ele>285</ele>
        <time>2019-10-12T13:53:12Z</time>
      </trkpt>
      <trkpt lat="47.33071" lon="2.83648">
        <ele>285</ele>
        <time>2019-10-12T13:53:17Z</time>
      </trkpt>
      <trkpt lat="47.3307" lon="2.83648">
        <ele>285</ele>
        <time>2019-10-12T13:53:22Z</time>
      </trkpt>
      <trkpt lat="47.33069" lon="2.83649">
        <ele>285.20001220703</ele>
        <time>2019-10-12T13:53:28Z</time>
      </trkpt>
      <trkpt lat="47.3307" lon="2.83649">
        <ele>285.20001220703</ele>
        <time>2019-10-12T13:53:33Z</time>
      </trkpt>
      <trkpt lat="47.33069" lon="2.83649">
        <ele>285</ele>
        <time>2019-10-12T13:53:38Z</time>
      </trkpt>
      <trkpt lat="47.33069" lon="2.83649">
        <ele>285</ele>
        <time>2019-10-12T13:53:43Z</time>
      </trkpt>
      <trkpt lat="47.33069" lon="2.83653">
        <ele>285.20001220703</ele>
        <time>2019-10-12T13:53:48Z</time>
      </trkpt>
      <trkpt lat="47.33067" lon="2.83659">
        <ele>285.39999389648</ele>
        <time>2019-10-12T13:53:53Z</time>
      </trkpt>
      <trkpt lat="47.33068" lon="2.83666">
        <ele>285.60000610352</ele>
        <time>2019-10-12T13:53:58Z</time>
      </trkpt>
      <trkpt lat="47.33067" lon="2.83676">
        <ele>286</ele>
        <time>2019-10-12T13:54:03Z</time>
      </trkpt>
      <trkpt lat="47.33064" lon="2.83684">
        <ele>286.20001220703</ele>
        <time>2019-10-12T13:54:08Z</time>
      </trkpt>
      <trkpt lat="47.33063" lon="2.8369">
        <ele>286.79998779297</ele>
        <time>2019-10-12T13:54:13Z</time>
      </trkpt>
      <trkpt lat="47.33064" lon="2.83699">
        <ele>287</ele>
        <time>2019-10-12T13:54:18Z</time>
      </trkpt>
      <trkpt lat="47.33065" lon="2.83705">
        <ele>287.39999389648</ele>
        <time>2019-10-12T13:54:23Z</time>
      </trkpt>
      <trkpt lat="47.33061" lon="2.83714">
        <ele>287.60000610352</ele>
        <time>2019-10-12T13:54:28Z</time>
      </trkpt>
      <trkpt lat="47.33059" lon="2.83721">
        <ele>288.20001220703</ele>
        <time>2019-10-12T13:54:33Z</time>
      </trkpt>
      <trkpt lat="47.33057" lon="2.83728">
        <ele>288.79998779297</ele>
        <time>2019-10-12T13:54:38Z</time>
      </trkpt>
      <trkpt lat="47.33054" lon="2.83734">
        <ele>289.60000610352</ele>
        <time>2019-10-12T13:54:43Z</time>
      </trkpt>
      <trkpt lat="47.33053" lon="2.83741">
        <ele>290.39999389648</ele>
        <time>2019-10-12T13:54:48Z</time>
      </trkpt>
      <trkpt lat="47.33052" lon="2.83746">
        <ele>290.79998779297</ele>
        <time>2019-10-12T13:54:53Z</time>
      </trkpt>
      <trkpt lat="47.33046" lon="2.83751">
        <ele>291.60000610352</ele>
        <time>2019-10-12T13:54:58Z</time>
      </trkpt>
      <trkpt lat="47.33044" lon="2.83757">
        <ele>292.39999389648</ele>
        <time>2019-10-12T13:55:03Z</time>
      </trkpt>
      <trkpt lat="47.33043" lon="2.83761">
        <ele>293</ele>
        <time>2019-10-12T13:55:08Z</time>
      </trkpt>
      <trkpt lat="47.33041" lon="2.83771">
        <ele>293.79998779297</ele>
        <time>2019-10-12T13:55:13Z</time>
      </trkpt>
      <trkpt lat="47.3304" lon="2.83783">
        <ele>294.39999389648</ele>
        <time>2019-10-12T13:55:18Z</time>
      </trkpt>
      <trkpt lat="47.33041" lon="2.83793">
        <ele>295.20001220703</ele>
        <time>2019-10-12T13:55:23Z</time>
      </trkpt>
      <trkpt lat="47.33042" lon="2.838">
        <ele>296.20001220703</ele>
        <time>2019-10-12T13:55:28Z</time>
      </trkpt>
      <trkpt lat="47.33044" lon="2.83807">
        <ele>296.79998779297</ele>
        <time>2019-10-12T13:55:33Z</time>
      </trkpt>
      <trkpt lat="47.33044" lon="2.83811">
        <ele>297.60000610352</ele>
        <time>2019-10-12T13:55:38Z</time>
      </trkpt>
      <trkpt lat="47.33043" lon="2.83814">
        <ele>298.20001220703</ele>
        <time>2019-10-12T13:55:43Z</time>
      </trkpt>
      <trkpt lat="47.33043" lon="2.83815">
        <ele>298.20001220703</ele>
        <time>2019-10-12T13:55:48Z</time>
      </trkpt>
      <trkpt lat="47.33043" lon="2.83816">
        <ele>298.20001220703</ele>
        <time>2019-10-12T13:55:53Z</time>
      </trkpt>
      <trkpt lat="47.33041" lon="2.8382">
        <ele>298.20001220703</ele>
        <time>2019-10-12T13:55:58Z</time>
      </trkpt>
      <trkpt lat="47.33036" lon="2.83828">
        <ele>298.20001220703</ele>
        <time>2019-10-12T13:56:03Z</time>
      </trkpt>
      <trkpt lat="47.33033" lon="2.83835">
        <ele>298.39999389648</ele>
        <time>2019-10-12T13:56:08Z</time>
      </trkpt>
      <trkpt lat="47.33029" lon="2.83835">
        <ele>298.60000610352</ele>
        <time>2019-10-12T13:56:13Z</time>
      </trkpt>
      <trkpt lat="47.33029" lon="2.83837">
        <ele>298.60000610352</ele>
        <time>2019-10-12T13:56:18Z</time>
      </trkpt>
      <trkpt lat="47.33025" lon="2.83847">
        <ele>298.79998779297</ele>
        <time>2019-10-12T13:56:23Z</time>
      </trkpt>
      <trkpt lat="47.33022" lon="2.83854">
        <ele>299</ele>
        <time>2019-10-12T13:56:28Z</time>
      </trkpt>
      <trkpt lat="47.33017" lon="2.83863">
        <ele>299</ele>
        <time>2019-10-12T13:56:33Z</time>
      </trkpt>
      <trkpt lat="47.33016" lon="2.83874">
        <ele>299</ele>
        <time>2019-10-12T13:56:38Z</time>
      </trkpt>
      <trkpt lat="47.33019" lon="2.83885">
        <ele>298.79998779297</ele>
        <time>2019-10-12T13:56:43Z</time>
      </trkpt>
      <trkpt lat="47.33022" lon="2.83895">
        <ele>298.79998779297</ele>
        <time>2019-10-12T13:56:48Z</time>
      </trkpt>
      <trkpt lat="47.33021" lon="2.83901">
        <ele>298.39999389648</ele>
        <time>2019-10-12T13:56:53Z</time>
      </trkpt>
      <trkpt lat="47.33014" lon="2.83905">
        <ele>298.39999389648</ele>
        <time>2019-10-12T13:56:58Z</time>
      </trkpt>
      <trkpt lat="47.33009" lon="2.83907">
        <ele>298.20001220703</ele>
        <time>2019-10-12T13:57:03Z</time>
      </trkpt>
      <trkpt lat="47.33005" lon="2.83915">
        <ele>297.39999389648</ele>
        <time>2019-10-12T13:57:08Z</time>
      </trkpt>
      <trkpt lat="47.33002" lon="2.83918">
        <ele>297.20001220703</ele>
        <time>2019-10-12T13:57:13Z</time>
      </trkpt>
      <trkpt lat="47.32999" lon="2.83918">
        <ele>296.79998779297</ele>
        <time>2019-10-12T13:57:18Z</time>
      </trkpt>
      <trkpt lat="47.32996" lon="2.83919">
        <ele>296.60000610352</ele>
        <time>2019-10-12T13:57:23Z</time>
      </trkpt>
      <trkpt lat="47.32989" lon="2.83924">
        <ele>296.20001220703</ele>
        <time>2019-10-12T13:57:28Z</time>
      </trkpt>
      <trkpt lat="47.3298" lon="2.83928">
        <ele>295.79998779297</ele>
        <time>2019-10-12T13:57:33Z</time>
      </trkpt>
      <trkpt lat="47.32973" lon="2.8393">
        <ele>295.20001220703</ele>
        <time>2019-10-12T13:57:38Z</time>
      </trkpt>
      <trkpt lat="47.32969" lon="2.83931">
        <ele>295</ele>
        <time>2019-10-12T13:57:43Z</time>
      </trkpt>
      <trkpt lat="47.32968" lon="2.83933">
        <ele>294.60000610352</ele>
        <time>2019-10-12T13:57:48Z</time>
      </trkpt>
      <trkpt lat="47.32969" lon="2.83935">
        <ele>294.39999389648</ele>
        <time>2019-10-12T13:57:53Z</time>
      </trkpt>
      <trkpt lat="47.32968" lon="2.83939">
        <ele>294</ele>
        <time>2019-10-12T13:57:58Z</time>
      </trkpt>
      <trkpt lat="47.3297" lon="2.83942">
        <ele>294.39999389648</ele>
        <time>2019-10-12T13:58:03Z</time>
      </trkpt>
      <trkpt lat="47.32971" lon="2.83942">
        <ele>294.60000610352</ele>
        <time>2019-10-12T13:58:08Z</time>
      </trkpt>
      <trkpt lat="47.32974" lon="2.83943">
        <ele>295</ele>
        <time>2019-10-12T13:58:13Z</time>
      </trkpt>
      <trkpt lat="47.32978" lon="2.83947">
        <ele>295</ele>
        <time>2019-10-12T13:58:18Z</time>
      </trkpt>
      <trkpt lat="47.32976" lon="2.83955">
        <ele>295</ele>
        <time>2019-10-12T13:58:23Z</time>
      </trkpt>
      <trkpt lat="47.32973" lon="2.83966">
        <ele>294.39999389648</ele>
        <time>2019-10-12T13:58:28Z</time>
      </trkpt>
      <trkpt lat="47.32971" lon="2.83974">
        <ele>293.79998779297</ele>
        <time>2019-10-12T13:58:33Z</time>
      </trkpt>
      <trkpt lat="47.32972" lon="2.83984">
        <ele>293.60000610352</ele>
        <time>2019-10-12T13:58:38Z</time>
      </trkpt>
      <trkpt lat="47.32967" lon="2.83987">
        <ele>293.60000610352</ele>
        <time>2019-10-12T13:58:43Z</time>
      </trkpt>
      <trkpt lat="47.32962" lon="2.83989">
        <ele>294</ele>
        <time>2019-10-12T13:58:48Z</time>
      </trkpt>
      <trkpt lat="47.32956" lon="2.83993">
        <ele>294</ele>
        <time>2019-10-12T13:58:53Z</time>
      </trkpt>
      <trkpt lat="47.32953" lon="2.83997">
        <ele>294</ele>
        <time>2019-10-12T13:58:58Z</time>
      </trkpt>
      <trkpt lat="47.32951" lon="2.84">
        <ele>294</ele>
        <time>2019-10-12T13:59:03Z</time>
      </trkpt>
      <trkpt lat="47.3295" lon="2.84001">
        <ele>293.79998779297</ele>
        <time>2019-10-12T13:59:08Z</time>
      </trkpt>
      <trkpt lat="47.32949" lon="2.84001">
        <ele>293.60000610352</ele>
        <time>2019-10-12T13:59:13Z</time>
      </trkpt>
      <trkpt lat="47.32949" lon="2.84001">
        <ele>293.60000610352</ele>
        <time>2019-10-12T13:59:18Z</time>
      </trkpt>
      <trkpt lat="47.32949" lon="2.84">
        <ele>294</ele>
        <time>2019-10-12T13:59:23Z</time>
      </trkpt>
      <trkpt lat="47.32951" lon="2.84001">
        <ele>294</ele>
        <time>2019-10-12T13:59:28Z</time>
      </trkpt>
      <trkpt lat="47.32953" lon="2.83998">
        <ele>294</ele>
        <time>2019-10-12T13:59:33Z</time>
      </trkpt>
      <trkpt lat="47.32953" lon="2.83998">
        <ele>294</ele>
        <time>2019-10-12T13:59:38Z</time>
      </trkpt>
      <trkpt lat="47.32952" lon="2.83998">
        <ele>294.20001220703</ele>
        <time>2019-10-12T13:59:43Z</time>
      </trkpt>
      <trkpt lat="47.32951" lon="2.83998">
        <ele>294.39999389648</ele>
        <time>2019-10-12T13:59:48Z</time>
      </trkpt>
      <trkpt lat="47.32951" lon="2.83998">
        <ele>294.20001220703</ele>
        <time>2019-10-12T13:59:53Z</time>
      </trkpt>
      <trkpt lat="47.3295" lon="2.83997">
        <ele>294</ele>
        <time>2019-10-12T13:59:58Z</time>
      </trkpt>
      <trkpt lat="47.3295" lon="2.83996">
        <ele>294</ele>
        <time>2019-10-12T14:00:03Z</time>
      </trkpt>
      <trkpt lat="47.32949" lon="2.83995">
        <ele>294</ele>
        <time>2019-10-12T14:00:08Z</time>
      </trkpt>
      <trkpt lat="47.32949" lon="2.83995">
        <ele>294</ele>
        <time>2019-10-12T14:00:13Z</time>
      </trkpt>
      <trkpt lat="47.3295" lon="2.83995">
        <ele>294</ele>
        <time>2019-10-12T14:00:18Z</time>
      </trkpt>
      <trkpt lat="47.3295" lon="2.83995">
        <ele>294</ele>
        <time>2019-10-12T14:00:23Z</time>
      </trkpt>
      <trkpt lat="47.32949" lon="2.83994">
        <ele>294</ele>
        <time>2019-10-12T14:00:28Z</time>
      </trkpt>
      <trkpt lat="47.32949" lon="2.83995">
        <ele>294</ele>
        <time>2019-10-12T14:00:33Z</time>
      </trkpt>
      <trkpt lat="47.32949" lon="2.83994">
        <ele>294</ele>
        <time>2019-10-12T14:00:38Z</time>
      </trkpt>
      <trkpt lat="47.32949" lon="2.83995">
        <ele>294</ele>
        <time>2019-10-12T14:00:43Z</time>
      </trkpt>
      <trkpt lat="47.32948" lon="2.83994">
        <ele>294</ele>
        <time>2019-10-12T14:00:48Z</time>
      </trkpt>
      <trkpt lat="47.32949" lon="2.83994">
        <ele>294</ele>
        <time>2019-10-12T14:00:53Z</time>
      </trkpt>
      <trkpt lat="47.3295" lon="2.83994">
        <ele>294</ele>
        <time>2019-10-12T14:00:58Z</time>
      </trkpt>
      <trkpt lat="47.32953" lon="2.83994">
        <ele>294</ele>
        <time>2019-10-12T14:01:03Z</time>
      </trkpt>
      <trkpt lat="47.32956" lon="2.83993">
        <ele>294</ele>
        <time>2019-10-12T14:01:08Z</time>
      </trkpt>
      <trkpt lat="47.32956" lon="2.83991">
        <ele>294</ele>
        <time>2019-10-12T14:01:13Z</time>
      </trkpt>
      <trkpt lat="47.32956" lon="2.83988">
        <ele>294</ele>
        <time>2019-10-12T14:01:18Z</time>
      </trkpt>
      <trkpt lat="47.32958" lon="2.83984">
        <ele>294</ele>
        <time>2019-10-12T14:01:23Z</time>
      </trkpt>
      <trkpt lat="47.32958" lon="2.83984">
        <ele>294</ele>
        <time>2019-10-12T14:01:28Z</time>
      </trkpt>
      <trkpt lat="47.32959" lon="2.83984">
        <ele>294</ele>
        <time>2019-10-12T14:01:33Z</time>
      </trkpt>
      <trkpt lat="47.32959" lon="2.83983">
        <ele>294</ele>
        <time>2019-10-12T14:01:38Z</time>
      </trkpt>
      <trkpt lat="47.32959" lon="2.83981">
        <ele>294</ele>
        <time>2019-10-12T14:01:43Z</time>
      </trkpt>
      <trkpt lat="47.32961" lon="2.83977">
        <ele>294</ele>
        <time>2019-10-12T14:01:48Z</time>
      </trkpt>
      <trkpt lat="47.32961" lon="2.83973">
        <ele>294.20001220703</ele>
        <time>2019-10-12T14:01:53Z</time>
      </trkpt>
      <trkpt lat="47.32959" lon="2.83971">
        <ele>294.39999389648</ele>
        <time>2019-10-12T14:01:58Z</time>
      </trkpt>
      <trkpt lat="47.32959" lon="2.83972">
        <ele>294.39999389648</ele>
        <time>2019-10-12T14:02:03Z</time>
      </trkpt>
      <trkpt lat="47.32959" lon="2.83972">
        <ele>294.39999389648</ele>
        <time>2019-10-12T14:02:08Z</time>
      </trkpt>
      <trkpt lat="47.32964" lon="2.83972">
        <ele>294.20001220703</ele>
        <time>2019-10-12T14:02:13Z</time>
      </trkpt>
      <trkpt lat="47.32968" lon="2.8398">
        <ele>294</ele>
        <time>2019-10-12T14:02:18Z</time>
      </trkpt>
      <trkpt lat="47.32972" lon="2.83984">
        <ele>293.60000610352</ele>
        <time>2019-10-12T14:02:23Z</time>
      </trkpt>
      <trkpt lat="47.32974" lon="2.83984">
        <ele>293.60000610352</ele>
        <time>2019-10-12T14:02:28Z</time>
      </trkpt>
      <trkpt lat="47.32975" lon="2.83983">
        <ele>293.60000610352</ele>
        <time>2019-10-12T14:02:33Z</time>
      </trkpt>
      <trkpt lat="47.32976" lon="2.83984">
        <ele>293.60000610352</ele>
        <time>2019-10-12T14:02:38Z</time>
      </trkpt>
      <trkpt lat="47.32977" lon="2.83984">
        <ele>293.60000610352</ele>
        <time>2019-10-12T14:02:43Z</time>
      </trkpt>
      <trkpt lat="47.3298" lon="2.8398">
        <ele>293.79998779297</ele>
        <time>2019-10-12T14:02:48Z</time>
      </trkpt>
      <trkpt lat="47.32985" lon="2.83974">
        <ele>294</ele>
        <time>2019-10-12T14:02:53Z</time>
      </trkpt>
      <trkpt lat="47.32987" lon="2.8397">
        <ele>294.39999389648</ele>
        <time>2019-10-12T14:02:58Z</time>
      </trkpt>
      <trkpt lat="47.32984" lon="2.83962">
        <ele>294.60000610352</ele>
        <time>2019-10-12T14:03:03Z</time>
      </trkpt>
      <trkpt lat="47.32978" lon="2.83955">
        <ele>295.20001220703</ele>
        <time>2019-10-12T14:03:08Z</time>
      </trkpt>
      <trkpt lat="47.32976" lon="2.83952">
        <ele>295.39999389648</ele>
        <time>2019-10-12T14:03:13Z</time>
      </trkpt>
      <trkpt lat="47.32973" lon="2.83948">
        <ele>295</ele>
        <time>2019-10-12T14:03:18Z</time>
      </trkpt>
      <trkpt lat="47.32975" lon="2.83941">
        <ele>294.60000610352</ele>
        <time>2019-10-12T14:03:23Z</time>
      </trkpt>
      <trkpt lat="47.32976" lon="2.83937">
        <ele>294.39999389648</ele>
        <time>2019-10-12T14:03:28Z</time>
      </trkpt>
      <trkpt lat="47.32977" lon="2.83932">
        <ele>294.39999389648</ele>
        <time>2019-10-12T14:03:33Z</time>
      </trkpt>
      <trkpt lat="47.32975" lon="2.83921">
        <ele>294.39999389648</ele>
        <time>2019-10-12T14:03:38Z</time>
      </trkpt>
      <trkpt lat="47.32977" lon="2.83912">
        <ele>294.60000610352</ele>
        <time>2019-10-12T14:03:43Z</time>
      </trkpt>
      <trkpt lat="47.32978" lon="2.83906">
        <ele>295</ele>
        <time>2019-10-12T14:03:48Z</time>
      </trkpt>
      <trkpt lat="47.32976" lon="2.83899">
        <ele>295</ele>
        <time>2019-10-12T14:03:53Z</time>
      </trkpt>
      <trkpt lat="47.32975" lon="2.83891">
        <ele>295.20001220703</ele>
        <time>2019-10-12T14:03:59Z</time>
      </trkpt>
      <trkpt lat="47.32976" lon="2.83883">
        <ele>295.60000610352</ele>
        <time>2019-10-12T14:04:04Z</time>
      </trkpt>
      <trkpt lat="47.32975" lon="2.83874">
        <ele>295.79998779297</ele>
        <time>2019-10-12T14:04:09Z</time>
      </trkpt>
      <trkpt lat="47.32976" lon="2.83867">
        <ele>295.79998779297</ele>
        <time>2019-10-12T14:04:14Z</time>
      </trkpt>
      <trkpt lat="47.32974" lon="2.83859">
        <ele>296</ele>
        <time>2019-10-12T14:04:19Z</time>
      </trkpt>
      <trkpt lat="47.32974" lon="2.83851">
        <ele>295.79998779297</ele>
        <time>2019-10-12T14:04:24Z</time>
      </trkpt>
      <trkpt lat="47.32973" lon="2.83843">
        <ele>295.39999389648</ele>
        <time>2019-10-12T14:04:29Z</time>
      </trkpt>
      <trkpt lat="47.32974" lon="2.83837">
        <ele>295</ele>
        <time>2019-10-12T14:04:34Z</time>
      </trkpt>
      <trkpt lat="47.32973" lon="2.83831">
        <ele>294.79998779297</ele>
        <time>2019-10-12T14:04:39Z</time>
      </trkpt>
      <trkpt lat="47.32975" lon="2.83825">
        <ele>294.60000610352</ele>
        <time>2019-10-12T14:04:44Z</time>
      </trkpt>
      <trkpt lat="47.32977" lon="2.83818">
        <ele>294.39999389648</ele>
        <time>2019-10-12T14:04:49Z</time>
      </trkpt>
      <trkpt lat="47.32976" lon="2.83812">
        <ele>294.39999389648</ele>
        <time>2019-10-12T14:04:54Z</time>
      </trkpt>
      <trkpt lat="47.32979" lon="2.83805">
        <ele>294.20001220703</ele>
        <time>2019-10-12T14:04:59Z</time>
      </trkpt>
      <trkpt lat="47.32984" lon="2.83798">
        <ele>294.20001220703</ele>
        <time>2019-10-12T14:05:04Z</time>
      </trkpt>
      <trkpt lat="47.32987" lon="2.83793">
        <ele>294.20001220703</ele>
        <time>2019-10-12T14:05:09Z</time>
      </trkpt>
      <trkpt lat="47.32989" lon="2.83787">
        <ele>294.20001220703</ele>
        <time>2019-10-12T14:05:14Z</time>
      </trkpt>
      <trkpt lat="47.32991" lon="2.83781">
        <ele>294</ele>
        <time>2019-10-12T14:05:19Z</time>
      </trkpt>
      <trkpt lat="47.32994" lon="2.83778">
        <ele>293.60000610352</ele>
        <time>2019-10-12T14:05:24Z</time>
      </trkpt>
      <trkpt lat="47.32998" lon="2.83774">
        <ele>292.79998779297</ele>
        <time>2019-10-12T14:05:29Z</time>
      </trkpt>
      <trkpt lat="47.33001" lon="2.8377">
        <ele>292</ele>
        <time>2019-10-12T14:05:34Z</time>
      </trkpt>
      <trkpt lat="47.33003" lon="2.83764">
        <ele>291.39999389648</ele>
        <time>2019-10-12T14:05:39Z</time>
      </trkpt>
      <trkpt lat="47.33006" lon="2.83758">
        <ele>291</ele>
        <time>2019-10-12T14:05:44Z</time>
      </trkpt>
      <trkpt lat="47.33006" lon="2.83747">
        <ele>290.20001220703</ele>
        <time>2019-10-12T14:05:49Z</time>
      </trkpt>
      <trkpt lat="47.33006" lon="2.8374">
        <ele>289</ele>
        <time>2019-10-12T14:05:54Z</time>
      </trkpt>
      <trkpt lat="47.33007" lon="2.83731">
        <ele>287.79998779297</ele>
        <time>2019-10-12T14:05:59Z</time>
      </trkpt>
      <trkpt lat="47.33009" lon="2.83722">
        <ele>287</ele>
        <time>2019-10-12T14:06:04Z</time>
      </trkpt>
      <trkpt lat="47.33009" lon="2.83715">
        <ele>286.39999389648</ele>
        <time>2019-10-12T14:06:09Z</time>
      </trkpt>
      <trkpt lat="47.33007" lon="2.83709">
        <ele>285.60000610352</ele>
        <time>2019-10-12T14:06:14Z</time>
      </trkpt>
      <trkpt lat="47.33006" lon="2.83707">
        <ele>285</ele>
        <time>2019-10-12T14:06:19Z</time>
      </trkpt>
      <trkpt lat="47.33002" lon="2.83705">
        <ele>284.79998779297</ele>
        <time>2019-10-12T14:06:24Z</time>
      </trkpt>
      <trkpt lat="47.32996" lon="2.83703">
        <ele>284.79998779297</ele>
        <time>2019-10-12T14:06:29Z</time>
      </trkpt>
      <trkpt lat="47.32991" lon="2.83702">
        <ele>284</ele>
        <time>2019-10-12T14:06:34Z</time>
      </trkpt>
      <trkpt lat="47.32986" lon="2.83699">
        <ele>283.79998779297</ele>
        <time>2019-10-12T14:06:39Z</time>
      </trkpt>
      <trkpt lat="47.3298" lon="2.83701">
        <ele>283.39999389648</ele>
        <time>2019-10-12T14:06:44Z</time>
      </trkpt>
      <trkpt lat="47.32975" lon="2.83702">
        <ele>283.39999389648</ele>
        <time>2019-10-12T14:06:49Z</time>
      </trkpt>
      <trkpt lat="47.32969" lon="2.83704">
        <ele>283.20001220703</ele>
        <time>2019-10-12T14:06:54Z</time>
      </trkpt>
      <trkpt lat="47.32964" lon="2.83699">
        <ele>283</ele>
        <time>2019-10-12T14:06:59Z</time>
      </trkpt>
      <trkpt lat="47.3296" lon="2.837">
        <ele>282.79998779297</ele>
        <time>2019-10-12T14:07:04Z</time>
      </trkpt>
      <trkpt lat="47.32956" lon="2.83705">
        <ele>282.79998779297</ele>
        <time>2019-10-12T14:07:09Z</time>
      </trkpt>
      <trkpt lat="47.32951" lon="2.83706">
        <ele>282.60000610352</ele>
        <time>2019-10-12T14:07:14Z</time>
      </trkpt>
      <trkpt lat="47.32947" lon="2.83709">
        <ele>282.39999389648</ele>
        <time>2019-10-12T14:07:19Z</time>
      </trkpt>
      <trkpt lat="47.32941" lon="2.8371">
        <ele>282.39999389648</ele>
        <time>2019-10-12T14:07:24Z</time>
      </trkpt>
      <trkpt lat="47.32936" lon="2.83709">
        <ele>282.20001220703</ele>
        <time>2019-10-12T14:07:29Z</time>
      </trkpt>
      <trkpt lat="47.32933" lon="2.83709">
        <ele>282</ele>
        <time>2019-10-12T14:07:34Z</time>
      </trkpt>
      <trkpt lat="47.32932" lon="2.83707">
        <ele>282</ele>
        <time>2019-10-12T14:07:39Z</time>
      </trkpt>
      <trkpt lat="47.32931" lon="2.83707">
        <ele>282.20001220703</ele>
        <time>2019-10-12T14:07:44Z</time>
      </trkpt>
      <trkpt lat="47.32929" lon="2.83707">
        <ele>282</ele>
        <time>2019-10-12T14:07:49Z</time>
      </trkpt>
      <trkpt lat="47.32925" lon="2.83707">
        <ele>281.60000610352</ele>
        <time>2019-10-12T14:07:54Z</time>
      </trkpt>
      <trkpt lat="47.3292" lon="2.8371">
        <ele>281.60000610352</ele>
        <time>2019-10-12T14:07:59Z</time>
      </trkpt>
      <trkpt lat="47.32916" lon="2.83715">
        <ele>281.20001220703</ele>
        <time>2019-10-12T14:08:04Z</time>
      </trkpt>
      <trkpt lat="47.32912" lon="2.83717">
        <ele>281</ele>
        <time>2019-10-12T14:08:09Z</time>
      </trkpt>
      <trkpt lat="47.32909" lon="2.8372">
        <ele>281</ele>
        <time>2019-10-12T14:08:14Z</time>
      </trkpt>
      <trkpt lat="47.32904" lon="2.83723">
        <ele>281</ele>
        <time>2019-10-12T14:08:19Z</time>
      </trkpt>
      <trkpt lat="47.32901" lon="2.83724">
        <ele>280.79998779297</ele>
        <time>2019-10-12T14:08:24Z</time>
      </trkpt>
      <trkpt lat="47.32899" lon="2.83719">
        <ele>280.60000610352</ele>
        <time>2019-10-12T14:08:29Z</time>
      </trkpt>
      <trkpt lat="47.32896" lon="2.83712">
        <ele>280.39999389648</ele>
        <time>2019-10-12T14:08:34Z</time>
      </trkpt>
      <trkpt lat="47.32892" lon="2.83706">
        <ele>280.20001220703</ele>
        <time>2019-10-12T14:08:39Z</time>
      </trkpt>
      <trkpt lat="47.32891" lon="2.83696">
        <ele>279.79998779297</ele>
        <time>2019-10-12T14:08:44Z</time>
      </trkpt>
      <trkpt lat="47.32891" lon="2.83688">
        <ele>279.60000610352</ele>
        <time>2019-10-12T14:08:49Z</time>
      </trkpt>
      <trkpt lat="47.32887" lon="2.83681">
        <ele>279.20001220703</ele>
        <time>2019-10-12T14:08:54Z</time>
      </trkpt>
      <trkpt lat="47.32887" lon="2.83673">
        <ele>278.79998779297</ele>
        <time>2019-10-12T14:08:59Z</time>
      </trkpt>
      <trkpt lat="47.32883" lon="2.83667">
        <ele>278.39999389648</ele>
        <time>2019-10-12T14:09:04Z</time>
      </trkpt>
      <trkpt lat="47.32881" lon="2.83666">
        <ele>277.60000610352</ele>
        <time>2019-10-12T14:09:09Z</time>
      </trkpt>
      <trkpt lat="47.32886" lon="2.8366">
        <ele>277</ele>
        <time>2019-10-12T14:09:14Z</time>
      </trkpt>
      <trkpt lat="47.32891" lon="2.83656">
        <ele>276.39999389648</ele>
        <time>2019-10-12T14:09:19Z</time>
      </trkpt>
      <trkpt lat="47.32895" lon="2.83652">
        <ele>276</ele>
        <time>2019-10-12T14:09:24Z</time>
      </trkpt>
      <trkpt lat="47.32899" lon="2.83649">
        <ele>275.79998779297</ele>
        <time>2019-10-12T14:09:29Z</time>
      </trkpt>
      <trkpt lat="47.32903" lon="2.83645">
        <ele>275.79998779297</ele>
        <time>2019-10-12T14:09:34Z</time>
      </trkpt>
      <trkpt lat="47.32906" lon="2.8364">
        <ele>275.60000610352</ele>
        <time>2019-10-12T14:09:39Z</time>
      </trkpt>
      <trkpt lat="47.32909" lon="2.83633">
        <ele>275.39999389648</ele>
        <time>2019-10-12T14:09:44Z</time>
      </trkpt>
      <trkpt lat="47.32911" lon="2.83629">
        <ele>275.20001220703</ele>
        <time>2019-10-12T14:09:49Z</time>
      </trkpt>
      <trkpt lat="47.32911" lon="2.83627">
        <ele>274.79998779297</ele>
        <time>2019-10-12T14:09:54Z</time>
      </trkpt>
      <trkpt lat="47.32914" lon="2.83622">
        <ele>274.79998779297</ele>
        <time>2019-10-12T14:09:59Z</time>
      </trkpt>
      <trkpt lat="47.32918" lon="2.83618">
        <ele>275</ele>
        <time>2019-10-12T14:10:04Z</time>
      </trkpt>
      <trkpt lat="47.32921" lon="2.83614">
        <ele>275</ele>
        <time>2019-10-12T14:10:09Z</time>
      </trkpt>
      <trkpt lat="47.32923" lon="2.83608">
        <ele>275</ele>
        <time>2019-10-12T14:10:14Z</time>
      </trkpt>
      <trkpt lat="47.32924" lon="2.83606">
        <ele>275</ele>
        <time>2019-10-12T14:10:19Z</time>
      </trkpt>
      <trkpt lat="47.32924" lon="2.83607">
        <ele>275</ele>
        <time>2019-10-12T14:10:24Z</time>
      </trkpt>
      <trkpt lat="47.32924" lon="2.83607">
        <ele>275</ele>
        <time>2019-10-12T14:10:25Z</time>
      </trkpt>
      <trkpt lat="47.32924" lon="2.83608">
        <ele>275.20001220703</ele>
        <time>2019-10-12T14:10:30Z</time>
      </trkpt>
      <trkpt lat="47.32924" lon="2.83608">
        <ele>275.39999389648</ele>
        <time>2019-10-12T14:10:35Z</time>
      </trkpt>
      <trkpt lat="47.32924" lon="2.83609">
        <ele>275.39999389648</ele>
        <time>2019-10-12T14:10:40Z</time>
      </trkpt>
      <trkpt lat="47.32924" lon="2.83609">
        <ele>275.60000610352</ele>
        <time>2019-10-12T14:10:45Z</time>
      </trkpt>
      <trkpt lat="47.32924" lon="2.83609">
        <ele>275.60000610352</ele>
        <time>2019-10-12T14:10:50Z</time>
      </trkpt>
      <trkpt lat="47.32924" lon="2.83609">
        <ele>275.39999389648</ele>
        <time>2019-10-12T14:10:54Z</time>
      </trkpt>
    </trkseg>
  </trk>
</gpx>